<?xml version="1.0" encoding="UTF-8" standalone="no" ?>
<gpx xmlns="http://www.topografix.com/GPX/1/1" xmlns:xsi="http://www.w3.org/2001/XMLSchema-instance" xsi:schemaLocation="http://www.topografix.com/GPX/1/1 http://www.topografix.com/GPX/1/1/gpx.xsd" version="1.1" creator="VisuGPX - https://www.visugpx.com">
  <metadata>
    <name>lundi 2016 05</name>
    <desc><![CDATA[cumul des lundi du mois de mai 2016]]></desc>
  </metadata>
  <trk>
    <name><![CDATA[lundi 2016 05 02]]></name>
    <trkseg>
      <trkpt lat="48.85741" lon="2.34721">
        <ele>40.400001525879</ele>
        <time>2016-05-02T18:20:50.000Z</time>
      </trkpt>
      <trkpt lat="48.85744" lon="2.3472">
        <ele>40.400001525879</ele>
        <time>2016-05-02T18:20:51.000Z</time>
      </trkpt>
      <trkpt lat="48.85744" lon="2.34719">
        <ele>40.400001525879</ele>
        <time>2016-05-02T18:20:55.000Z</time>
      </trkpt>
      <trkpt lat="48.8576" lon="2.34722">
        <ele>39.799999237061</ele>
        <time>2016-05-02T18:21:14.000Z</time>
      </trkpt>
      <trkpt lat="48.85777" lon="2.34725">
        <ele>39.599998474121</ele>
        <time>2016-05-02T18:21:22.000Z</time>
      </trkpt>
      <trkpt lat="48.85794" lon="2.34707">
        <ele>40.400001525879</ele>
        <time>2016-05-02T18:21:29.000Z</time>
      </trkpt>
      <trkpt lat="48.85808" lon="2.34686">
        <ele>41.599998474121</ele>
        <time>2016-05-02T18:21:34.000Z</time>
      </trkpt>
      <trkpt lat="48.85821" lon="2.34662">
        <ele>44.200000762939</ele>
        <time>2016-05-02T18:21:40.000Z</time>
      </trkpt>
      <trkpt lat="48.85828" lon="2.34633">
        <ele>47.799999237061</ele>
        <time>2016-05-02T18:21:46.000Z</time>
      </trkpt>
      <trkpt lat="48.85836" lon="2.34608">
        <ele>49</ele>
        <time>2016-05-02T18:21:52.000Z</time>
      </trkpt>
      <trkpt lat="48.85839" lon="2.34606">
        <ele>49.200000762939</ele>
        <time>2016-05-02T18:21:53.000Z</time>
      </trkpt>
      <trkpt lat="48.85847" lon="2.34605">
        <ele>49.799999237061</ele>
        <time>2016-05-02T18:21:58.000Z</time>
      </trkpt>
      <trkpt lat="48.85865" lon="2.34612">
        <ele>50</ele>
        <time>2016-05-02T18:22:05.000Z</time>
      </trkpt>
      <trkpt lat="48.85882" lon="2.34598">
        <ele>50.200000762939</ele>
        <time>2016-05-02T18:22:14.000Z</time>
      </trkpt>
      <trkpt lat="48.85888" lon="2.34569">
        <ele>50.599998474121</ele>
        <time>2016-05-02T18:22:22.000Z</time>
      </trkpt>
      <trkpt lat="48.85894" lon="2.34543">
        <ele>49.599998474121</ele>
        <time>2016-05-02T18:22:30.000Z</time>
      </trkpt>
      <trkpt lat="48.85914" lon="2.34533">
        <ele>50</ele>
        <time>2016-05-02T18:22:39.000Z</time>
      </trkpt>
      <trkpt lat="48.85933" lon="2.34539">
        <ele>50.799999237061</ele>
        <time>2016-05-02T18:22:48.000Z</time>
      </trkpt>
      <trkpt lat="48.85936" lon="2.34536">
        <ele>50.799999237061</ele>
        <time>2016-05-02T18:22:51.000Z</time>
      </trkpt>
      <trkpt lat="48.85944" lon="2.34537">
        <ele>50.799999237061</ele>
        <time>2016-05-02T18:22:56.000Z</time>
      </trkpt>
      <trkpt lat="48.85953" lon="2.34527">
        <ele>50.599998474121</ele>
        <time>2016-05-02T18:23:02.000Z</time>
      </trkpt>
      <trkpt lat="48.85959" lon="2.345">
        <ele>51.400001525879</ele>
        <time>2016-05-02T18:23:09.000Z</time>
      </trkpt>
      <trkpt lat="48.85973" lon="2.34475">
        <ele>52</ele>
        <time>2016-05-02T18:23:16.000Z</time>
      </trkpt>
      <trkpt lat="48.85982" lon="2.34445">
        <ele>52.599998474121</ele>
        <time>2016-05-02T18:23:22.000Z</time>
      </trkpt>
      <trkpt lat="48.85985" lon="2.34417">
        <ele>53</ele>
        <time>2016-05-02T18:23:27.000Z</time>
      </trkpt>
      <trkpt lat="48.8599" lon="2.34411">
        <ele>53.200000762939</ele>
        <time>2016-05-02T18:23:29.000Z</time>
      </trkpt>
      <trkpt lat="48.85999" lon="2.34385">
        <ele>53.599998474121</ele>
        <time>2016-05-02T18:23:34.000Z</time>
      </trkpt>
      <trkpt lat="48.8601" lon="2.34362">
        <ele>53.400001525879</ele>
        <time>2016-05-02T18:23:38.000Z</time>
      </trkpt>
      <trkpt lat="48.86019" lon="2.34337">
        <ele>53</ele>
        <time>2016-05-02T18:23:42.000Z</time>
      </trkpt>
      <trkpt lat="48.86028" lon="2.3431">
        <ele>51.599998474121</ele>
        <time>2016-05-02T18:23:46.000Z</time>
      </trkpt>
      <trkpt lat="48.86039" lon="2.34279">
        <ele>49.599998474121</ele>
        <time>2016-05-02T18:23:50.000Z</time>
      </trkpt>
      <trkpt lat="48.86047" lon="2.34252">
        <ele>48.400001525879</ele>
        <time>2016-05-02T18:23:53.000Z</time>
      </trkpt>
      <trkpt lat="48.86056" lon="2.34221">
        <ele>48.400001525879</ele>
        <time>2016-05-02T18:23:57.000Z</time>
      </trkpt>
      <trkpt lat="48.86065" lon="2.34193">
        <ele>48.400001525879</ele>
        <time>2016-05-02T18:24:01.000Z</time>
      </trkpt>
      <trkpt lat="48.86074" lon="2.34176">
        <ele>48.200000762939</ele>
        <time>2016-05-02T18:24:04.000Z</time>
      </trkpt>
      <trkpt lat="48.86092" lon="2.34155">
        <ele>48</ele>
        <time>2016-05-02T18:24:09.000Z</time>
      </trkpt>
      <trkpt lat="48.86096" lon="2.34127">
        <ele>47.400001525879</ele>
        <time>2016-05-02T18:24:13.000Z</time>
      </trkpt>
      <trkpt lat="48.86099" lon="2.34111">
        <ele>46.799999237061</ele>
        <time>2016-05-02T18:24:16.000Z</time>
      </trkpt>
      <trkpt lat="48.8611" lon="2.34082">
        <ele>46.200000762939</ele>
        <time>2016-05-02T18:24:22.000Z</time>
      </trkpt>
      <trkpt lat="48.86114" lon="2.3407">
        <ele>46.400001525879</ele>
        <time>2016-05-02T18:24:24.000Z</time>
      </trkpt>
      <trkpt lat="48.86126" lon="2.34043">
        <ele>47.200000762939</ele>
        <time>2016-05-02T18:24:29.000Z</time>
      </trkpt>
      <trkpt lat="48.86141" lon="2.34021">
        <ele>47.799999237061</ele>
        <time>2016-05-02T18:24:34.000Z</time>
      </trkpt>
      <trkpt lat="48.86153" lon="2.34">
        <ele>48.200000762939</ele>
        <time>2016-05-02T18:24:39.000Z</time>
      </trkpt>
      <trkpt lat="48.86157" lon="2.33987">
        <ele>48.799999237061</ele>
        <time>2016-05-02T18:24:42.000Z</time>
      </trkpt>
      <trkpt lat="48.86167" lon="2.33961">
        <ele>49</ele>
        <time>2016-05-02T18:24:49.000Z</time>
      </trkpt>
      <trkpt lat="48.8617" lon="2.33934">
        <ele>47.400001525879</ele>
        <time>2016-05-02T18:24:56.000Z</time>
      </trkpt>
      <trkpt lat="48.8618" lon="2.3391">
        <ele>45.799999237061</ele>
        <time>2016-05-02T18:25:01.000Z</time>
      </trkpt>
      <trkpt lat="48.86191" lon="2.33882">
        <ele>44.400001525879</ele>
        <time>2016-05-02T18:25:06.000Z</time>
      </trkpt>
      <trkpt lat="48.862" lon="2.33857">
        <ele>44</ele>
        <time>2016-05-02T18:25:10.000Z</time>
      </trkpt>
      <trkpt lat="48.86209" lon="2.3383">
        <ele>43.599998474121</ele>
        <time>2016-05-02T18:25:14.000Z</time>
      </trkpt>
      <trkpt lat="48.86218" lon="2.33801">
        <ele>45.200000762939</ele>
        <time>2016-05-02T18:25:18.000Z</time>
      </trkpt>
      <trkpt lat="48.86229" lon="2.33774">
        <ele>46.200000762939</ele>
        <time>2016-05-02T18:25:22.000Z</time>
      </trkpt>
      <trkpt lat="48.8624" lon="2.33746">
        <ele>46.400001525879</ele>
        <time>2016-05-02T18:25:26.000Z</time>
      </trkpt>
      <trkpt lat="48.86255" lon="2.33724">
        <ele>47.200000762939</ele>
        <time>2016-05-02T18:25:30.000Z</time>
      </trkpt>
      <trkpt lat="48.86265" lon="2.33697">
        <ele>47</ele>
        <time>2016-05-02T18:25:34.000Z</time>
      </trkpt>
      <trkpt lat="48.86269" lon="2.33685">
        <ele>47</ele>
        <time>2016-05-02T18:25:36.000Z</time>
      </trkpt>
      <trkpt lat="48.86272" lon="2.33673">
        <ele>47</ele>
        <time>2016-05-02T18:25:38.000Z</time>
      </trkpt>
      <trkpt lat="48.86265" lon="2.33644">
        <ele>47.400001525879</ele>
        <time>2016-05-02T18:25:42.000Z</time>
      </trkpt>
      <trkpt lat="48.86264" lon="2.33637">
        <ele>47.599998474121</ele>
        <time>2016-05-02T18:25:43.000Z</time>
      </trkpt>
      <trkpt lat="48.86263" lon="2.33623">
        <ele>47.799999237061</ele>
        <time>2016-05-02T18:25:45.000Z</time>
      </trkpt>
      <trkpt lat="48.86268" lon="2.33598">
        <ele>47.799999237061</ele>
        <time>2016-05-02T18:25:49.000Z</time>
      </trkpt>
      <trkpt lat="48.86277" lon="2.33568">
        <ele>47.400001525879</ele>
        <time>2016-05-02T18:25:54.000Z</time>
      </trkpt>
      <trkpt lat="48.86284" lon="2.33535">
        <ele>45.599998474121</ele>
        <time>2016-05-02T18:25:59.000Z</time>
      </trkpt>
      <trkpt lat="48.8629" lon="2.33509">
        <ele>44.599998474121</ele>
        <time>2016-05-02T18:26:03.000Z</time>
      </trkpt>
      <trkpt lat="48.86297" lon="2.33491">
        <ele>45</ele>
        <time>2016-05-02T18:26:06.000Z</time>
      </trkpt>
      <trkpt lat="48.86301" lon="2.33478">
        <ele>45.200000762939</ele>
        <time>2016-05-02T18:26:08.000Z</time>
      </trkpt>
      <trkpt lat="48.86306" lon="2.33457">
        <ele>45.200000762939</ele>
        <time>2016-05-02T18:26:11.000Z</time>
      </trkpt>
      <trkpt lat="48.86318" lon="2.33428">
        <ele>46.799999237061</ele>
        <time>2016-05-02T18:26:16.000Z</time>
      </trkpt>
      <trkpt lat="48.86321" lon="2.33422">
        <ele>47.400001525879</ele>
        <time>2016-05-02T18:26:17.000Z</time>
      </trkpt>
      <trkpt lat="48.86334" lon="2.334">
        <ele>49.200000762939</ele>
        <time>2016-05-02T18:26:22.000Z</time>
      </trkpt>
      <trkpt lat="48.86334" lon="2.33394">
        <ele>49.400001525879</ele>
        <time>2016-05-02T18:26:23.000Z</time>
      </trkpt>
      <trkpt lat="48.8634" lon="2.3336">
        <ele>48.400001525879</ele>
        <time>2016-05-02T18:26:29.000Z</time>
      </trkpt>
      <trkpt lat="48.86344" lon="2.33326">
        <ele>47.599998474121</ele>
        <time>2016-05-02T18:26:34.000Z</time>
      </trkpt>
      <trkpt lat="48.8635" lon="2.33299">
        <ele>46.599998474121</ele>
        <time>2016-05-02T18:26:38.000Z</time>
      </trkpt>
      <trkpt lat="48.86356" lon="2.33272">
        <ele>45.200000762939</ele>
        <time>2016-05-02T18:26:42.000Z</time>
      </trkpt>
      <trkpt lat="48.86368" lon="2.33243">
        <ele>44.200000762939</ele>
        <time>2016-05-02T18:26:47.000Z</time>
      </trkpt>
      <trkpt lat="48.86382" lon="2.33223">
        <ele>43.400001525879</ele>
        <time>2016-05-02T18:26:52.000Z</time>
      </trkpt>
      <trkpt lat="48.86392" lon="2.33195">
        <ele>42.200000762939</ele>
        <time>2016-05-02T18:26:57.000Z</time>
      </trkpt>
      <trkpt lat="48.86399" lon="2.33177">
        <ele>42</ele>
        <time>2016-05-02T18:27:00.000Z</time>
      </trkpt>
      <trkpt lat="48.86407" lon="2.33151">
        <ele>42.400001525879</ele>
        <time>2016-05-02T18:27:04.000Z</time>
      </trkpt>
      <trkpt lat="48.86414" lon="2.33124">
        <ele>43.200000762939</ele>
        <time>2016-05-02T18:27:08.000Z</time>
      </trkpt>
      <trkpt lat="48.86424" lon="2.33095">
        <ele>44</ele>
        <time>2016-05-02T18:27:12.000Z</time>
      </trkpt>
      <trkpt lat="48.86434" lon="2.33066">
        <ele>44.599998474121</ele>
        <time>2016-05-02T18:27:16.000Z</time>
      </trkpt>
      <trkpt lat="48.86445" lon="2.33036">
        <ele>44.200000762939</ele>
        <time>2016-05-02T18:27:20.000Z</time>
      </trkpt>
      <trkpt lat="48.86453" lon="2.3301">
        <ele>43.799999237061</ele>
        <time>2016-05-02T18:27:23.000Z</time>
      </trkpt>
      <trkpt lat="48.86461" lon="2.32982">
        <ele>44</ele>
        <time>2016-05-02T18:27:26.000Z</time>
      </trkpt>
      <trkpt lat="48.86469" lon="2.32953">
        <ele>44.400001525879</ele>
        <time>2016-05-02T18:27:29.000Z</time>
      </trkpt>
      <trkpt lat="48.86477" lon="2.32926">
        <ele>44.400001525879</ele>
        <time>2016-05-02T18:27:32.000Z</time>
      </trkpt>
      <trkpt lat="48.86485" lon="2.32899">
        <ele>44.799999237061</ele>
        <time>2016-05-02T18:27:35.000Z</time>
      </trkpt>
      <trkpt lat="48.86494" lon="2.32872">
        <ele>45.400001525879</ele>
        <time>2016-05-02T18:27:38.000Z</time>
      </trkpt>
      <trkpt lat="48.86502" lon="2.32845">
        <ele>45.400001525879</ele>
        <time>2016-05-02T18:27:41.000Z</time>
      </trkpt>
      <trkpt lat="48.86509" lon="2.32819">
        <ele>45.200000762939</ele>
        <time>2016-05-02T18:27:44.000Z</time>
      </trkpt>
      <trkpt lat="48.86516" lon="2.32792">
        <ele>45.200000762939</ele>
        <time>2016-05-02T18:27:47.000Z</time>
      </trkpt>
      <trkpt lat="48.86526" lon="2.3276">
        <ele>45.200000762939</ele>
        <time>2016-05-02T18:27:51.000Z</time>
      </trkpt>
      <trkpt lat="48.86535" lon="2.32732">
        <ele>44.799999237061</ele>
        <time>2016-05-02T18:27:55.000Z</time>
      </trkpt>
      <trkpt lat="48.86539" lon="2.32727">
        <ele>44.599998474121</ele>
        <time>2016-05-02T18:27:58.000Z</time>
      </trkpt>
      <trkpt lat="48.86544" lon="2.32707">
        <ele>43.799999237061</ele>
        <time>2016-05-02T18:28:17.000Z</time>
      </trkpt>
      <trkpt lat="48.86548" lon="2.32692">
        <ele>43.200000762939</ele>
        <time>2016-05-02T18:28:19.000Z</time>
      </trkpt>
      <trkpt lat="48.86553" lon="2.32678">
        <ele>43.200000762939</ele>
        <time>2016-05-02T18:28:21.000Z</time>
      </trkpt>
      <trkpt lat="48.86562" lon="2.32647">
        <ele>42.799999237061</ele>
        <time>2016-05-02T18:28:25.000Z</time>
      </trkpt>
      <trkpt lat="48.86571" lon="2.32616">
        <ele>42.400001525879</ele>
        <time>2016-05-02T18:28:29.000Z</time>
      </trkpt>
      <trkpt lat="48.86578" lon="2.32586">
        <ele>42.200000762939</ele>
        <time>2016-05-02T18:28:33.000Z</time>
      </trkpt>
      <trkpt lat="48.86587" lon="2.32559">
        <ele>42.599998474121</ele>
        <time>2016-05-02T18:28:37.000Z</time>
      </trkpt>
      <trkpt lat="48.86598" lon="2.32533">
        <ele>42.400001525879</ele>
        <time>2016-05-02T18:28:41.000Z</time>
      </trkpt>
      <trkpt lat="48.86607" lon="2.32503">
        <ele>42.200000762939</ele>
        <time>2016-05-02T18:28:45.000Z</time>
      </trkpt>
      <trkpt lat="48.86614" lon="2.32474">
        <ele>41.200000762939</ele>
        <time>2016-05-02T18:28:49.000Z</time>
      </trkpt>
      <trkpt lat="48.86621" lon="2.32448">
        <ele>40.200000762939</ele>
        <time>2016-05-02T18:28:53.000Z</time>
      </trkpt>
      <trkpt lat="48.86626" lon="2.32434">
        <ele>39.799999237061</ele>
        <time>2016-05-02T18:28:56.000Z</time>
      </trkpt>
      <trkpt lat="48.8663" lon="2.32427">
        <ele>39.799999237061</ele>
        <time>2016-05-02T18:28:58.000Z</time>
      </trkpt>
      <trkpt lat="48.86641" lon="2.3242">
        <ele>40.599998474121</ele>
        <time>2016-05-02T18:29:05.000Z</time>
      </trkpt>
      <trkpt lat="48.86657" lon="2.32434">
        <ele>42</ele>
        <time>2016-05-02T18:29:11.000Z</time>
      </trkpt>
      <trkpt lat="48.86673" lon="2.32448">
        <ele>43.200000762939</ele>
        <time>2016-05-02T18:29:16.000Z</time>
      </trkpt>
      <trkpt lat="48.86678" lon="2.32457">
        <ele>43.799999237061</ele>
        <time>2016-05-02T18:29:21.000Z</time>
      </trkpt>
      <trkpt lat="48.86678" lon="2.3247">
        <ele>43.799999237061</ele>
        <time>2016-05-02T18:29:25.000Z</time>
      </trkpt>
      <trkpt lat="48.86676" lon="2.32499">
        <ele>44.599998474121</ele>
        <time>2016-05-02T18:29:30.000Z</time>
      </trkpt>
      <trkpt lat="48.86667" lon="2.32528">
        <ele>44.599998474121</ele>
        <time>2016-05-02T18:29:36.000Z</time>
      </trkpt>
      <trkpt lat="48.86675" lon="2.32562">
        <ele>45.200000762939</ele>
        <time>2016-05-02T18:29:44.000Z</time>
      </trkpt>
      <trkpt lat="48.86664" lon="2.32586">
        <ele>45.599998474121</ele>
        <time>2016-05-02T18:29:52.000Z</time>
      </trkpt>
      <trkpt lat="48.8665" lon="2.32611">
        <ele>45.799999237061</ele>
        <time>2016-05-02T18:29:58.000Z</time>
      </trkpt>
      <trkpt lat="48.86635" lon="2.32633">
        <ele>46</ele>
        <time>2016-05-02T18:30:03.000Z</time>
      </trkpt>
      <trkpt lat="48.86626" lon="2.32661">
        <ele>46.400001525879</ele>
        <time>2016-05-02T18:30:08.000Z</time>
      </trkpt>
      <trkpt lat="48.86617" lon="2.32685">
        <ele>46.799999237061</ele>
        <time>2016-05-02T18:30:12.000Z</time>
      </trkpt>
      <trkpt lat="48.86609" lon="2.32713">
        <ele>47.200000762939</ele>
        <time>2016-05-02T18:30:17.000Z</time>
      </trkpt>
      <trkpt lat="48.86603" lon="2.32743">
        <ele>47.599998474121</ele>
        <time>2016-05-02T18:30:23.000Z</time>
      </trkpt>
      <trkpt lat="48.86598" lon="2.32775">
        <ele>47.400001525879</ele>
        <time>2016-05-02T18:30:28.000Z</time>
      </trkpt>
      <trkpt lat="48.86608" lon="2.3279">
        <ele>47.400001525879</ele>
        <time>2016-05-02T18:30:30.000Z</time>
      </trkpt>
      <trkpt lat="48.86621" lon="2.32813">
        <ele>47.200000762939</ele>
        <time>2016-05-02T18:30:36.000Z</time>
      </trkpt>
      <trkpt lat="48.86638" lon="2.32828">
        <ele>47</ele>
        <time>2016-05-02T18:30:42.000Z</time>
      </trkpt>
      <trkpt lat="48.86657" lon="2.32841">
        <ele>47</ele>
        <time>2016-05-02T18:30:46.000Z</time>
      </trkpt>
      <trkpt lat="48.86671" lon="2.32859">
        <ele>47</ele>
        <time>2016-05-02T18:30:50.000Z</time>
      </trkpt>
      <trkpt lat="48.86687" lon="2.32878">
        <ele>47</ele>
        <time>2016-05-02T18:30:55.000Z</time>
      </trkpt>
      <trkpt lat="48.867" lon="2.32897">
        <ele>46.400001525879</ele>
        <time>2016-05-02T18:31:01.000Z</time>
      </trkpt>
      <trkpt lat="48.86717" lon="2.32918">
        <ele>45.400001525879</ele>
        <time>2016-05-02T18:31:06.000Z</time>
      </trkpt>
      <trkpt lat="48.8673" lon="2.32937">
        <ele>44.799999237061</ele>
        <time>2016-05-02T18:31:10.000Z</time>
      </trkpt>
      <trkpt lat="48.86751" lon="2.32953">
        <ele>43.799999237061</ele>
        <time>2016-05-02T18:31:14.000Z</time>
      </trkpt>
      <trkpt lat="48.8677" lon="2.32965">
        <ele>42.799999237061</ele>
        <time>2016-05-02T18:31:18.000Z</time>
      </trkpt>
      <trkpt lat="48.86789" lon="2.32979">
        <ele>43.400001525879</ele>
        <time>2016-05-02T18:31:23.000Z</time>
      </trkpt>
      <trkpt lat="48.86801" lon="2.32991">
        <ele>44</ele>
        <time>2016-05-02T18:31:27.000Z</time>
      </trkpt>
      <trkpt lat="48.86811" lon="2.33001">
        <ele>44.599998474121</ele>
        <time>2016-05-02T18:31:31.000Z</time>
      </trkpt>
      <trkpt lat="48.86827" lon="2.33017">
        <ele>46.200000762939</ele>
        <time>2016-05-02T18:31:38.000Z</time>
      </trkpt>
      <trkpt lat="48.86845" lon="2.33016">
        <ele>46.799999237061</ele>
        <time>2016-05-02T18:31:44.000Z</time>
      </trkpt>
      <trkpt lat="48.86865" lon="2.33004">
        <ele>46.599998474121</ele>
        <time>2016-05-02T18:31:50.000Z</time>
      </trkpt>
      <trkpt lat="48.86881" lon="2.32984">
        <ele>47.599998474121</ele>
        <time>2016-05-02T18:31:55.000Z</time>
      </trkpt>
      <trkpt lat="48.86898" lon="2.32964">
        <ele>48.599998474121</ele>
        <time>2016-05-02T18:32:00.000Z</time>
      </trkpt>
      <trkpt lat="48.86913" lon="2.32941">
        <ele>49</ele>
        <time>2016-05-02T18:32:05.000Z</time>
      </trkpt>
      <trkpt lat="48.86927" lon="2.32916">
        <ele>49.400001525879</ele>
        <time>2016-05-02T18:32:10.000Z</time>
      </trkpt>
      <trkpt lat="48.86944" lon="2.329">
        <ele>50</ele>
        <time>2016-05-02T18:32:14.000Z</time>
      </trkpt>
      <trkpt lat="48.86961" lon="2.32882">
        <ele>50</ele>
        <time>2016-05-02T18:32:18.000Z</time>
      </trkpt>
      <trkpt lat="48.86978" lon="2.32863">
        <ele>49.799999237061</ele>
        <time>2016-05-02T18:32:23.000Z</time>
      </trkpt>
      <trkpt lat="48.86996" lon="2.32854">
        <ele>48.799999237061</ele>
        <time>2016-05-02T18:32:29.000Z</time>
      </trkpt>
      <trkpt lat="48.87003" lon="2.32847">
        <ele>48.400001525879</ele>
        <time>2016-05-02T18:32:33.000Z</time>
      </trkpt>
      <trkpt lat="48.86994" lon="2.32834">
        <ele>48.200000762939</ele>
        <time>2016-05-02T18:32:42.000Z</time>
      </trkpt>
      <trkpt lat="48.86995" lon="2.32834">
        <ele>48.200000762939</ele>
        <time>2016-05-02T18:32:43.000Z</time>
      </trkpt>
      <trkpt lat="48.87001" lon="2.32804">
        <ele>47.799999237061</ele>
        <time>2016-05-02T18:32:55.000Z</time>
      </trkpt>
      <trkpt lat="48.87016" lon="2.3278">
        <ele>47.200000762939</ele>
        <time>2016-05-02T18:33:00.000Z</time>
      </trkpt>
      <trkpt lat="48.87028" lon="2.32756">
        <ele>47.200000762939</ele>
        <time>2016-05-02T18:33:04.000Z</time>
      </trkpt>
      <trkpt lat="48.87038" lon="2.32731">
        <ele>47.599998474121</ele>
        <time>2016-05-02T18:33:08.000Z</time>
      </trkpt>
      <trkpt lat="48.87047" lon="2.32706">
        <ele>48</ele>
        <time>2016-05-02T18:33:12.000Z</time>
      </trkpt>
      <trkpt lat="48.87052" lon="2.32678">
        <ele>48.599998474121</ele>
        <time>2016-05-02T18:33:16.000Z</time>
      </trkpt>
      <trkpt lat="48.87061" lon="2.32654">
        <ele>48.599998474121</ele>
        <time>2016-05-02T18:33:20.000Z</time>
      </trkpt>
      <trkpt lat="48.87069" lon="2.32633">
        <ele>48.400001525879</ele>
        <time>2016-05-02T18:33:24.000Z</time>
      </trkpt>
      <trkpt lat="48.87071" lon="2.32611">
        <ele>47.599998474121</ele>
        <time>2016-05-02T18:33:27.000Z</time>
      </trkpt>
      <trkpt lat="48.8707" lon="2.32584">
        <ele>46.799999237061</ele>
        <time>2016-05-02T18:33:31.000Z</time>
      </trkpt>
      <trkpt lat="48.87073" lon="2.32567">
        <ele>45.400001525879</ele>
        <time>2016-05-02T18:33:34.000Z</time>
      </trkpt>
      <trkpt lat="48.8708" lon="2.32546">
        <ele>44.400001525879</ele>
        <time>2016-05-02T18:33:38.000Z</time>
      </trkpt>
      <trkpt lat="48.87086" lon="2.32534">
        <ele>44.799999237061</ele>
        <time>2016-05-02T18:33:41.000Z</time>
      </trkpt>
      <trkpt lat="48.87104" lon="2.32536">
        <ele>46.400001525879</ele>
        <time>2016-05-02T18:33:47.000Z</time>
      </trkpt>
      <trkpt lat="48.87125" lon="2.32546">
        <ele>47.200000762939</ele>
        <time>2016-05-02T18:33:53.000Z</time>
      </trkpt>
      <trkpt lat="48.87143" lon="2.32553">
        <ele>48</ele>
        <time>2016-05-02T18:33:57.000Z</time>
      </trkpt>
      <trkpt lat="48.87162" lon="2.32564">
        <ele>48.799999237061</ele>
        <time>2016-05-02T18:34:03.000Z</time>
      </trkpt>
      <trkpt lat="48.87243" lon="2.32494">
        <ele>50</ele>
        <time>2016-05-02T18:34:59.000Z</time>
      </trkpt>
      <trkpt lat="48.87248" lon="2.32462">
        <ele>49.400001525879</ele>
        <time>2016-05-02T18:35:04.000Z</time>
      </trkpt>
      <trkpt lat="48.87256" lon="2.32436">
        <ele>48.799999237061</ele>
        <time>2016-05-02T18:35:08.000Z</time>
      </trkpt>
      <trkpt lat="48.8727" lon="2.32417">
        <ele>48.200000762939</ele>
        <time>2016-05-02T18:35:13.000Z</time>
      </trkpt>
      <trkpt lat="48.8729" lon="2.3241">
        <ele>47.400001525879</ele>
        <time>2016-05-02T18:35:21.000Z</time>
      </trkpt>
      <trkpt lat="48.87312" lon="2.32408">
        <ele>46.599998474121</ele>
        <time>2016-05-02T18:35:26.000Z</time>
      </trkpt>
      <trkpt lat="48.87331" lon="2.3242">
        <ele>46</ele>
        <time>2016-05-02T18:35:32.000Z</time>
      </trkpt>
      <trkpt lat="48.87351" lon="2.32426">
        <ele>45.400001525879</ele>
        <time>2016-05-02T18:35:37.000Z</time>
      </trkpt>
      <trkpt lat="48.87372" lon="2.32436">
        <ele>44.599998474121</ele>
        <time>2016-05-02T18:35:41.000Z</time>
      </trkpt>
      <trkpt lat="48.87394" lon="2.32443">
        <ele>43.799999237061</ele>
        <time>2016-05-02T18:35:45.000Z</time>
      </trkpt>
      <trkpt lat="48.874" lon="2.32443">
        <ele>43.599998474121</ele>
        <time>2016-05-02T18:35:46.000Z</time>
      </trkpt>
      <trkpt lat="48.87406" lon="2.32452">
        <ele>43.400001525879</ele>
        <time>2016-05-02T18:35:48.000Z</time>
      </trkpt>
      <trkpt lat="48.87422" lon="2.32441">
        <ele>43</ele>
        <time>2016-05-02T18:35:52.000Z</time>
      </trkpt>
      <trkpt lat="48.87431" lon="2.32422">
        <ele>43.200000762939</ele>
        <time>2016-05-02T18:35:55.000Z</time>
      </trkpt>
      <trkpt lat="48.87431" lon="2.3241">
        <ele>43.200000762939</ele>
        <time>2016-05-02T18:35:57.000Z</time>
      </trkpt>
      <trkpt lat="48.87438" lon="2.32383">
        <ele>43</ele>
        <time>2016-05-02T18:36:01.000Z</time>
      </trkpt>
      <trkpt lat="48.87445" lon="2.32358">
        <ele>43</ele>
        <time>2016-05-02T18:36:05.000Z</time>
      </trkpt>
      <trkpt lat="48.87446" lon="2.32352">
        <ele>43</ele>
        <time>2016-05-02T18:36:06.000Z</time>
      </trkpt>
      <trkpt lat="48.87444" lon="2.32318">
        <ele>43.599998474121</ele>
        <time>2016-05-02T18:36:11.000Z</time>
      </trkpt>
      <trkpt lat="48.87446" lon="2.3229">
        <ele>44.599998474121</ele>
        <time>2016-05-02T18:36:15.000Z</time>
      </trkpt>
      <trkpt lat="48.87446" lon="2.32276">
        <ele>45.200000762939</ele>
        <time>2016-05-02T18:36:17.000Z</time>
      </trkpt>
      <trkpt lat="48.87447" lon="2.3225">
        <ele>46</ele>
        <time>2016-05-02T18:36:21.000Z</time>
      </trkpt>
      <trkpt lat="48.8745" lon="2.32226">
        <ele>46.799999237061</ele>
        <time>2016-05-02T18:36:25.000Z</time>
      </trkpt>
      <trkpt lat="48.87461" lon="2.32196">
        <ele>48</ele>
        <time>2016-05-02T18:36:30.000Z</time>
      </trkpt>
      <trkpt lat="48.87467" lon="2.32164">
        <ele>48.400001525879</ele>
        <time>2016-05-02T18:36:35.000Z</time>
      </trkpt>
      <trkpt lat="48.8747" lon="2.32133">
        <ele>48</ele>
        <time>2016-05-02T18:36:40.000Z</time>
      </trkpt>
      <trkpt lat="48.87472" lon="2.32119">
        <ele>47.599998474121</ele>
        <time>2016-05-02T18:36:42.000Z</time>
      </trkpt>
      <trkpt lat="48.87478" lon="2.32087">
        <ele>46.799999237061</ele>
        <time>2016-05-02T18:36:47.000Z</time>
      </trkpt>
      <trkpt lat="48.87482" lon="2.32059">
        <ele>46</ele>
        <time>2016-05-02T18:36:52.000Z</time>
      </trkpt>
      <trkpt lat="48.87482" lon="2.32047">
        <ele>45.599998474121</ele>
        <time>2016-05-02T18:36:55.000Z</time>
      </trkpt>
      <trkpt lat="48.8749" lon="2.32031">
        <ele>45.599998474121</ele>
        <time>2016-05-02T18:36:59.000Z</time>
      </trkpt>
      <trkpt lat="48.87496" lon="2.32018">
        <ele>45.799999237061</ele>
        <time>2016-05-02T18:37:14.000Z</time>
      </trkpt>
      <trkpt lat="48.87511" lon="2.32">
        <ele>46</ele>
        <time>2016-05-02T18:37:25.000Z</time>
      </trkpt>
      <trkpt lat="48.87526" lon="2.31979">
        <ele>45.599998474121</ele>
        <time>2016-05-02T18:37:30.000Z</time>
      </trkpt>
      <trkpt lat="48.87537" lon="2.31958">
        <ele>44.799999237061</ele>
        <time>2016-05-02T18:37:34.000Z</time>
      </trkpt>
      <trkpt lat="48.87552" lon="2.31941">
        <ele>44</ele>
        <time>2016-05-02T18:37:38.000Z</time>
      </trkpt>
      <trkpt lat="48.87568" lon="2.3192">
        <ele>43.599998474121</ele>
        <time>2016-05-02T18:37:43.000Z</time>
      </trkpt>
      <trkpt lat="48.87584" lon="2.31906">
        <ele>43.599998474121</ele>
        <time>2016-05-02T18:37:47.000Z</time>
      </trkpt>
      <trkpt lat="48.87599" lon="2.3189">
        <ele>44.400001525879</ele>
        <time>2016-05-02T18:37:51.000Z</time>
      </trkpt>
      <trkpt lat="48.87617" lon="2.31872">
        <ele>46.200000762939</ele>
        <time>2016-05-02T18:37:57.000Z</time>
      </trkpt>
      <trkpt lat="48.87624" lon="2.31861">
        <ele>47.400001525879</ele>
        <time>2016-05-02T18:38:00.000Z</time>
      </trkpt>
      <trkpt lat="48.87636" lon="2.31837">
        <ele>48.400001525879</ele>
        <time>2016-05-02T18:38:05.000Z</time>
      </trkpt>
      <trkpt lat="48.87653" lon="2.31817">
        <ele>49</ele>
        <time>2016-05-02T18:38:09.000Z</time>
      </trkpt>
      <trkpt lat="48.87667" lon="2.31797">
        <ele>50</ele>
        <time>2016-05-02T18:38:14.000Z</time>
      </trkpt>
      <trkpt lat="48.87668" lon="2.31794">
        <ele>50</ele>
        <time>2016-05-02T18:38:15.000Z</time>
      </trkpt>
      <trkpt lat="48.87675" lon="2.31784">
        <ele>50.400001525879</ele>
        <time>2016-05-02T18:38:18.000Z</time>
      </trkpt>
      <trkpt lat="48.87689" lon="2.31765">
        <ele>51.400001525879</ele>
        <time>2016-05-02T18:38:24.000Z</time>
      </trkpt>
      <trkpt lat="48.87703" lon="2.31748">
        <ele>52.200000762939</ele>
        <time>2016-05-02T18:38:28.000Z</time>
      </trkpt>
      <trkpt lat="48.87717" lon="2.31728">
        <ele>52.200000762939</ele>
        <time>2016-05-02T18:38:33.000Z</time>
      </trkpt>
      <trkpt lat="48.87734" lon="2.31711">
        <ele>52.200000762939</ele>
        <time>2016-05-02T18:38:39.000Z</time>
      </trkpt>
      <trkpt lat="48.87745" lon="2.31686">
        <ele>52</ele>
        <time>2016-05-02T18:38:46.000Z</time>
      </trkpt>
      <trkpt lat="48.87753" lon="2.31669">
        <ele>51.799999237061</ele>
        <time>2016-05-02T18:38:51.000Z</time>
      </trkpt>
      <trkpt lat="48.8777" lon="2.31664">
        <ele>52</ele>
        <time>2016-05-02T18:39:07.000Z</time>
      </trkpt>
      <trkpt lat="48.8778" lon="2.3166">
        <ele>52.200000762939</ele>
        <time>2016-05-02T18:39:55.000Z</time>
      </trkpt>
      <trkpt lat="48.87792" lon="2.31639">
        <ele>52.599998474121</ele>
        <time>2016-05-02T18:40:04.000Z</time>
      </trkpt>
      <trkpt lat="48.87808" lon="2.31622">
        <ele>53.200000762939</ele>
        <time>2016-05-02T18:40:10.000Z</time>
      </trkpt>
      <trkpt lat="48.87823" lon="2.316">
        <ele>53.200000762939</ele>
        <time>2016-05-02T18:40:17.000Z</time>
      </trkpt>
      <trkpt lat="48.87838" lon="2.31583">
        <ele>53.400001525879</ele>
        <time>2016-05-02T18:40:22.000Z</time>
      </trkpt>
      <trkpt lat="48.8785" lon="2.31555">
        <ele>54.400001525879</ele>
        <time>2016-05-02T18:40:29.000Z</time>
      </trkpt>
      <trkpt lat="48.87865" lon="2.3153">
        <ele>54.400001525879</ele>
        <time>2016-05-02T18:40:38.000Z</time>
      </trkpt>
      <trkpt lat="48.87877" lon="2.31507">
        <ele>54.799999237061</ele>
        <time>2016-05-02T18:40:45.000Z</time>
      </trkpt>
      <trkpt lat="48.87876" lon="2.31498">
        <ele>55.200000762939</ele>
        <time>2016-05-02T18:40:48.000Z</time>
      </trkpt>
      <trkpt lat="48.87881" lon="2.31488">
        <ele>55.200000762939</ele>
        <time>2016-05-02T18:40:52.000Z</time>
      </trkpt>
      <trkpt lat="48.87889" lon="2.31479">
        <ele>55.400001525879</ele>
        <time>2016-05-02T18:40:56.000Z</time>
      </trkpt>
      <trkpt lat="48.879" lon="2.31456">
        <ele>55.599998474121</ele>
        <time>2016-05-02T18:41:02.000Z</time>
      </trkpt>
      <trkpt lat="48.87915" lon="2.31441">
        <ele>55.799999237061</ele>
        <time>2016-05-02T18:41:08.000Z</time>
      </trkpt>
      <trkpt lat="48.8794" lon="2.31447">
        <ele>56</ele>
        <time>2016-05-02T18:41:14.000Z</time>
      </trkpt>
      <trkpt lat="48.87959" lon="2.31429">
        <ele>57</ele>
        <time>2016-05-02T18:41:18.000Z</time>
      </trkpt>
      <trkpt lat="48.87973" lon="2.31408">
        <ele>57.400001525879</ele>
        <time>2016-05-02T18:41:23.000Z</time>
      </trkpt>
      <trkpt lat="48.87989" lon="2.31393">
        <ele>57.799999237061</ele>
        <time>2016-05-02T18:41:27.000Z</time>
      </trkpt>
      <trkpt lat="48.88005" lon="2.31372">
        <ele>57.799999237061</ele>
        <time>2016-05-02T18:41:33.000Z</time>
      </trkpt>
      <trkpt lat="48.88021" lon="2.31351">
        <ele>57.599998474121</ele>
        <time>2016-05-02T18:41:38.000Z</time>
      </trkpt>
      <trkpt lat="48.88034" lon="2.31325">
        <ele>57</ele>
        <time>2016-05-02T18:41:44.000Z</time>
      </trkpt>
      <trkpt lat="48.88046" lon="2.31304">
        <ele>56.200000762939</ele>
        <time>2016-05-02T18:41:51.000Z</time>
      </trkpt>
      <trkpt lat="48.88062" lon="2.31287">
        <ele>55.799999237061</ele>
        <time>2016-05-02T18:41:59.000Z</time>
      </trkpt>
      <trkpt lat="48.88071" lon="2.31276">
        <ele>55.599998474121</ele>
        <time>2016-05-02T18:42:15.000Z</time>
      </trkpt>
      <trkpt lat="48.88077" lon="2.31275">
        <ele>56</ele>
        <time>2016-05-02T18:42:23.000Z</time>
      </trkpt>
      <trkpt lat="48.88092" lon="2.31268">
        <ele>56.400001525879</ele>
        <time>2016-05-02T18:42:39.000Z</time>
      </trkpt>
      <trkpt lat="48.88106" lon="2.31249">
        <ele>56</ele>
        <time>2016-05-02T18:42:46.000Z</time>
      </trkpt>
      <trkpt lat="48.88123" lon="2.3123">
        <ele>57.599998474121</ele>
        <time>2016-05-02T18:42:54.000Z</time>
      </trkpt>
      <trkpt lat="48.88133" lon="2.31203">
        <ele>59.200000762939</ele>
        <time>2016-05-02T18:43:01.000Z</time>
      </trkpt>
      <trkpt lat="48.88148" lon="2.3118">
        <ele>59.599998474121</ele>
        <time>2016-05-02T18:43:07.000Z</time>
      </trkpt>
      <trkpt lat="48.88166" lon="2.31162">
        <ele>59.799999237061</ele>
        <time>2016-05-02T18:43:12.000Z</time>
      </trkpt>
      <trkpt lat="48.88179" lon="2.31138">
        <ele>59.599998474121</ele>
        <time>2016-05-02T18:43:19.000Z</time>
      </trkpt>
      <trkpt lat="48.88192" lon="2.31109">
        <ele>59.200000762939</ele>
        <time>2016-05-02T18:43:27.000Z</time>
      </trkpt>
      <trkpt lat="48.88207" lon="2.31091">
        <ele>58.400001525879</ele>
        <time>2016-05-02T18:43:31.000Z</time>
      </trkpt>
      <trkpt lat="48.88225" lon="2.31072">
        <ele>57.200000762939</ele>
        <time>2016-05-02T18:43:35.000Z</time>
      </trkpt>
      <trkpt lat="48.88243" lon="2.31053">
        <ele>56.400001525879</ele>
        <time>2016-05-02T18:43:39.000Z</time>
      </trkpt>
      <trkpt lat="48.8826" lon="2.31032">
        <ele>55.599998474121</ele>
        <time>2016-05-02T18:43:43.000Z</time>
      </trkpt>
      <trkpt lat="48.88275" lon="2.31009">
        <ele>55</ele>
        <time>2016-05-02T18:43:47.000Z</time>
      </trkpt>
      <trkpt lat="48.88279" lon="2.31004">
        <ele>55</ele>
        <time>2016-05-02T18:43:48.000Z</time>
      </trkpt>
      <trkpt lat="48.883" lon="2.30988">
        <ele>55.599998474121</ele>
        <time>2016-05-02T18:43:52.000Z</time>
      </trkpt>
      <trkpt lat="48.88318" lon="2.30974">
        <ele>56</ele>
        <time>2016-05-02T18:43:55.000Z</time>
      </trkpt>
      <trkpt lat="48.88328" lon="2.30965">
        <ele>56.400001525879</ele>
        <time>2016-05-02T18:43:57.000Z</time>
      </trkpt>
      <trkpt lat="48.88345" lon="2.30938">
        <ele>56.799999237061</ele>
        <time>2016-05-02T18:44:01.000Z</time>
      </trkpt>
      <trkpt lat="48.88358" lon="2.30921">
        <ele>56.799999237061</ele>
        <time>2016-05-02T18:44:04.000Z</time>
      </trkpt>
      <trkpt lat="48.88376" lon="2.30902">
        <ele>56.799999237061</ele>
        <time>2016-05-02T18:44:08.000Z</time>
      </trkpt>
      <trkpt lat="48.88391" lon="2.30882">
        <ele>56.599998474121</ele>
        <time>2016-05-02T18:44:12.000Z</time>
      </trkpt>
      <trkpt lat="48.88406" lon="2.30868">
        <ele>56.200000762939</ele>
        <time>2016-05-02T18:44:16.000Z</time>
      </trkpt>
      <trkpt lat="48.88421" lon="2.30843">
        <ele>55.599998474121</ele>
        <time>2016-05-02T18:44:21.000Z</time>
      </trkpt>
      <trkpt lat="48.88436" lon="2.30824">
        <ele>54.799999237061</ele>
        <time>2016-05-02T18:44:25.000Z</time>
      </trkpt>
      <trkpt lat="48.88455" lon="2.30806">
        <ele>54.400001525879</ele>
        <time>2016-05-02T18:44:29.000Z</time>
      </trkpt>
      <trkpt lat="48.88475" lon="2.3079">
        <ele>54.400001525879</ele>
        <time>2016-05-02T18:44:33.000Z</time>
      </trkpt>
      <trkpt lat="48.8849" lon="2.30779">
        <ele>54.400001525879</ele>
        <time>2016-05-02T18:44:36.000Z</time>
      </trkpt>
      <trkpt lat="48.88505" lon="2.30761">
        <ele>54</ele>
        <time>2016-05-02T18:44:40.000Z</time>
      </trkpt>
      <trkpt lat="48.8852" lon="2.30743">
        <ele>54</ele>
        <time>2016-05-02T18:44:44.000Z</time>
      </trkpt>
      <trkpt lat="48.88535" lon="2.30723">
        <ele>53.799999237061</ele>
        <time>2016-05-02T18:44:47.000Z</time>
      </trkpt>
      <trkpt lat="48.88549" lon="2.30705">
        <ele>53.400001525879</ele>
        <time>2016-05-02T18:44:50.000Z</time>
      </trkpt>
      <trkpt lat="48.88567" lon="2.30684">
        <ele>53.200000762939</ele>
        <time>2016-05-02T18:44:54.000Z</time>
      </trkpt>
      <trkpt lat="48.88585" lon="2.3067">
        <ele>53.200000762939</ele>
        <time>2016-05-02T18:44:57.000Z</time>
      </trkpt>
      <trkpt lat="48.88601" lon="2.30657">
        <ele>53.200000762939</ele>
        <time>2016-05-02T18:45:00.000Z</time>
      </trkpt>
      <trkpt lat="48.88618" lon="2.30633">
        <ele>54</ele>
        <time>2016-05-02T18:45:04.000Z</time>
      </trkpt>
      <trkpt lat="48.88632" lon="2.30614">
        <ele>54.799999237061</ele>
        <time>2016-05-02T18:45:07.000Z</time>
      </trkpt>
      <trkpt lat="48.88647" lon="2.30598">
        <ele>55</ele>
        <time>2016-05-02T18:45:10.000Z</time>
      </trkpt>
      <trkpt lat="48.88663" lon="2.30582">
        <ele>55.200000762939</ele>
        <time>2016-05-02T18:45:13.000Z</time>
      </trkpt>
      <trkpt lat="48.88679" lon="2.30565">
        <ele>55</ele>
        <time>2016-05-02T18:45:16.000Z</time>
      </trkpt>
      <trkpt lat="48.88697" lon="2.30544">
        <ele>53.200000762939</ele>
        <time>2016-05-02T18:45:20.000Z</time>
      </trkpt>
      <trkpt lat="48.88709" lon="2.30518">
        <ele>51.200000762939</ele>
        <time>2016-05-02T18:45:25.000Z</time>
      </trkpt>
      <trkpt lat="48.88714" lon="2.30513">
        <ele>50.799999237061</ele>
        <time>2016-05-02T18:45:27.000Z</time>
      </trkpt>
      <trkpt lat="48.88722" lon="2.30514">
        <ele>50.200000762939</ele>
        <time>2016-05-02T18:45:31.000Z</time>
      </trkpt>
      <trkpt lat="48.88723" lon="2.30514">
        <ele>50.200000762939</ele>
        <time>2016-05-02T18:45:32.000Z</time>
      </trkpt>
      <trkpt lat="48.88737" lon="2.30512">
        <ele>49.400001525879</ele>
        <time>2016-05-02T18:45:43.000Z</time>
      </trkpt>
      <trkpt lat="48.88756" lon="2.30508">
        <ele>48.200000762939</ele>
        <time>2016-05-02T18:45:49.000Z</time>
      </trkpt>
      <trkpt lat="48.88771" lon="2.30494">
        <ele>47.200000762939</ele>
        <time>2016-05-02T18:46:04.000Z</time>
      </trkpt>
      <trkpt lat="48.88776" lon="2.30467">
        <ele>47.400001525879</ele>
        <time>2016-05-02T18:46:11.000Z</time>
      </trkpt>
      <trkpt lat="48.88777" lon="2.30466">
        <ele>47.599998474121</ele>
        <time>2016-05-02T18:46:12.000Z</time>
      </trkpt>
      <trkpt lat="48.88797" lon="2.30452">
        <ele>48.599998474121</ele>
        <time>2016-05-02T18:46:23.000Z</time>
      </trkpt>
      <trkpt lat="48.88815" lon="2.30437">
        <ele>48.400001525879</ele>
        <time>2016-05-02T18:46:29.000Z</time>
      </trkpt>
      <trkpt lat="48.88836" lon="2.3043">
        <ele>47.400001525879</ele>
        <time>2016-05-02T18:46:35.000Z</time>
      </trkpt>
      <trkpt lat="48.88855" lon="2.30422">
        <ele>46.599998474121</ele>
        <time>2016-05-02T18:46:40.000Z</time>
      </trkpt>
      <trkpt lat="48.88874" lon="2.3042">
        <ele>46.599998474121</ele>
        <time>2016-05-02T18:46:46.000Z</time>
      </trkpt>
      <trkpt lat="48.88892" lon="2.30414">
        <ele>47.200000762939</ele>
        <time>2016-05-02T18:46:51.000Z</time>
      </trkpt>
      <trkpt lat="48.88912" lon="2.3041">
        <ele>48.200000762939</ele>
        <time>2016-05-02T18:46:57.000Z</time>
      </trkpt>
      <trkpt lat="48.8893" lon="2.30405">
        <ele>49</ele>
        <time>2016-05-02T18:47:03.000Z</time>
      </trkpt>
      <trkpt lat="48.8895" lon="2.30404">
        <ele>47.400001525879</ele>
        <time>2016-05-02T18:47:10.000Z</time>
      </trkpt>
      <trkpt lat="48.88957" lon="2.30401">
        <ele>46.400001525879</ele>
        <time>2016-05-02T18:47:16.000Z</time>
      </trkpt>
      <trkpt lat="48.88977" lon="2.30394">
        <ele>43.799999237061</ele>
        <time>2016-05-02T18:47:23.000Z</time>
      </trkpt>
      <trkpt lat="48.88983" lon="2.30388">
        <ele>43</ele>
        <time>2016-05-02T18:47:25.000Z</time>
      </trkpt>
      <trkpt lat="48.89" lon="2.30377">
        <ele>40.799999237061</ele>
        <time>2016-05-02T18:47:30.000Z</time>
      </trkpt>
      <trkpt lat="48.89018" lon="2.30365">
        <ele>38.799999237061</ele>
        <time>2016-05-02T18:47:37.000Z</time>
      </trkpt>
      <trkpt lat="48.89036" lon="2.3035">
        <ele>38</ele>
        <time>2016-05-02T18:47:42.000Z</time>
      </trkpt>
      <trkpt lat="48.89053" lon="2.30335">
        <ele>38.599998474121</ele>
        <time>2016-05-02T18:47:46.000Z</time>
      </trkpt>
      <trkpt lat="48.89072" lon="2.30317">
        <ele>39.200000762939</ele>
        <time>2016-05-02T18:47:50.000Z</time>
      </trkpt>
      <trkpt lat="48.89087" lon="2.30298">
        <ele>39.400001525879</ele>
        <time>2016-05-02T18:47:54.000Z</time>
      </trkpt>
      <trkpt lat="48.89101" lon="2.30275">
        <ele>39.200000762939</ele>
        <time>2016-05-02T18:47:58.000Z</time>
      </trkpt>
      <trkpt lat="48.89118" lon="2.30252">
        <ele>38.799999237061</ele>
        <time>2016-05-02T18:48:02.000Z</time>
      </trkpt>
      <trkpt lat="48.89135" lon="2.30233">
        <ele>37.799999237061</ele>
        <time>2016-05-02T18:48:06.000Z</time>
      </trkpt>
      <trkpt lat="48.89151" lon="2.30213">
        <ele>36.799999237061</ele>
        <time>2016-05-02T18:48:10.000Z</time>
      </trkpt>
      <trkpt lat="48.89154" lon="2.30207">
        <ele>36.400001525879</ele>
        <time>2016-05-02T18:48:11.000Z</time>
      </trkpt>
      <trkpt lat="48.89168" lon="2.30189">
        <ele>35.799999237061</ele>
        <time>2016-05-02T18:48:15.000Z</time>
      </trkpt>
      <trkpt lat="48.89181" lon="2.30172">
        <ele>35.400001525879</ele>
        <time>2016-05-02T18:48:19.000Z</time>
      </trkpt>
      <trkpt lat="48.89197" lon="2.30158">
        <ele>35</ele>
        <time>2016-05-02T18:48:25.000Z</time>
      </trkpt>
      <trkpt lat="48.89214" lon="2.30139">
        <ele>35</ele>
        <time>2016-05-02T18:48:31.000Z</time>
      </trkpt>
      <trkpt lat="48.89227" lon="2.30123">
        <ele>35</ele>
        <time>2016-05-02T18:48:35.000Z</time>
      </trkpt>
      <trkpt lat="48.89244" lon="2.30101">
        <ele>37.200000762939</ele>
        <time>2016-05-02T18:48:40.000Z</time>
      </trkpt>
      <trkpt lat="48.89258" lon="2.30077">
        <ele>39.799999237061</ele>
        <time>2016-05-02T18:48:44.000Z</time>
      </trkpt>
      <trkpt lat="48.89271" lon="2.30056">
        <ele>41</ele>
        <time>2016-05-02T18:48:47.000Z</time>
      </trkpt>
      <trkpt lat="48.89286" lon="2.30038">
        <ele>40.599998474121</ele>
        <time>2016-05-02T18:48:50.000Z</time>
      </trkpt>
      <trkpt lat="48.89302" lon="2.30021">
        <ele>40.400001525879</ele>
        <time>2016-05-02T18:48:53.000Z</time>
      </trkpt>
      <trkpt lat="48.89317" lon="2.30005">
        <ele>40.799999237061</ele>
        <time>2016-05-02T18:48:56.000Z</time>
      </trkpt>
      <trkpt lat="48.89335" lon="2.29987">
        <ele>40.799999237061</ele>
        <time>2016-05-02T18:49:00.000Z</time>
      </trkpt>
      <trkpt lat="48.89344" lon="2.29981">
        <ele>40.599998474121</ele>
        <time>2016-05-02T18:49:02.000Z</time>
      </trkpt>
      <trkpt lat="48.89354" lon="2.29969">
        <ele>40.400001525879</ele>
        <time>2016-05-02T18:49:07.000Z</time>
      </trkpt>
      <trkpt lat="48.89356" lon="2.29967">
        <ele>40.200000762939</ele>
        <time>2016-05-02T18:49:08.000Z</time>
      </trkpt>
      <trkpt lat="48.89365" lon="2.29966">
        <ele>39.799999237061</ele>
        <time>2016-05-02T18:49:13.000Z</time>
      </trkpt>
      <trkpt lat="48.89365" lon="2.29966">
        <ele>39.799999237061</ele>
        <time>2016-05-02T18:49:14.000Z</time>
      </trkpt>
      <trkpt lat="48.89369" lon="2.29953">
        <ele>39.400001525879</ele>
        <time>2016-05-02T18:49:19.000Z</time>
      </trkpt>
      <trkpt lat="48.89368" lon="2.29948">
        <ele>39.200000762939</ele>
        <time>2016-05-02T18:49:20.000Z</time>
      </trkpt>
      <trkpt lat="48.89377" lon="2.29926">
        <ele>38.599998474121</ele>
        <time>2016-05-02T18:49:24.000Z</time>
      </trkpt>
      <trkpt lat="48.89395" lon="2.29911">
        <ele>38.599998474121</ele>
        <time>2016-05-02T18:49:28.000Z</time>
      </trkpt>
      <trkpt lat="48.89413" lon="2.29891">
        <ele>38.599998474121</ele>
        <time>2016-05-02T18:49:32.000Z</time>
      </trkpt>
      <trkpt lat="48.8943" lon="2.2987">
        <ele>38.599998474121</ele>
        <time>2016-05-02T18:49:37.000Z</time>
      </trkpt>
      <trkpt lat="48.8944" lon="2.29857">
        <ele>38.599998474121</ele>
        <time>2016-05-02T18:49:40.000Z</time>
      </trkpt>
      <trkpt lat="48.89454" lon="2.29846">
        <ele>38.200000762939</ele>
        <time>2016-05-02T18:49:43.000Z</time>
      </trkpt>
      <trkpt lat="48.89473" lon="2.29829">
        <ele>39</ele>
        <time>2016-05-02T18:49:47.000Z</time>
      </trkpt>
      <trkpt lat="48.89491" lon="2.29809">
        <ele>39</ele>
        <time>2016-05-02T18:49:51.000Z</time>
      </trkpt>
      <trkpt lat="48.89505" lon="2.29796">
        <ele>39</ele>
        <time>2016-05-02T18:49:54.000Z</time>
      </trkpt>
      <trkpt lat="48.89524" lon="2.29778">
        <ele>39</ele>
        <time>2016-05-02T18:49:58.000Z</time>
      </trkpt>
      <trkpt lat="48.89542" lon="2.29759">
        <ele>38.400001525879</ele>
        <time>2016-05-02T18:50:02.000Z</time>
      </trkpt>
      <trkpt lat="48.89557" lon="2.29742">
        <ele>37.599998474121</ele>
        <time>2016-05-02T18:50:05.000Z</time>
      </trkpt>
      <trkpt lat="48.89574" lon="2.29719">
        <ele>36.200000762939</ele>
        <time>2016-05-02T18:50:09.000Z</time>
      </trkpt>
      <trkpt lat="48.89575" lon="2.29711">
        <ele>36</ele>
        <time>2016-05-02T18:50:10.000Z</time>
      </trkpt>
      <trkpt lat="48.8959" lon="2.29691">
        <ele>36.400001525879</ele>
        <time>2016-05-02T18:50:14.000Z</time>
      </trkpt>
      <trkpt lat="48.89609" lon="2.29677">
        <ele>37</ele>
        <time>2016-05-02T18:50:18.000Z</time>
      </trkpt>
      <trkpt lat="48.8963" lon="2.29662">
        <ele>37.599998474121</ele>
        <time>2016-05-02T18:50:23.000Z</time>
      </trkpt>
      <trkpt lat="48.89646" lon="2.29644">
        <ele>38.200000762939</ele>
        <time>2016-05-02T18:50:27.000Z</time>
      </trkpt>
      <trkpt lat="48.89663" lon="2.29622">
        <ele>38.599998474121</ele>
        <time>2016-05-02T18:50:31.000Z</time>
      </trkpt>
      <trkpt lat="48.89682" lon="2.29606">
        <ele>38.400001525879</ele>
        <time>2016-05-02T18:50:34.000Z</time>
      </trkpt>
      <trkpt lat="48.89705" lon="2.29585">
        <ele>37.200000762939</ele>
        <time>2016-05-02T18:50:38.000Z</time>
      </trkpt>
      <trkpt lat="48.89716" lon="2.29574">
        <ele>36.200000762939</ele>
        <time>2016-05-02T18:50:40.000Z</time>
      </trkpt>
      <trkpt lat="48.89732" lon="2.2955">
        <ele>34.799999237061</ele>
        <time>2016-05-02T18:50:44.000Z</time>
      </trkpt>
      <trkpt lat="48.89746" lon="2.29524">
        <ele>34.400001525879</ele>
        <time>2016-05-02T18:50:49.000Z</time>
      </trkpt>
      <trkpt lat="48.89752" lon="2.29522">
        <ele>34.200000762939</ele>
        <time>2016-05-02T18:50:50.000Z</time>
      </trkpt>
      <trkpt lat="48.89772" lon="2.29506">
        <ele>34</ele>
        <time>2016-05-02T18:50:54.000Z</time>
      </trkpt>
      <trkpt lat="48.89791" lon="2.29489">
        <ele>34.599998474121</ele>
        <time>2016-05-02T18:50:58.000Z</time>
      </trkpt>
      <trkpt lat="48.89805" lon="2.29469">
        <ele>35.599998474121</ele>
        <time>2016-05-02T18:51:02.000Z</time>
      </trkpt>
      <trkpt lat="48.8982" lon="2.29452">
        <ele>36.400001525879</ele>
        <time>2016-05-02T18:51:06.000Z</time>
      </trkpt>
      <trkpt lat="48.8984" lon="2.29437">
        <ele>36.200000762939</ele>
        <time>2016-05-02T18:51:10.000Z</time>
      </trkpt>
      <trkpt lat="48.89858" lon="2.29425">
        <ele>35.799999237061</ele>
        <time>2016-05-02T18:51:14.000Z</time>
      </trkpt>
      <trkpt lat="48.89877" lon="2.29413">
        <ele>36</ele>
        <time>2016-05-02T18:51:17.000Z</time>
      </trkpt>
      <trkpt lat="48.89895" lon="2.29393">
        <ele>36</ele>
        <time>2016-05-02T18:51:20.000Z</time>
      </trkpt>
      <trkpt lat="48.89912" lon="2.29383">
        <ele>36</ele>
        <time>2016-05-02T18:51:23.000Z</time>
      </trkpt>
      <trkpt lat="48.89932" lon="2.29366">
        <ele>35</ele>
        <time>2016-05-02T18:51:27.000Z</time>
      </trkpt>
      <trkpt lat="48.89942" lon="2.29349">
        <ele>34.400001525879</ele>
        <time>2016-05-02T18:51:30.000Z</time>
      </trkpt>
      <trkpt lat="48.89952" lon="2.29309">
        <ele>34.200000762939</ele>
        <time>2016-05-02T18:51:35.000Z</time>
      </trkpt>
      <trkpt lat="48.89969" lon="2.29297">
        <ele>34.400001525879</ele>
        <time>2016-05-02T18:51:38.000Z</time>
      </trkpt>
      <trkpt lat="48.89988" lon="2.29277">
        <ele>34.400001525879</ele>
        <time>2016-05-02T18:51:42.000Z</time>
      </trkpt>
      <trkpt lat="48.9" lon="2.29269">
        <ele>34.200000762939</ele>
        <time>2016-05-02T18:51:44.000Z</time>
      </trkpt>
      <trkpt lat="48.90018" lon="2.29252">
        <ele>34</ele>
        <time>2016-05-02T18:51:48.000Z</time>
      </trkpt>
      <trkpt lat="48.90034" lon="2.2924">
        <ele>33.799999237061</ele>
        <time>2016-05-02T18:51:52.000Z</time>
      </trkpt>
      <trkpt lat="48.90052" lon="2.29226">
        <ele>33.599998474121</ele>
        <time>2016-05-02T18:51:56.000Z</time>
      </trkpt>
      <trkpt lat="48.90079" lon="2.29245">
        <ele>33.400001525879</ele>
        <time>2016-05-02T18:52:00.000Z</time>
      </trkpt>
      <trkpt lat="48.90098" lon="2.29233">
        <ele>33</ele>
        <time>2016-05-02T18:52:04.000Z</time>
      </trkpt>
      <trkpt lat="48.90117" lon="2.29213">
        <ele>32.599998474121</ele>
        <time>2016-05-02T18:52:08.000Z</time>
      </trkpt>
      <trkpt lat="48.90129" lon="2.29187">
        <ele>32.200000762939</ele>
        <time>2016-05-02T18:52:12.000Z</time>
      </trkpt>
      <trkpt lat="48.90142" lon="2.29165">
        <ele>32.400001525879</ele>
        <time>2016-05-02T18:52:16.000Z</time>
      </trkpt>
      <trkpt lat="48.90158" lon="2.29143">
        <ele>32.599998474121</ele>
        <time>2016-05-02T18:52:20.000Z</time>
      </trkpt>
      <trkpt lat="48.90177" lon="2.29126">
        <ele>33.200000762939</ele>
        <time>2016-05-02T18:52:24.000Z</time>
      </trkpt>
      <trkpt lat="48.90194" lon="2.2911">
        <ele>34</ele>
        <time>2016-05-02T18:52:28.000Z</time>
      </trkpt>
      <trkpt lat="48.90211" lon="2.29095">
        <ele>35</ele>
        <time>2016-05-02T18:52:32.000Z</time>
      </trkpt>
      <trkpt lat="48.90227" lon="2.29078">
        <ele>34.799999237061</ele>
        <time>2016-05-02T18:52:36.000Z</time>
      </trkpt>
      <trkpt lat="48.90244" lon="2.29064">
        <ele>35.400001525879</ele>
        <time>2016-05-02T18:52:40.000Z</time>
      </trkpt>
      <trkpt lat="48.90263" lon="2.29046">
        <ele>35.400001525879</ele>
        <time>2016-05-02T18:52:44.000Z</time>
      </trkpt>
      <trkpt lat="48.90282" lon="2.29026">
        <ele>35.200000762939</ele>
        <time>2016-05-02T18:52:48.000Z</time>
      </trkpt>
      <trkpt lat="48.90297" lon="2.29013">
        <ele>34.599998474121</ele>
        <time>2016-05-02T18:52:51.000Z</time>
      </trkpt>
      <trkpt lat="48.90315" lon="2.28998">
        <ele>33</ele>
        <time>2016-05-02T18:52:55.000Z</time>
      </trkpt>
      <trkpt lat="48.90332" lon="2.28982">
        <ele>32.599998474121</ele>
        <time>2016-05-02T18:53:00.000Z</time>
      </trkpt>
      <trkpt lat="48.90347" lon="2.28976">
        <ele>31.799999237061</ele>
        <time>2016-05-02T18:53:05.000Z</time>
      </trkpt>
      <trkpt lat="48.9035" lon="2.28975">
        <ele>31.60000038147</ele>
        <time>2016-05-02T18:53:07.000Z</time>
      </trkpt>
      <trkpt lat="48.90357" lon="2.28953">
        <ele>31</ele>
        <time>2016-05-02T18:53:27.000Z</time>
      </trkpt>
      <trkpt lat="48.90374" lon="2.28934">
        <ele>30.39999961853</ele>
        <time>2016-05-02T18:53:32.000Z</time>
      </trkpt>
      <trkpt lat="48.9039" lon="2.28916">
        <ele>32.400001525879</ele>
        <time>2016-05-02T18:53:37.000Z</time>
      </trkpt>
      <trkpt lat="48.90405" lon="2.28899">
        <ele>32.799999237061</ele>
        <time>2016-05-02T18:53:42.000Z</time>
      </trkpt>
      <trkpt lat="48.90422" lon="2.28879">
        <ele>33</ele>
        <time>2016-05-02T18:53:48.000Z</time>
      </trkpt>
      <trkpt lat="48.90439" lon="2.28861">
        <ele>33</ele>
        <time>2016-05-02T18:53:54.000Z</time>
      </trkpt>
      <trkpt lat="48.90454" lon="2.28844">
        <ele>32.599998474121</ele>
        <time>2016-05-02T18:53:59.000Z</time>
      </trkpt>
      <trkpt lat="48.9047" lon="2.28827">
        <ele>30.39999961853</ele>
        <time>2016-05-02T18:54:04.000Z</time>
      </trkpt>
      <trkpt lat="48.90486" lon="2.28814">
        <ele>29.200000762939</ele>
        <time>2016-05-02T18:54:09.000Z</time>
      </trkpt>
      <trkpt lat="48.90501" lon="2.28798">
        <ele>28.60000038147</ele>
        <time>2016-05-02T18:54:14.000Z</time>
      </trkpt>
      <trkpt lat="48.90517" lon="2.28785">
        <ele>29.39999961853</ele>
        <time>2016-05-02T18:54:18.000Z</time>
      </trkpt>
      <trkpt lat="48.9053" lon="2.28763">
        <ele>30.799999237061</ele>
        <time>2016-05-02T18:54:22.000Z</time>
      </trkpt>
      <trkpt lat="48.90546" lon="2.28741">
        <ele>31.799999237061</ele>
        <time>2016-05-02T18:54:26.000Z</time>
      </trkpt>
      <trkpt lat="48.90561" lon="2.28727">
        <ele>32.599998474121</ele>
        <time>2016-05-02T18:54:29.000Z</time>
      </trkpt>
      <trkpt lat="48.90577" lon="2.28713">
        <ele>33.400001525879</ele>
        <time>2016-05-02T18:54:32.000Z</time>
      </trkpt>
      <trkpt lat="48.90594" lon="2.28698">
        <ele>34.200000762939</ele>
        <time>2016-05-02T18:54:35.000Z</time>
      </trkpt>
      <trkpt lat="48.90611" lon="2.28683">
        <ele>34.799999237061</ele>
        <time>2016-05-02T18:54:38.000Z</time>
      </trkpt>
      <trkpt lat="48.90619" lon="2.28665">
        <ele>35</ele>
        <time>2016-05-02T18:54:41.000Z</time>
      </trkpt>
      <trkpt lat="48.90633" lon="2.28641">
        <ele>35.799999237061</ele>
        <time>2016-05-02T18:54:45.000Z</time>
      </trkpt>
      <trkpt lat="48.9065" lon="2.28618">
        <ele>36.400001525879</ele>
        <time>2016-05-02T18:54:49.000Z</time>
      </trkpt>
      <trkpt lat="48.90669" lon="2.28599">
        <ele>36.200000762939</ele>
        <time>2016-05-02T18:54:53.000Z</time>
      </trkpt>
      <trkpt lat="48.90684" lon="2.28581">
        <ele>36</ele>
        <time>2016-05-02T18:54:57.000Z</time>
      </trkpt>
      <trkpt lat="48.90689" lon="2.28577">
        <ele>36</ele>
        <time>2016-05-02T18:54:59.000Z</time>
      </trkpt>
      <trkpt lat="48.90703" lon="2.2858">
        <ele>35.599998474121</ele>
        <time>2016-05-02T18:55:05.000Z</time>
      </trkpt>
      <trkpt lat="48.90709" lon="2.28587">
        <ele>35.799999237061</ele>
        <time>2016-05-02T18:55:07.000Z</time>
      </trkpt>
      <trkpt lat="48.90713" lon="2.28591">
        <ele>35.799999237061</ele>
        <time>2016-05-02T18:55:09.000Z</time>
      </trkpt>
      <trkpt lat="48.90722" lon="2.28603">
        <ele>35.799999237061</ele>
        <time>2016-05-02T18:55:13.000Z</time>
      </trkpt>
      <trkpt lat="48.90731" lon="2.28612">
        <ele>35.799999237061</ele>
        <time>2016-05-02T18:55:16.000Z</time>
      </trkpt>
      <trkpt lat="48.90745" lon="2.28631">
        <ele>36</ele>
        <time>2016-05-02T18:55:21.000Z</time>
      </trkpt>
      <trkpt lat="48.90759" lon="2.28655">
        <ele>36</ele>
        <time>2016-05-02T18:55:26.000Z</time>
      </trkpt>
      <trkpt lat="48.90774" lon="2.28678">
        <ele>35.799999237061</ele>
        <time>2016-05-02T18:55:30.000Z</time>
      </trkpt>
      <trkpt lat="48.90787" lon="2.28703">
        <ele>35.599998474121</ele>
        <time>2016-05-02T18:55:35.000Z</time>
      </trkpt>
      <trkpt lat="48.90801" lon="2.28724">
        <ele>35.200000762939</ele>
        <time>2016-05-02T18:55:40.000Z</time>
      </trkpt>
      <trkpt lat="48.90819" lon="2.28731">
        <ele>35.200000762939</ele>
        <time>2016-05-02T18:55:45.000Z</time>
      </trkpt>
      <trkpt lat="48.90826" lon="2.28731">
        <ele>35.200000762939</ele>
        <time>2016-05-02T18:55:47.000Z</time>
      </trkpt>
      <trkpt lat="48.90846" lon="2.28725">
        <ele>35</ele>
        <time>2016-05-02T18:55:52.000Z</time>
      </trkpt>
      <trkpt lat="48.90863" lon="2.28716">
        <ele>34.799999237061</ele>
        <time>2016-05-02T18:55:56.000Z</time>
      </trkpt>
      <trkpt lat="48.90885" lon="2.28696">
        <ele>35</ele>
        <time>2016-05-02T18:56:01.000Z</time>
      </trkpt>
      <trkpt lat="48.90911" lon="2.28683">
        <ele>35.599998474121</ele>
        <time>2016-05-02T18:56:04.000Z</time>
      </trkpt>
      <trkpt lat="48.90929" lon="2.28674">
        <ele>35.799999237061</ele>
        <time>2016-05-02T18:56:08.000Z</time>
      </trkpt>
      <trkpt lat="48.90947" lon="2.28663">
        <ele>36.200000762939</ele>
        <time>2016-05-02T18:56:13.000Z</time>
      </trkpt>
      <trkpt lat="48.90951" lon="2.28659">
        <ele>36.400001525879</ele>
        <time>2016-05-02T18:56:15.000Z</time>
      </trkpt>
      <trkpt lat="48.90965" lon="2.28645">
        <ele>36.799999237061</ele>
        <time>2016-05-02T18:56:23.000Z</time>
      </trkpt>
      <trkpt lat="48.90971" lon="2.28642">
        <ele>37</ele>
        <time>2016-05-02T18:56:27.000Z</time>
      </trkpt>
      <trkpt lat="48.90988" lon="2.28631">
        <ele>37.599998474121</ele>
        <time>2016-05-02T18:56:32.000Z</time>
      </trkpt>
      <trkpt lat="48.91005" lon="2.28614">
        <ele>37.400001525879</ele>
        <time>2016-05-02T18:56:37.000Z</time>
      </trkpt>
      <trkpt lat="48.91022" lon="2.28603">
        <ele>37.200000762939</ele>
        <time>2016-05-02T18:56:41.000Z</time>
      </trkpt>
      <trkpt lat="48.91042" lon="2.2859">
        <ele>36.799999237061</ele>
        <time>2016-05-02T18:56:45.000Z</time>
      </trkpt>
      <trkpt lat="48.91062" lon="2.28579">
        <ele>37</ele>
        <time>2016-05-02T18:56:49.000Z</time>
      </trkpt>
      <trkpt lat="48.91083" lon="2.28567">
        <ele>36.799999237061</ele>
        <time>2016-05-02T18:56:53.000Z</time>
      </trkpt>
      <trkpt lat="48.91105" lon="2.28553">
        <ele>36.599998474121</ele>
        <time>2016-05-02T18:56:57.000Z</time>
      </trkpt>
      <trkpt lat="48.91124" lon="2.28537">
        <ele>35.799999237061</ele>
        <time>2016-05-02T18:57:01.000Z</time>
      </trkpt>
      <trkpt lat="48.91146" lon="2.28522">
        <ele>35</ele>
        <time>2016-05-02T18:57:05.000Z</time>
      </trkpt>
      <trkpt lat="48.91167" lon="2.28512">
        <ele>34.599998474121</ele>
        <time>2016-05-02T18:57:09.000Z</time>
      </trkpt>
      <trkpt lat="48.91189" lon="2.28502">
        <ele>34</ele>
        <time>2016-05-02T18:57:13.000Z</time>
      </trkpt>
      <trkpt lat="48.91205" lon="2.28489">
        <ele>33.799999237061</ele>
        <time>2016-05-02T18:57:16.000Z</time>
      </trkpt>
      <trkpt lat="48.91221" lon="2.28475">
        <ele>33.400001525879</ele>
        <time>2016-05-02T18:57:19.000Z</time>
      </trkpt>
      <trkpt lat="48.91232" lon="2.28469">
        <ele>33.200000762939</ele>
        <time>2016-05-02T18:57:21.000Z</time>
      </trkpt>
      <trkpt lat="48.91244" lon="2.28464">
        <ele>33</ele>
        <time>2016-05-02T18:57:23.000Z</time>
      </trkpt>
      <trkpt lat="48.91264" lon="2.28452">
        <ele>33.400001525879</ele>
        <time>2016-05-02T18:57:27.000Z</time>
      </trkpt>
      <trkpt lat="48.9127" lon="2.28449">
        <ele>33.599998474121</ele>
        <time>2016-05-02T18:57:28.000Z</time>
      </trkpt>
      <trkpt lat="48.91289" lon="2.28438">
        <ele>33.799999237061</ele>
        <time>2016-05-02T18:57:32.000Z</time>
      </trkpt>
      <trkpt lat="48.91296" lon="2.28426">
        <ele>34.200000762939</ele>
        <time>2016-05-02T18:57:34.000Z</time>
      </trkpt>
      <trkpt lat="48.91317" lon="2.28413">
        <ele>34.599998474121</ele>
        <time>2016-05-02T18:57:38.000Z</time>
      </trkpt>
      <trkpt lat="48.91336" lon="2.284">
        <ele>34.599998474121</ele>
        <time>2016-05-02T18:57:42.000Z</time>
      </trkpt>
      <trkpt lat="48.91356" lon="2.28388">
        <ele>34.599998474121</ele>
        <time>2016-05-02T18:57:46.000Z</time>
      </trkpt>
      <trkpt lat="48.91377" lon="2.28373">
        <ele>34.200000762939</ele>
        <time>2016-05-02T18:57:50.000Z</time>
      </trkpt>
      <trkpt lat="48.91394" lon="2.28365">
        <ele>34</ele>
        <time>2016-05-02T18:57:53.000Z</time>
      </trkpt>
      <trkpt lat="48.91417" lon="2.28356">
        <ele>34</ele>
        <time>2016-05-02T18:57:57.000Z</time>
      </trkpt>
      <trkpt lat="48.91438" lon="2.28348">
        <ele>34</ele>
        <time>2016-05-02T18:58:01.000Z</time>
      </trkpt>
      <trkpt lat="48.91459" lon="2.28339">
        <ele>33.599998474121</ele>
        <time>2016-05-02T18:58:05.000Z</time>
      </trkpt>
      <trkpt lat="48.91479" lon="2.2833">
        <ele>33.599998474121</ele>
        <time>2016-05-02T18:58:09.000Z</time>
      </trkpt>
      <trkpt lat="48.915" lon="2.28314">
        <ele>33</ele>
        <time>2016-05-02T18:58:14.000Z</time>
      </trkpt>
      <trkpt lat="48.91514" lon="2.28307">
        <ele>33</ele>
        <time>2016-05-02T18:58:17.000Z</time>
      </trkpt>
      <trkpt lat="48.91533" lon="2.28298">
        <ele>33.200000762939</ele>
        <time>2016-05-02T18:58:21.000Z</time>
      </trkpt>
      <trkpt lat="48.91553" lon="2.28293">
        <ele>33</ele>
        <time>2016-05-02T18:58:25.000Z</time>
      </trkpt>
      <trkpt lat="48.91576" lon="2.28292">
        <ele>33</ele>
        <time>2016-05-02T18:58:29.000Z</time>
      </trkpt>
      <trkpt lat="48.91596" lon="2.28287">
        <ele>33</ele>
        <time>2016-05-02T18:58:33.000Z</time>
      </trkpt>
      <trkpt lat="48.91615" lon="2.28276">
        <ele>33.599998474121</ele>
        <time>2016-05-02T18:58:37.000Z</time>
      </trkpt>
      <trkpt lat="48.91632" lon="2.28257">
        <ele>34.200000762939</ele>
        <time>2016-05-02T18:58:41.000Z</time>
      </trkpt>
      <trkpt lat="48.91653" lon="2.28244">
        <ele>34</ele>
        <time>2016-05-02T18:58:45.000Z</time>
      </trkpt>
      <trkpt lat="48.91675" lon="2.28236">
        <ele>33.599998474121</ele>
        <time>2016-05-02T18:58:49.000Z</time>
      </trkpt>
      <trkpt lat="48.91695" lon="2.28226">
        <ele>33.599998474121</ele>
        <time>2016-05-02T18:58:53.000Z</time>
      </trkpt>
      <trkpt lat="48.91715" lon="2.28215">
        <ele>33</ele>
        <time>2016-05-02T18:58:58.000Z</time>
      </trkpt>
      <trkpt lat="48.91733" lon="2.28205">
        <ele>32.599998474121</ele>
        <time>2016-05-02T18:59:03.000Z</time>
      </trkpt>
      <trkpt lat="48.91751" lon="2.28189">
        <ele>32.599998474121</ele>
        <time>2016-05-02T18:59:07.000Z</time>
      </trkpt>
      <trkpt lat="48.91769" lon="2.28168">
        <ele>33</ele>
        <time>2016-05-02T18:59:12.000Z</time>
      </trkpt>
      <trkpt lat="48.9179" lon="2.28159">
        <ele>33.200000762939</ele>
        <time>2016-05-02T18:59:16.000Z</time>
      </trkpt>
      <trkpt lat="48.91808" lon="2.28147">
        <ele>33.200000762939</ele>
        <time>2016-05-02T18:59:20.000Z</time>
      </trkpt>
      <trkpt lat="48.9183" lon="2.28139">
        <ele>33.400001525879</ele>
        <time>2016-05-02T18:59:24.000Z</time>
      </trkpt>
      <trkpt lat="48.91851" lon="2.28129">
        <ele>33.599998474121</ele>
        <time>2016-05-02T18:59:28.000Z</time>
      </trkpt>
      <trkpt lat="48.9187" lon="2.28121">
        <ele>33.400001525879</ele>
        <time>2016-05-02T18:59:32.000Z</time>
      </trkpt>
      <trkpt lat="48.91888" lon="2.2811">
        <ele>33.400001525879</ele>
        <time>2016-05-02T18:59:37.000Z</time>
      </trkpt>
      <trkpt lat="48.91899" lon="2.28084">
        <ele>33</ele>
        <time>2016-05-02T19:00:03.000Z</time>
      </trkpt>
      <trkpt lat="48.91914" lon="2.28064">
        <ele>32.799999237061</ele>
        <time>2016-05-02T19:00:08.000Z</time>
      </trkpt>
      <trkpt lat="48.91931" lon="2.2805">
        <ele>32.799999237061</ele>
        <time>2016-05-02T19:00:13.000Z</time>
      </trkpt>
      <trkpt lat="48.91946" lon="2.28033">
        <ele>33</ele>
        <time>2016-05-02T19:00:18.000Z</time>
      </trkpt>
      <trkpt lat="48.91962" lon="2.28018">
        <ele>32.799999237061</ele>
        <time>2016-05-02T19:00:22.000Z</time>
      </trkpt>
      <trkpt lat="48.9198" lon="2.28002">
        <ele>33.400001525879</ele>
        <time>2016-05-02T19:00:26.000Z</time>
      </trkpt>
      <trkpt lat="48.91992" lon="2.27976">
        <ele>33.200000762939</ele>
        <time>2016-05-02T19:00:31.000Z</time>
      </trkpt>
      <trkpt lat="48.91996" lon="2.27956">
        <ele>32.599998474121</ele>
        <time>2016-05-02T19:00:35.000Z</time>
      </trkpt>
      <trkpt lat="48.92004" lon="2.27943">
        <ele>32</ele>
        <time>2016-05-02T19:00:38.000Z</time>
      </trkpt>
      <trkpt lat="48.92014" lon="2.2793">
        <ele>31.60000038147</ele>
        <time>2016-05-02T19:00:41.000Z</time>
      </trkpt>
      <trkpt lat="48.92025" lon="2.27918">
        <ele>31</ele>
        <time>2016-05-02T19:00:44.000Z</time>
      </trkpt>
      <trkpt lat="48.92043" lon="2.279">
        <ele>30.60000038147</ele>
        <time>2016-05-02T19:00:47.000Z</time>
      </trkpt>
      <trkpt lat="48.92058" lon="2.27875">
        <ele>30.200000762939</ele>
        <time>2016-05-02T19:00:51.000Z</time>
      </trkpt>
      <trkpt lat="48.92075" lon="2.27856">
        <ele>30.39999961853</ele>
        <time>2016-05-02T19:00:55.000Z</time>
      </trkpt>
      <trkpt lat="48.92094" lon="2.27836">
        <ele>30.799999237061</ele>
        <time>2016-05-02T19:01:00.000Z</time>
      </trkpt>
      <trkpt lat="48.92098" lon="2.27832">
        <ele>30.799999237061</ele>
        <time>2016-05-02T19:01:01.000Z</time>
      </trkpt>
      <trkpt lat="48.92116" lon="2.27812">
        <ele>31.200000762939</ele>
        <time>2016-05-02T19:01:05.000Z</time>
      </trkpt>
      <trkpt lat="48.92134" lon="2.27795">
        <ele>31.60000038147</ele>
        <time>2016-05-02T19:01:08.000Z</time>
      </trkpt>
      <trkpt lat="48.92151" lon="2.27777">
        <ele>31.799999237061</ele>
        <time>2016-05-02T19:01:11.000Z</time>
      </trkpt>
      <trkpt lat="48.9217" lon="2.27755">
        <ele>31.200000762939</ele>
        <time>2016-05-02T19:01:15.000Z</time>
      </trkpt>
      <trkpt lat="48.92175" lon="2.27751">
        <ele>31.200000762939</ele>
        <time>2016-05-02T19:01:16.000Z</time>
      </trkpt>
      <trkpt lat="48.92193" lon="2.27737">
        <ele>31</ele>
        <time>2016-05-02T19:01:20.000Z</time>
      </trkpt>
      <trkpt lat="48.92212" lon="2.27732">
        <ele>31</ele>
        <time>2016-05-02T19:01:22.000Z</time>
      </trkpt>
      <trkpt lat="48.9222" lon="2.27717">
        <ele>31</ele>
        <time>2016-05-02T19:01:26.000Z</time>
      </trkpt>
      <trkpt lat="48.92223" lon="2.27715">
        <ele>31</ele>
        <time>2016-05-02T19:01:27.000Z</time>
      </trkpt>
      <trkpt lat="48.92229" lon="2.27709">
        <ele>31</ele>
        <time>2016-05-02T19:01:29.000Z</time>
      </trkpt>
      <trkpt lat="48.92236" lon="2.27694">
        <ele>31</ele>
        <time>2016-05-02T19:01:34.000Z</time>
      </trkpt>
      <trkpt lat="48.92241" lon="2.27686">
        <ele>31</ele>
        <time>2016-05-02T19:01:36.000Z</time>
      </trkpt>
      <trkpt lat="48.92257" lon="2.27671">
        <ele>31</ele>
        <time>2016-05-02T19:01:40.000Z</time>
      </trkpt>
      <trkpt lat="48.92268" lon="2.27662">
        <ele>31</ele>
        <time>2016-05-02T19:01:43.000Z</time>
      </trkpt>
      <trkpt lat="48.92276" lon="2.2765">
        <ele>31</ele>
        <time>2016-05-02T19:01:46.000Z</time>
      </trkpt>
      <trkpt lat="48.9229" lon="2.27637">
        <ele>31.200000762939</ele>
        <time>2016-05-02T19:01:50.000Z</time>
      </trkpt>
      <trkpt lat="48.92307" lon="2.27615">
        <ele>31.39999961853</ele>
        <time>2016-05-02T19:01:55.000Z</time>
      </trkpt>
      <trkpt lat="48.92319" lon="2.27601">
        <ele>31.60000038147</ele>
        <time>2016-05-02T19:01:58.000Z</time>
      </trkpt>
      <trkpt lat="48.92338" lon="2.27585">
        <ele>31.799999237061</ele>
        <time>2016-05-02T19:02:02.000Z</time>
      </trkpt>
      <trkpt lat="48.92356" lon="2.27572">
        <ele>31.799999237061</ele>
        <time>2016-05-02T19:02:05.000Z</time>
      </trkpt>
      <trkpt lat="48.92377" lon="2.27557">
        <ele>31.39999961853</ele>
        <time>2016-05-02T19:02:08.000Z</time>
      </trkpt>
      <trkpt lat="48.92396" lon="2.27542">
        <ele>31</ele>
        <time>2016-05-02T19:02:11.000Z</time>
      </trkpt>
      <trkpt lat="48.92415" lon="2.27529">
        <ele>31</ele>
        <time>2016-05-02T19:02:14.000Z</time>
      </trkpt>
      <trkpt lat="48.92432" lon="2.27516">
        <ele>31.200000762939</ele>
        <time>2016-05-02T19:02:17.000Z</time>
      </trkpt>
      <trkpt lat="48.9245" lon="2.27507">
        <ele>30.799999237061</ele>
        <time>2016-05-02T19:02:20.000Z</time>
      </trkpt>
      <trkpt lat="48.9247" lon="2.27495">
        <ele>30</ele>
        <time>2016-05-02T19:02:23.000Z</time>
      </trkpt>
      <trkpt lat="48.92487" lon="2.27484">
        <ele>29.39999961853</ele>
        <time>2016-05-02T19:02:26.000Z</time>
      </trkpt>
      <trkpt lat="48.92505" lon="2.27473">
        <ele>28.799999237061</ele>
        <time>2016-05-02T19:02:29.000Z</time>
      </trkpt>
      <trkpt lat="48.92528" lon="2.2746">
        <ele>29</ele>
        <time>2016-05-02T19:02:33.000Z</time>
      </trkpt>
      <trkpt lat="48.92549" lon="2.27444">
        <ele>29.799999237061</ele>
        <time>2016-05-02T19:02:37.000Z</time>
      </trkpt>
      <trkpt lat="48.92568" lon="2.27425">
        <ele>30</ele>
        <time>2016-05-02T19:02:41.000Z</time>
      </trkpt>
      <trkpt lat="48.92588" lon="2.27409">
        <ele>30</ele>
        <time>2016-05-02T19:02:45.000Z</time>
      </trkpt>
      <trkpt lat="48.92607" lon="2.27393">
        <ele>29.799999237061</ele>
        <time>2016-05-02T19:02:49.000Z</time>
      </trkpt>
      <trkpt lat="48.92611" lon="2.27388">
        <ele>29.799999237061</ele>
        <time>2016-05-02T19:02:50.000Z</time>
      </trkpt>
      <trkpt lat="48.92629" lon="2.27376">
        <ele>30</ele>
        <time>2016-05-02T19:02:54.000Z</time>
      </trkpt>
      <trkpt lat="48.92641" lon="2.27365">
        <ele>30.200000762939</ele>
        <time>2016-05-02T19:02:57.000Z</time>
      </trkpt>
      <trkpt lat="48.9266" lon="2.27352">
        <ele>30.200000762939</ele>
        <time>2016-05-02T19:03:02.000Z</time>
      </trkpt>
      <trkpt lat="48.92664" lon="2.27351">
        <ele>30.200000762939</ele>
        <time>2016-05-02T19:03:03.000Z</time>
      </trkpt>
      <trkpt lat="48.92669" lon="2.27349">
        <ele>30.200000762939</ele>
        <time>2016-05-02T19:03:05.000Z</time>
      </trkpt>
      <trkpt lat="48.92678" lon="2.27349">
        <ele>30.39999961853</ele>
        <time>2016-05-02T19:03:08.000Z</time>
      </trkpt>
      <trkpt lat="48.9268" lon="2.27345">
        <ele>30.200000762939</ele>
        <time>2016-05-02T19:03:10.000Z</time>
      </trkpt>
      <trkpt lat="48.92697" lon="2.27335">
        <ele>30.60000038147</ele>
        <time>2016-05-02T19:03:54.000Z</time>
      </trkpt>
      <trkpt lat="48.92713" lon="2.2732">
        <ele>32.200000762939</ele>
        <time>2016-05-02T19:03:59.000Z</time>
      </trkpt>
      <trkpt lat="48.92732" lon="2.27308">
        <ele>34.200000762939</ele>
        <time>2016-05-02T19:04:04.000Z</time>
      </trkpt>
      <trkpt lat="48.9275" lon="2.27299">
        <ele>35.599998474121</ele>
        <time>2016-05-02T19:04:08.000Z</time>
      </trkpt>
      <trkpt lat="48.92767" lon="2.27283">
        <ele>35</ele>
        <time>2016-05-02T19:04:12.000Z</time>
      </trkpt>
      <trkpt lat="48.92776" lon="2.27252">
        <ele>33</ele>
        <time>2016-05-02T19:04:16.000Z</time>
      </trkpt>
      <trkpt lat="48.92783" lon="2.27218">
        <ele>31.39999961853</ele>
        <time>2016-05-02T19:04:20.000Z</time>
      </trkpt>
      <trkpt lat="48.92788" lon="2.27182">
        <ele>29.60000038147</ele>
        <time>2016-05-02T19:04:24.000Z</time>
      </trkpt>
      <trkpt lat="48.9279" lon="2.27173">
        <ele>29.799999237061</ele>
        <time>2016-05-02T19:04:25.000Z</time>
      </trkpt>
      <trkpt lat="48.92802" lon="2.27157">
        <ele>31.60000038147</ele>
        <time>2016-05-02T19:04:27.000Z</time>
      </trkpt>
      <trkpt lat="48.92808" lon="2.27137">
        <ele>32.200000762939</ele>
        <time>2016-05-02T19:04:29.000Z</time>
      </trkpt>
      <trkpt lat="48.92815" lon="2.27103">
        <ele>32.400001525879</ele>
        <time>2016-05-02T19:04:32.000Z</time>
      </trkpt>
      <trkpt lat="48.92825" lon="2.27071">
        <ele>32</ele>
        <time>2016-05-02T19:04:35.000Z</time>
      </trkpt>
      <trkpt lat="48.92837" lon="2.27039">
        <ele>31.200000762939</ele>
        <time>2016-05-02T19:04:38.000Z</time>
      </trkpt>
      <trkpt lat="48.92848" lon="2.27009">
        <ele>29</ele>
        <time>2016-05-02T19:04:41.000Z</time>
      </trkpt>
      <trkpt lat="48.92858" lon="2.26982">
        <ele>27.799999237061</ele>
        <time>2016-05-02T19:04:44.000Z</time>
      </trkpt>
      <trkpt lat="48.92868" lon="2.26958">
        <ele>27.60000038147</ele>
        <time>2016-05-02T19:04:47.000Z</time>
      </trkpt>
      <trkpt lat="48.92878" lon="2.26927">
        <ele>27.200000762939</ele>
        <time>2016-05-02T19:04:51.000Z</time>
      </trkpt>
      <trkpt lat="48.92885" lon="2.26901">
        <ele>27.200000762939</ele>
        <time>2016-05-02T19:04:55.000Z</time>
      </trkpt>
      <trkpt lat="48.92895" lon="2.2688">
        <ele>27.799999237061</ele>
        <time>2016-05-02T19:04:59.000Z</time>
      </trkpt>
      <trkpt lat="48.92909" lon="2.26861">
        <ele>28.200000762939</ele>
        <time>2016-05-02T19:05:03.000Z</time>
      </trkpt>
      <trkpt lat="48.92926" lon="2.2684">
        <ele>28.799999237061</ele>
        <time>2016-05-02T19:05:07.000Z</time>
      </trkpt>
      <trkpt lat="48.92941" lon="2.26825">
        <ele>29</ele>
        <time>2016-05-02T19:05:10.000Z</time>
      </trkpt>
      <trkpt lat="48.92957" lon="2.26811">
        <ele>29.200000762939</ele>
        <time>2016-05-02T19:05:13.000Z</time>
      </trkpt>
      <trkpt lat="48.92963" lon="2.26808">
        <ele>29.200000762939</ele>
        <time>2016-05-02T19:05:14.000Z</time>
      </trkpt>
      <trkpt lat="48.9298" lon="2.26797">
        <ele>29.200000762939</ele>
        <time>2016-05-02T19:05:17.000Z</time>
      </trkpt>
      <trkpt lat="48.93001" lon="2.26786">
        <ele>28.799999237061</ele>
        <time>2016-05-02T19:05:21.000Z</time>
      </trkpt>
      <trkpt lat="48.93023" lon="2.26771">
        <ele>28</ele>
        <time>2016-05-02T19:05:25.000Z</time>
      </trkpt>
      <trkpt lat="48.93044" lon="2.26756">
        <ele>27.60000038147</ele>
        <time>2016-05-02T19:05:29.000Z</time>
      </trkpt>
      <trkpt lat="48.93061" lon="2.26745">
        <ele>27.200000762939</ele>
        <time>2016-05-02T19:05:32.000Z</time>
      </trkpt>
      <trkpt lat="48.93082" lon="2.26733">
        <ele>27</ele>
        <time>2016-05-02T19:05:36.000Z</time>
      </trkpt>
      <trkpt lat="48.93099" lon="2.26725">
        <ele>26.799999237061</ele>
        <time>2016-05-02T19:05:39.000Z</time>
      </trkpt>
      <trkpt lat="48.9312" lon="2.26712">
        <ele>27.200000762939</ele>
        <time>2016-05-02T19:05:43.000Z</time>
      </trkpt>
      <trkpt lat="48.9314" lon="2.26698">
        <ele>28</ele>
        <time>2016-05-02T19:05:47.000Z</time>
      </trkpt>
      <trkpt lat="48.93162" lon="2.26685">
        <ele>27.60000038147</ele>
        <time>2016-05-02T19:05:51.000Z</time>
      </trkpt>
      <trkpt lat="48.93172" lon="2.26679">
        <ele>27.39999961853</ele>
        <time>2016-05-02T19:05:53.000Z</time>
      </trkpt>
      <trkpt lat="48.9319" lon="2.2666">
        <ele>27</ele>
        <time>2016-05-02T19:05:57.000Z</time>
      </trkpt>
      <trkpt lat="48.93206" lon="2.26639">
        <ele>27.60000038147</ele>
        <time>2016-05-02T19:06:01.000Z</time>
      </trkpt>
      <trkpt lat="48.93224" lon="2.26618">
        <ele>28</ele>
        <time>2016-05-02T19:06:05.000Z</time>
      </trkpt>
      <trkpt lat="48.9324" lon="2.26596">
        <ele>28.200000762939</ele>
        <time>2016-05-02T19:06:09.000Z</time>
      </trkpt>
      <trkpt lat="48.93255" lon="2.26575">
        <ele>28</ele>
        <time>2016-05-02T19:06:13.000Z</time>
      </trkpt>
      <trkpt lat="48.9327" lon="2.26555">
        <ele>28.200000762939</ele>
        <time>2016-05-02T19:06:17.000Z</time>
      </trkpt>
      <trkpt lat="48.93285" lon="2.26534">
        <ele>29.39999961853</ele>
        <time>2016-05-02T19:06:21.000Z</time>
      </trkpt>
      <trkpt lat="48.93301" lon="2.26514">
        <ele>30.60000038147</ele>
        <time>2016-05-02T19:06:25.000Z</time>
      </trkpt>
      <trkpt lat="48.93309" lon="2.26506">
        <ele>30.60000038147</ele>
        <time>2016-05-02T19:06:27.000Z</time>
      </trkpt>
      <trkpt lat="48.93325" lon="2.26491">
        <ele>30.799999237061</ele>
        <time>2016-05-02T19:06:31.000Z</time>
      </trkpt>
      <trkpt lat="48.93343" lon="2.26477">
        <ele>31</ele>
        <time>2016-05-02T19:06:37.000Z</time>
      </trkpt>
      <trkpt lat="48.93346" lon="2.26475">
        <ele>31</ele>
        <time>2016-05-02T19:06:38.000Z</time>
      </trkpt>
      <trkpt lat="48.93348" lon="2.26458">
        <ele>30.39999961853</ele>
        <time>2016-05-02T19:06:44.000Z</time>
      </trkpt>
      <trkpt lat="48.93348" lon="2.26452">
        <ele>30.200000762939</ele>
        <time>2016-05-02T19:06:48.000Z</time>
      </trkpt>
      <trkpt lat="48.93347" lon="2.26471">
        <ele>30.799999237061</ele>
        <time>2016-05-02T19:07:38.000Z</time>
      </trkpt>
      <trkpt lat="48.93358" lon="2.26445">
        <ele>30.200000762939</ele>
        <time>2016-05-02T19:07:46.000Z</time>
      </trkpt>
      <trkpt lat="48.93372" lon="2.26422">
        <ele>29</ele>
        <time>2016-05-02T19:07:50.000Z</time>
      </trkpt>
      <trkpt lat="48.93386" lon="2.26405">
        <ele>28.799999237061</ele>
        <time>2016-05-02T19:07:54.000Z</time>
      </trkpt>
      <trkpt lat="48.93399" lon="2.2638">
        <ele>28.799999237061</ele>
        <time>2016-05-02T19:07:58.000Z</time>
      </trkpt>
      <trkpt lat="48.93415" lon="2.26355">
        <ele>29</ele>
        <time>2016-05-02T19:08:02.000Z</time>
      </trkpt>
      <trkpt lat="48.93428" lon="2.26332">
        <ele>29.200000762939</ele>
        <time>2016-05-02T19:08:06.000Z</time>
      </trkpt>
      <trkpt lat="48.93444" lon="2.26307">
        <ele>28.60000038147</ele>
        <time>2016-05-02T19:08:10.000Z</time>
      </trkpt>
      <trkpt lat="48.93459" lon="2.26281">
        <ele>28.200000762939</ele>
        <time>2016-05-02T19:08:14.000Z</time>
      </trkpt>
      <trkpt lat="48.93473" lon="2.26262">
        <ele>27.799999237061</ele>
        <time>2016-05-02T19:08:18.000Z</time>
      </trkpt>
      <trkpt lat="48.93488" lon="2.26245">
        <ele>27.39999961853</ele>
        <time>2016-05-02T19:08:21.000Z</time>
      </trkpt>
      <trkpt lat="48.93501" lon="2.26225">
        <ele>27.799999237061</ele>
        <time>2016-05-02T19:08:24.000Z</time>
      </trkpt>
      <trkpt lat="48.93518" lon="2.26204">
        <ele>27.200000762939</ele>
        <time>2016-05-02T19:08:27.000Z</time>
      </trkpt>
      <trkpt lat="48.93529" lon="2.26189">
        <ele>27.200000762939</ele>
        <time>2016-05-02T19:08:30.000Z</time>
      </trkpt>
      <trkpt lat="48.93538" lon="2.26172">
        <ele>27</ele>
        <time>2016-05-02T19:08:34.000Z</time>
      </trkpt>
      <trkpt lat="48.93543" lon="2.2616">
        <ele>26.39999961853</ele>
        <time>2016-05-02T19:08:37.000Z</time>
      </trkpt>
      <trkpt lat="48.93553" lon="2.26146">
        <ele>26.60000038147</ele>
        <time>2016-05-02T19:08:41.000Z</time>
      </trkpt>
      <trkpt lat="48.93564" lon="2.26129">
        <ele>26.799999237061</ele>
        <time>2016-05-02T19:08:47.000Z</time>
      </trkpt>
      <trkpt lat="48.93568" lon="2.2612">
        <ele>26.799999237061</ele>
        <time>2016-05-02T19:08:51.000Z</time>
      </trkpt>
      <trkpt lat="48.9357" lon="2.26117">
        <ele>26.799999237061</ele>
        <time>2016-05-02T19:08:55.000Z</time>
      </trkpt>
      <trkpt lat="48.93581" lon="2.26093">
        <ele>26.39999961853</ele>
        <time>2016-05-02T19:09:07.000Z</time>
      </trkpt>
      <trkpt lat="48.93593" lon="2.26072">
        <ele>25.60000038147</ele>
        <time>2016-05-02T19:09:11.000Z</time>
      </trkpt>
      <trkpt lat="48.93607" lon="2.26044">
        <ele>25</ele>
        <time>2016-05-02T19:09:15.000Z</time>
      </trkpt>
      <trkpt lat="48.9362" lon="2.26022">
        <ele>25.60000038147</ele>
        <time>2016-05-02T19:09:18.000Z</time>
      </trkpt>
      <trkpt lat="48.93634" lon="2.26002">
        <ele>25.799999237061</ele>
        <time>2016-05-02T19:09:21.000Z</time>
      </trkpt>
      <trkpt lat="48.93649" lon="2.25984">
        <ele>27</ele>
        <time>2016-05-02T19:09:24.000Z</time>
      </trkpt>
      <trkpt lat="48.93665" lon="2.25961">
        <ele>29.39999961853</ele>
        <time>2016-05-02T19:09:28.000Z</time>
      </trkpt>
      <trkpt lat="48.93681" lon="2.25935">
        <ele>30.799999237061</ele>
        <time>2016-05-02T19:09:32.000Z</time>
      </trkpt>
      <trkpt lat="48.93695" lon="2.25914">
        <ele>31.799999237061</ele>
        <time>2016-05-02T19:09:35.000Z</time>
      </trkpt>
      <trkpt lat="48.93709" lon="2.25894">
        <ele>31.39999961853</ele>
        <time>2016-05-02T19:09:38.000Z</time>
      </trkpt>
      <trkpt lat="48.93724" lon="2.25875">
        <ele>30.799999237061</ele>
        <time>2016-05-02T19:09:41.000Z</time>
      </trkpt>
      <trkpt lat="48.93739" lon="2.25856">
        <ele>30.39999961853</ele>
        <time>2016-05-02T19:09:44.000Z</time>
      </trkpt>
      <trkpt lat="48.93755" lon="2.25839">
        <ele>29.799999237061</ele>
        <time>2016-05-02T19:09:47.000Z</time>
      </trkpt>
      <trkpt lat="48.93774" lon="2.25817">
        <ele>29.200000762939</ele>
        <time>2016-05-02T19:09:51.000Z</time>
      </trkpt>
      <trkpt lat="48.93789" lon="2.25796">
        <ele>29.60000038147</ele>
        <time>2016-05-02T19:09:54.000Z</time>
      </trkpt>
      <trkpt lat="48.93804" lon="2.25779">
        <ele>30</ele>
        <time>2016-05-02T19:09:57.000Z</time>
      </trkpt>
      <trkpt lat="48.93821" lon="2.25757">
        <ele>30.39999961853</ele>
        <time>2016-05-02T19:10:01.000Z</time>
      </trkpt>
      <trkpt lat="48.93831" lon="2.25746">
        <ele>30.799999237061</ele>
        <time>2016-05-02T19:10:03.000Z</time>
      </trkpt>
      <trkpt lat="48.93848" lon="2.25724">
        <ele>31.60000038147</ele>
        <time>2016-05-02T19:10:07.000Z</time>
      </trkpt>
      <trkpt lat="48.93865" lon="2.25704">
        <ele>31</ele>
        <time>2016-05-02T19:10:11.000Z</time>
      </trkpt>
      <trkpt lat="48.93879" lon="2.25684">
        <ele>30.799999237061</ele>
        <time>2016-05-02T19:10:15.000Z</time>
      </trkpt>
      <trkpt lat="48.93883" lon="2.2568">
        <ele>30.60000038147</ele>
        <time>2016-05-02T19:10:16.000Z</time>
      </trkpt>
      <trkpt lat="48.939" lon="2.2566">
        <ele>30.39999961853</ele>
        <time>2016-05-02T19:10:20.000Z</time>
      </trkpt>
      <trkpt lat="48.93915" lon="2.25643">
        <ele>30</ele>
        <time>2016-05-02T19:10:24.000Z</time>
      </trkpt>
      <trkpt lat="48.93925" lon="2.25631">
        <ele>29.60000038147</ele>
        <time>2016-05-02T19:10:27.000Z</time>
      </trkpt>
      <trkpt lat="48.93942" lon="2.25614">
        <ele>28.799999237061</ele>
        <time>2016-05-02T19:10:32.000Z</time>
      </trkpt>
      <trkpt lat="48.93946" lon="2.25611">
        <ele>28.60000038147</ele>
        <time>2016-05-02T19:10:33.000Z</time>
      </trkpt>
      <trkpt lat="48.93962" lon="2.25593">
        <ele>27.200000762939</ele>
        <time>2016-05-02T19:10:38.000Z</time>
      </trkpt>
      <trkpt lat="48.9398" lon="2.25573">
        <ele>25</ele>
        <time>2016-05-02T19:10:43.000Z</time>
      </trkpt>
      <trkpt lat="48.93988" lon="2.25565">
        <ele>24.200000762939</ele>
        <time>2016-05-02T19:10:45.000Z</time>
      </trkpt>
      <trkpt lat="48.94004" lon="2.25548">
        <ele>23</ele>
        <time>2016-05-02T19:10:49.000Z</time>
      </trkpt>
      <trkpt lat="48.94019" lon="2.25532">
        <ele>22.799999237061</ele>
        <time>2016-05-02T19:10:53.000Z</time>
      </trkpt>
      <trkpt lat="48.94035" lon="2.25516">
        <ele>21.799999237061</ele>
        <time>2016-05-02T19:10:57.000Z</time>
      </trkpt>
      <trkpt lat="48.94049" lon="2.255">
        <ele>22.200000762939</ele>
        <time>2016-05-02T19:11:01.000Z</time>
      </trkpt>
      <trkpt lat="48.94065" lon="2.25484">
        <ele>22.200000762939</ele>
        <time>2016-05-02T19:11:05.000Z</time>
      </trkpt>
      <trkpt lat="48.94081" lon="2.25466">
        <ele>22.200000762939</ele>
        <time>2016-05-02T19:11:09.000Z</time>
      </trkpt>
      <trkpt lat="48.94098" lon="2.25446">
        <ele>23.799999237061</ele>
        <time>2016-05-02T19:11:13.000Z</time>
      </trkpt>
      <trkpt lat="48.94116" lon="2.25426">
        <ele>25.60000038147</ele>
        <time>2016-05-02T19:11:17.000Z</time>
      </trkpt>
      <trkpt lat="48.94132" lon="2.25411">
        <ele>26.39999961853</ele>
        <time>2016-05-02T19:11:20.000Z</time>
      </trkpt>
      <trkpt lat="48.94151" lon="2.25396">
        <ele>27.200000762939</ele>
        <time>2016-05-02T19:11:23.000Z</time>
      </trkpt>
      <trkpt lat="48.9417" lon="2.25381">
        <ele>27.60000038147</ele>
        <time>2016-05-02T19:11:26.000Z</time>
      </trkpt>
      <trkpt lat="48.94187" lon="2.25368">
        <ele>27.60000038147</ele>
        <time>2016-05-02T19:11:29.000Z</time>
      </trkpt>
      <trkpt lat="48.94199" lon="2.25355">
        <ele>27.799999237061</ele>
        <time>2016-05-02T19:11:32.000Z</time>
      </trkpt>
      <trkpt lat="48.94212" lon="2.25338">
        <ele>28.39999961853</ele>
        <time>2016-05-02T19:11:37.000Z</time>
      </trkpt>
      <trkpt lat="48.94215" lon="2.25332">
        <ele>28.799999237061</ele>
        <time>2016-05-02T19:11:40.000Z</time>
      </trkpt>
      <trkpt lat="48.94218" lon="2.25327">
        <ele>29</ele>
        <time>2016-05-02T19:13:07.000Z</time>
      </trkpt>
      <trkpt lat="48.94232" lon="2.2531">
        <ele>29.39999961853</ele>
        <time>2016-05-02T19:13:14.000Z</time>
      </trkpt>
      <trkpt lat="48.94248" lon="2.25292">
        <ele>30.39999961853</ele>
        <time>2016-05-02T19:13:20.000Z</time>
      </trkpt>
      <trkpt lat="48.94264" lon="2.25275">
        <ele>32.200000762939</ele>
        <time>2016-05-02T19:13:25.000Z</time>
      </trkpt>
      <trkpt lat="48.9428" lon="2.25259">
        <ele>33.599998474121</ele>
        <time>2016-05-02T19:13:30.000Z</time>
      </trkpt>
      <trkpt lat="48.94298" lon="2.25246">
        <ele>34</ele>
        <time>2016-05-02T19:13:35.000Z</time>
      </trkpt>
      <trkpt lat="48.94313" lon="2.25229">
        <ele>34.599998474121</ele>
        <time>2016-05-02T19:13:40.000Z</time>
      </trkpt>
      <trkpt lat="48.9433" lon="2.25213">
        <ele>35.200000762939</ele>
        <time>2016-05-02T19:13:45.000Z</time>
      </trkpt>
      <trkpt lat="48.94345" lon="2.25191">
        <ele>36</ele>
        <time>2016-05-02T19:13:50.000Z</time>
      </trkpt>
      <trkpt lat="48.9436" lon="2.25175">
        <ele>36.599998474121</ele>
        <time>2016-05-02T19:13:54.000Z</time>
      </trkpt>
      <trkpt lat="48.94379" lon="2.25159">
        <ele>37</ele>
        <time>2016-05-02T19:13:59.000Z</time>
      </trkpt>
      <trkpt lat="48.94394" lon="2.25142">
        <ele>37</ele>
        <time>2016-05-02T19:14:03.000Z</time>
      </trkpt>
      <trkpt lat="48.94409" lon="2.25125">
        <ele>37.200000762939</ele>
        <time>2016-05-02T19:14:07.000Z</time>
      </trkpt>
      <trkpt lat="48.94416" lon="2.25117">
        <ele>38</ele>
        <time>2016-05-02T19:14:09.000Z</time>
      </trkpt>
      <trkpt lat="48.94431" lon="2.25101">
        <ele>39.599998474121</ele>
        <time>2016-05-02T19:14:13.000Z</time>
      </trkpt>
      <trkpt lat="48.94449" lon="2.25081">
        <ele>40.599998474121</ele>
        <time>2016-05-02T19:14:18.000Z</time>
      </trkpt>
      <trkpt lat="48.94454" lon="2.25078">
        <ele>40.599998474121</ele>
        <time>2016-05-02T19:14:19.000Z</time>
      </trkpt>
      <trkpt lat="48.94464" lon="2.25067">
        <ele>40</ele>
        <time>2016-05-02T19:14:22.000Z</time>
      </trkpt>
      <trkpt lat="48.94479" lon="2.25046">
        <ele>39.200000762939</ele>
        <time>2016-05-02T19:14:27.000Z</time>
      </trkpt>
      <trkpt lat="48.94494" lon="2.25026">
        <ele>39.599998474121</ele>
        <time>2016-05-02T19:14:32.000Z</time>
      </trkpt>
      <trkpt lat="48.94512" lon="2.25011">
        <ele>40.400001525879</ele>
        <time>2016-05-02T19:14:37.000Z</time>
      </trkpt>
      <trkpt lat="48.94518" lon="2.25002">
        <ele>40.599998474121</ele>
        <time>2016-05-02T19:14:39.000Z</time>
      </trkpt>
      <trkpt lat="48.94535" lon="2.24985">
        <ele>40.200000762939</ele>
        <time>2016-05-02T19:14:44.000Z</time>
      </trkpt>
      <trkpt lat="48.94554" lon="2.24974">
        <ele>39.200000762939</ele>
        <time>2016-05-02T19:14:49.000Z</time>
      </trkpt>
      <trkpt lat="48.94572" lon="2.2496">
        <ele>38</ele>
        <time>2016-05-02T19:14:54.000Z</time>
      </trkpt>
      <trkpt lat="48.9458" lon="2.24954">
        <ele>38.200000762939</ele>
        <time>2016-05-02T19:14:56.000Z</time>
      </trkpt>
      <trkpt lat="48.94599" lon="2.24941">
        <ele>38.599998474121</ele>
        <time>2016-05-02T19:15:01.000Z</time>
      </trkpt>
      <trkpt lat="48.94616" lon="2.24931">
        <ele>38.599998474121</ele>
        <time>2016-05-02T19:15:06.000Z</time>
      </trkpt>
      <trkpt lat="48.94633" lon="2.24918">
        <ele>38</ele>
        <time>2016-05-02T19:15:11.000Z</time>
      </trkpt>
      <trkpt lat="48.9465" lon="2.24909">
        <ele>37.400001525879</ele>
        <time>2016-05-02T19:15:19.000Z</time>
      </trkpt>
      <trkpt lat="48.94667" lon="2.24919">
        <ele>36.799999237061</ele>
        <time>2016-05-02T19:15:29.000Z</time>
      </trkpt>
      <trkpt lat="48.94682" lon="2.24943">
        <ele>36.400001525879</ele>
        <time>2016-05-02T19:15:35.000Z</time>
      </trkpt>
      <trkpt lat="48.94697" lon="2.24964">
        <ele>36</ele>
        <time>2016-05-02T19:15:40.000Z</time>
      </trkpt>
      <trkpt lat="48.94709" lon="2.24984">
        <ele>35.799999237061</ele>
        <time>2016-05-02T19:15:44.000Z</time>
      </trkpt>
      <trkpt lat="48.94724" lon="2.25004">
        <ele>35.599998474121</ele>
        <time>2016-05-02T19:15:48.000Z</time>
      </trkpt>
      <trkpt lat="48.94736" lon="2.25024">
        <ele>35.200000762939</ele>
        <time>2016-05-02T19:15:52.000Z</time>
      </trkpt>
      <trkpt lat="48.94749" lon="2.25046">
        <ele>34.799999237061</ele>
        <time>2016-05-02T19:15:56.000Z</time>
      </trkpt>
      <trkpt lat="48.94757" lon="2.25071">
        <ele>34.200000762939</ele>
        <time>2016-05-02T19:16:00.000Z</time>
      </trkpt>
      <trkpt lat="48.94768" lon="2.25095">
        <ele>34.200000762939</ele>
        <time>2016-05-02T19:16:04.000Z</time>
      </trkpt>
      <trkpt lat="48.94781" lon="2.2512">
        <ele>34.200000762939</ele>
        <time>2016-05-02T19:16:08.000Z</time>
      </trkpt>
      <trkpt lat="48.94795" lon="2.25147">
        <ele>34</ele>
        <time>2016-05-02T19:16:12.000Z</time>
      </trkpt>
      <trkpt lat="48.94809" lon="2.25174">
        <ele>33.799999237061</ele>
        <time>2016-05-02T19:16:16.000Z</time>
      </trkpt>
      <trkpt lat="48.94821" lon="2.25198">
        <ele>33.799999237061</ele>
        <time>2016-05-02T19:16:20.000Z</time>
      </trkpt>
      <trkpt lat="48.94826" lon="2.25203">
        <ele>33.599998474121</ele>
        <time>2016-05-02T19:16:21.000Z</time>
      </trkpt>
      <trkpt lat="48.94836" lon="2.25227">
        <ele>33.599998474121</ele>
        <time>2016-05-02T19:16:25.000Z</time>
      </trkpt>
      <trkpt lat="48.94848" lon="2.25248">
        <ele>33.400001525879</ele>
        <time>2016-05-02T19:16:29.000Z</time>
      </trkpt>
      <trkpt lat="48.94857" lon="2.25265">
        <ele>34</ele>
        <time>2016-05-02T19:16:32.000Z</time>
      </trkpt>
      <trkpt lat="48.94862" lon="2.25276">
        <ele>34.400001525879</ele>
        <time>2016-05-02T19:16:34.000Z</time>
      </trkpt>
      <trkpt lat="48.94868" lon="2.25293">
        <ele>35</ele>
        <time>2016-05-02T19:16:37.000Z</time>
      </trkpt>
      <trkpt lat="48.94877" lon="2.25309">
        <ele>35.599998474121</ele>
        <time>2016-05-02T19:16:41.000Z</time>
      </trkpt>
      <trkpt lat="48.94882" lon="2.2532">
        <ele>36</ele>
        <time>2016-05-02T19:16:44.000Z</time>
      </trkpt>
      <trkpt lat="48.94885" lon="2.25332">
        <ele>36.400001525879</ele>
        <time>2016-05-02T19:16:47.000Z</time>
      </trkpt>
      <trkpt lat="48.94886" lon="2.2534">
        <ele>36.799999237061</ele>
        <time>2016-05-02T19:16:50.000Z</time>
      </trkpt>
      <trkpt lat="48.94886" lon="2.25348">
        <ele>37</ele>
        <time>2016-05-02T19:16:54.000Z</time>
      </trkpt>
      <trkpt lat="48.94877" lon="2.25343">
        <ele>37</ele>
        <time>2016-05-02T19:16:59.000Z</time>
      </trkpt>
      <trkpt lat="48.94862" lon="2.25326">
        <ele>36.799999237061</ele>
        <time>2016-05-02T19:17:04.000Z</time>
      </trkpt>
      <trkpt lat="48.94842" lon="2.25316">
        <ele>36.799999237061</ele>
        <time>2016-05-02T19:17:09.000Z</time>
      </trkpt>
      <trkpt lat="48.9482" lon="2.25311">
        <ele>36.400001525879</ele>
        <time>2016-05-02T19:17:14.000Z</time>
      </trkpt>
      <trkpt lat="48.948" lon="2.2531">
        <ele>35.799999237061</ele>
        <time>2016-05-02T19:17:19.000Z</time>
      </trkpt>
      <trkpt lat="48.9478" lon="2.25314">
        <ele>35.400001525879</ele>
        <time>2016-05-02T19:17:26.000Z</time>
      </trkpt>
      <trkpt lat="48.94761" lon="2.2532">
        <ele>34.599998474121</ele>
        <time>2016-05-02T19:17:31.000Z</time>
      </trkpt>
      <trkpt lat="48.94743" lon="2.2533">
        <ele>33.799999237061</ele>
        <time>2016-05-02T19:17:35.000Z</time>
      </trkpt>
      <trkpt lat="48.94724" lon="2.2534">
        <ele>33.200000762939</ele>
        <time>2016-05-02T19:17:40.000Z</time>
      </trkpt>
      <trkpt lat="48.94707" lon="2.25357">
        <ele>32.599998474121</ele>
        <time>2016-05-02T19:17:45.000Z</time>
      </trkpt>
      <trkpt lat="48.94691" lon="2.25363">
        <ele>32</ele>
        <time>2016-05-02T19:17:50.000Z</time>
      </trkpt>
      <trkpt lat="48.94685" lon="2.25388">
        <ele>32</ele>
        <time>2016-05-02T19:17:56.000Z</time>
      </trkpt>
      <trkpt lat="48.94679" lon="2.25402">
        <ele>32</ele>
        <time>2016-05-02T19:18:00.000Z</time>
      </trkpt>
      <trkpt lat="48.94659" lon="2.2541">
        <ele>31.60000038147</ele>
        <time>2016-05-02T19:18:06.000Z</time>
      </trkpt>
      <trkpt lat="48.94638" lon="2.25414">
        <ele>31.39999961853</ele>
        <time>2016-05-02T19:18:12.000Z</time>
      </trkpt>
      <trkpt lat="48.9462" lon="2.25419">
        <ele>31.200000762939</ele>
        <time>2016-05-02T19:18:16.000Z</time>
      </trkpt>
      <trkpt lat="48.94601" lon="2.25424">
        <ele>30.799999237061</ele>
        <time>2016-05-02T19:18:20.000Z</time>
      </trkpt>
      <trkpt lat="48.9458" lon="2.25431">
        <ele>30.39999961853</ele>
        <time>2016-05-02T19:18:24.000Z</time>
      </trkpt>
      <trkpt lat="48.94558" lon="2.25439">
        <ele>29.799999237061</ele>
        <time>2016-05-02T19:18:28.000Z</time>
      </trkpt>
      <trkpt lat="48.94537" lon="2.25446">
        <ele>29.39999961853</ele>
        <time>2016-05-02T19:18:32.000Z</time>
      </trkpt>
      <trkpt lat="48.94518" lon="2.25449">
        <ele>28.799999237061</ele>
        <time>2016-05-02T19:18:36.000Z</time>
      </trkpt>
      <trkpt lat="48.94513" lon="2.25451">
        <ele>28.60000038147</ele>
        <time>2016-05-02T19:18:37.000Z</time>
      </trkpt>
      <trkpt lat="48.94495" lon="2.25459">
        <ele>28</ele>
        <time>2016-05-02T19:18:41.000Z</time>
      </trkpt>
      <trkpt lat="48.94486" lon="2.25463">
        <ele>27.60000038147</ele>
        <time>2016-05-02T19:18:43.000Z</time>
      </trkpt>
      <trkpt lat="48.9448" lon="2.25489">
        <ele>27.39999961853</ele>
        <time>2016-05-02T19:18:49.000Z</time>
      </trkpt>
      <trkpt lat="48.94488" lon="2.255">
        <ele>27.799999237061</ele>
        <time>2016-05-02T19:18:52.000Z</time>
      </trkpt>
      <trkpt lat="48.94502" lon="2.25521">
        <ele>29.39999961853</ele>
        <time>2016-05-02T19:18:57.000Z</time>
      </trkpt>
      <trkpt lat="48.94518" lon="2.25534">
        <ele>30.60000038147</ele>
        <time>2016-05-02T19:19:01.000Z</time>
      </trkpt>
      <trkpt lat="48.94529" lon="2.25544">
        <ele>31.39999961853</ele>
        <time>2016-05-02T19:19:04.000Z</time>
      </trkpt>
      <trkpt lat="48.94545" lon="2.25563">
        <ele>32.200000762939</ele>
        <time>2016-05-02T19:19:09.000Z</time>
      </trkpt>
      <trkpt lat="48.94549" lon="2.25567">
        <ele>32.400001525879</ele>
        <time>2016-05-02T19:19:10.000Z</time>
      </trkpt>
      <trkpt lat="48.94566" lon="2.25582">
        <ele>33</ele>
        <time>2016-05-02T19:19:14.000Z</time>
      </trkpt>
      <trkpt lat="48.9457" lon="2.25584">
        <ele>33</ele>
        <time>2016-05-02T19:19:15.000Z</time>
      </trkpt>
      <trkpt lat="48.94586" lon="2.25599">
        <ele>33</ele>
        <time>2016-05-02T19:19:19.000Z</time>
      </trkpt>
      <trkpt lat="48.94596" lon="2.25611">
        <ele>33</ele>
        <time>2016-05-02T19:19:22.000Z</time>
      </trkpt>
      <trkpt lat="48.94611" lon="2.25627">
        <ele>33</ele>
        <time>2016-05-02T19:19:26.000Z</time>
      </trkpt>
      <trkpt lat="48.94626" lon="2.25646">
        <ele>33.400001525879</ele>
        <time>2016-05-02T19:19:31.000Z</time>
      </trkpt>
      <trkpt lat="48.94643" lon="2.25665">
        <ele>33.799999237061</ele>
        <time>2016-05-02T19:19:37.000Z</time>
      </trkpt>
      <trkpt lat="48.94656" lon="2.25682">
        <ele>34.400001525879</ele>
        <time>2016-05-02T19:19:43.000Z</time>
      </trkpt>
      <trkpt lat="48.94667" lon="2.25688">
        <ele>34.799999237061</ele>
        <time>2016-05-02T19:20:23.000Z</time>
      </trkpt>
      <trkpt lat="48.94685" lon="2.25683">
        <ele>35.200000762939</ele>
        <time>2016-05-02T19:20:41.000Z</time>
      </trkpt>
      <trkpt lat="48.94703" lon="2.25671">
        <ele>35.200000762939</ele>
        <time>2016-05-02T19:20:48.000Z</time>
      </trkpt>
      <trkpt lat="48.94721" lon="2.25659">
        <ele>35.799999237061</ele>
        <time>2016-05-02T19:20:55.000Z</time>
      </trkpt>
      <trkpt lat="48.94739" lon="2.25647">
        <ele>36.200000762939</ele>
        <time>2016-05-02T19:21:01.000Z</time>
      </trkpt>
      <trkpt lat="48.94757" lon="2.25633">
        <ele>36.400001525879</ele>
        <time>2016-05-02T19:21:08.000Z</time>
      </trkpt>
      <trkpt lat="48.94769" lon="2.25608">
        <ele>36.200000762939</ele>
        <time>2016-05-02T19:21:16.000Z</time>
      </trkpt>
      <trkpt lat="48.94776" lon="2.25602">
        <ele>36.400001525879</ele>
        <time>2016-05-02T19:21:19.000Z</time>
      </trkpt>
      <trkpt lat="48.94786" lon="2.25596">
        <ele>36.400001525879</ele>
        <time>2016-05-02T19:21:25.000Z</time>
      </trkpt>
      <trkpt lat="48.94804" lon="2.2558">
        <ele>37.400001525879</ele>
        <time>2016-05-02T19:21:35.000Z</time>
      </trkpt>
      <trkpt lat="48.94822" lon="2.25566">
        <ele>38.200000762939</ele>
        <time>2016-05-02T19:21:41.000Z</time>
      </trkpt>
      <trkpt lat="48.9484" lon="2.25565">
        <ele>39</ele>
        <time>2016-05-02T19:21:46.000Z</time>
      </trkpt>
      <trkpt lat="48.9486" lon="2.25576">
        <ele>40</ele>
        <time>2016-05-02T19:21:53.000Z</time>
      </trkpt>
      <trkpt lat="48.94877" lon="2.2559">
        <ele>40.200000762939</ele>
        <time>2016-05-02T19:21:58.000Z</time>
      </trkpt>
      <trkpt lat="48.94888" lon="2.25613">
        <ele>40.400001525879</ele>
        <time>2016-05-02T19:22:04.000Z</time>
      </trkpt>
      <trkpt lat="48.94896" lon="2.25639">
        <ele>40</ele>
        <time>2016-05-02T19:22:11.000Z</time>
      </trkpt>
      <trkpt lat="48.94897" lon="2.25668">
        <ele>39.400001525879</ele>
        <time>2016-05-02T19:22:21.000Z</time>
      </trkpt>
      <trkpt lat="48.94897" lon="2.25671">
        <ele>39.400001525879</ele>
        <time>2016-05-02T19:22:23.000Z</time>
      </trkpt>
      <trkpt lat="48.94895" lon="2.25673">
        <ele>39.200000762939</ele>
        <time>2016-05-02T19:23:05.000Z</time>
      </trkpt>
      <trkpt lat="48.94891" lon="2.25701">
        <ele>38.799999237061</ele>
        <time>2016-05-02T19:23:21.000Z</time>
      </trkpt>
      <trkpt lat="48.94877" lon="2.2572">
        <ele>38.400001525879</ele>
        <time>2016-05-02T19:23:29.000Z</time>
      </trkpt>
      <trkpt lat="48.94865" lon="2.25744">
        <ele>38.200000762939</ele>
        <time>2016-05-02T19:23:35.000Z</time>
      </trkpt>
      <trkpt lat="48.94857" lon="2.25768">
        <ele>38.599998474121</ele>
        <time>2016-05-02T19:23:40.000Z</time>
      </trkpt>
      <trkpt lat="48.94853" lon="2.258">
        <ele>39.200000762939</ele>
        <time>2016-05-02T19:23:45.000Z</time>
      </trkpt>
      <trkpt lat="48.94853" lon="2.25807">
        <ele>39.400001525879</ele>
        <time>2016-05-02T19:23:46.000Z</time>
      </trkpt>
      <trkpt lat="48.94856" lon="2.25839">
        <ele>40</ele>
        <time>2016-05-02T19:23:50.000Z</time>
      </trkpt>
      <trkpt lat="48.94861" lon="2.25872">
        <ele>40.200000762939</ele>
        <time>2016-05-02T19:23:54.000Z</time>
      </trkpt>
      <trkpt lat="48.94868" lon="2.25901">
        <ele>40.400001525879</ele>
        <time>2016-05-02T19:23:57.000Z</time>
      </trkpt>
      <trkpt lat="48.94884" lon="2.25925">
        <ele>41.200000762939</ele>
        <time>2016-05-02T19:24:02.000Z</time>
      </trkpt>
      <trkpt lat="48.94892" lon="2.25938">
        <ele>41.599998474121</ele>
        <time>2016-05-02T19:24:05.000Z</time>
      </trkpt>
      <trkpt lat="48.94908" lon="2.25958">
        <ele>42.400001525879</ele>
        <time>2016-05-02T19:24:11.000Z</time>
      </trkpt>
      <trkpt lat="48.94918" lon="2.25986">
        <ele>43</ele>
        <time>2016-05-02T19:24:18.000Z</time>
      </trkpt>
      <trkpt lat="48.94928" lon="2.26015">
        <ele>43</ele>
        <time>2016-05-02T19:24:25.000Z</time>
      </trkpt>
      <trkpt lat="48.94938" lon="2.26039">
        <ele>42.799999237061</ele>
        <time>2016-05-02T19:24:30.000Z</time>
      </trkpt>
      <trkpt lat="48.94949" lon="2.26066">
        <ele>42.799999237061</ele>
        <time>2016-05-02T19:24:35.000Z</time>
      </trkpt>
      <trkpt lat="48.9496" lon="2.26093">
        <ele>43.200000762939</ele>
        <time>2016-05-02T19:24:40.000Z</time>
      </trkpt>
      <trkpt lat="48.94968" lon="2.26122">
        <ele>43.799999237061</ele>
        <time>2016-05-02T19:24:45.000Z</time>
      </trkpt>
      <trkpt lat="48.94978" lon="2.26148">
        <ele>44.599998474121</ele>
        <time>2016-05-02T19:24:50.000Z</time>
      </trkpt>
      <trkpt lat="48.94988" lon="2.26173">
        <ele>45.400001525879</ele>
        <time>2016-05-02T19:24:55.000Z</time>
      </trkpt>
      <trkpt lat="48.94999" lon="2.26197">
        <ele>46.200000762939</ele>
        <time>2016-05-02T19:25:00.000Z</time>
      </trkpt>
      <trkpt lat="48.95011" lon="2.26225">
        <ele>47</ele>
        <time>2016-05-02T19:25:06.000Z</time>
      </trkpt>
      <trkpt lat="48.95022" lon="2.26251">
        <ele>48</ele>
        <time>2016-05-02T19:25:12.000Z</time>
      </trkpt>
      <trkpt lat="48.95034" lon="2.26278">
        <ele>48.400001525879</ele>
        <time>2016-05-02T19:25:19.000Z</time>
      </trkpt>
      <trkpt lat="48.95044" lon="2.26301">
        <ele>48.799999237061</ele>
        <time>2016-05-02T19:25:25.000Z</time>
      </trkpt>
      <trkpt lat="48.95055" lon="2.26327">
        <ele>49</ele>
        <time>2016-05-02T19:25:31.000Z</time>
      </trkpt>
      <trkpt lat="48.95067" lon="2.26352">
        <ele>50.200000762939</ele>
        <time>2016-05-02T19:25:36.000Z</time>
      </trkpt>
      <trkpt lat="48.95078" lon="2.26378">
        <ele>51</ele>
        <time>2016-05-02T19:25:40.000Z</time>
      </trkpt>
      <trkpt lat="48.95086" lon="2.26402">
        <ele>51.799999237061</ele>
        <time>2016-05-02T19:25:44.000Z</time>
      </trkpt>
      <trkpt lat="48.95097" lon="2.26431">
        <ele>52.200000762939</ele>
        <time>2016-05-02T19:25:49.000Z</time>
      </trkpt>
      <trkpt lat="48.95108" lon="2.26455">
        <ele>52.400001525879</ele>
        <time>2016-05-02T19:25:53.000Z</time>
      </trkpt>
      <trkpt lat="48.95122" lon="2.26481">
        <ele>52.799999237061</ele>
        <time>2016-05-02T19:25:58.000Z</time>
      </trkpt>
      <trkpt lat="48.95128" lon="2.26495">
        <ele>52.799999237061</ele>
        <time>2016-05-02T19:26:01.000Z</time>
      </trkpt>
      <trkpt lat="48.95133" lon="2.26513">
        <ele>53</ele>
        <time>2016-05-02T19:26:05.000Z</time>
      </trkpt>
      <trkpt lat="48.95134" lon="2.26517">
        <ele>53</ele>
        <time>2016-05-02T19:26:06.000Z</time>
      </trkpt>
      <trkpt lat="48.95145" lon="2.26542">
        <ele>53.400001525879</ele>
        <time>2016-05-02T19:26:12.000Z</time>
      </trkpt>
      <trkpt lat="48.95155" lon="2.26564">
        <ele>54</ele>
        <time>2016-05-02T19:26:17.000Z</time>
      </trkpt>
      <trkpt lat="48.95165" lon="2.26589">
        <ele>54.400001525879</ele>
        <time>2016-05-02T19:26:22.000Z</time>
      </trkpt>
      <trkpt lat="48.95175" lon="2.26612">
        <ele>54.599998474121</ele>
        <time>2016-05-02T19:26:27.000Z</time>
      </trkpt>
      <trkpt lat="48.95185" lon="2.2664">
        <ele>54.799999237061</ele>
        <time>2016-05-02T19:26:33.000Z</time>
      </trkpt>
      <trkpt lat="48.95195" lon="2.26664">
        <ele>55.200000762939</ele>
        <time>2016-05-02T19:26:39.000Z</time>
      </trkpt>
      <trkpt lat="48.95203" lon="2.26693">
        <ele>55.799999237061</ele>
        <time>2016-05-02T19:26:45.000Z</time>
      </trkpt>
      <trkpt lat="48.95215" lon="2.26716">
        <ele>56.599998474121</ele>
        <time>2016-05-02T19:26:51.000Z</time>
      </trkpt>
      <trkpt lat="48.95225" lon="2.26742">
        <ele>57.200000762939</ele>
        <time>2016-05-02T19:26:56.000Z</time>
      </trkpt>
      <trkpt lat="48.95233" lon="2.26768">
        <ele>57.200000762939</ele>
        <time>2016-05-02T19:27:00.000Z</time>
      </trkpt>
      <trkpt lat="48.95241" lon="2.26794">
        <ele>57.200000762939</ele>
        <time>2016-05-02T19:27:04.000Z</time>
      </trkpt>
      <trkpt lat="48.95252" lon="2.26822">
        <ele>57.599998474121</ele>
        <time>2016-05-02T19:27:09.000Z</time>
      </trkpt>
      <trkpt lat="48.95264" lon="2.26849">
        <ele>58.200000762939</ele>
        <time>2016-05-02T19:27:13.000Z</time>
      </trkpt>
      <trkpt lat="48.95276" lon="2.26876">
        <ele>58.599998474121</ele>
        <time>2016-05-02T19:27:17.000Z</time>
      </trkpt>
      <trkpt lat="48.95287" lon="2.26902">
        <ele>59.400001525879</ele>
        <time>2016-05-02T19:27:21.000Z</time>
      </trkpt>
      <trkpt lat="48.95298" lon="2.26927">
        <ele>60.599998474121</ele>
        <time>2016-05-02T19:27:25.000Z</time>
      </trkpt>
      <trkpt lat="48.95308" lon="2.26953">
        <ele>61.599998474121</ele>
        <time>2016-05-02T19:27:29.000Z</time>
      </trkpt>
      <trkpt lat="48.95318" lon="2.26977">
        <ele>62.599998474121</ele>
        <time>2016-05-02T19:27:33.000Z</time>
      </trkpt>
      <trkpt lat="48.95323" lon="2.2699">
        <ele>63.200000762939</ele>
        <time>2016-05-02T19:27:35.000Z</time>
      </trkpt>
      <trkpt lat="48.95331" lon="2.27009">
        <ele>63.799999237061</ele>
        <time>2016-05-02T19:27:38.000Z</time>
      </trkpt>
      <trkpt lat="48.95342" lon="2.27035">
        <ele>64.800003051758</ele>
        <time>2016-05-02T19:27:42.000Z</time>
      </trkpt>
      <trkpt lat="48.95345" lon="2.27041">
        <ele>65</ele>
        <time>2016-05-02T19:27:43.000Z</time>
      </trkpt>
      <trkpt lat="48.95355" lon="2.27067">
        <ele>65.800003051758</ele>
        <time>2016-05-02T19:27:47.000Z</time>
      </trkpt>
      <trkpt lat="48.95365" lon="2.27091">
        <ele>66.599998474121</ele>
        <time>2016-05-02T19:27:51.000Z</time>
      </trkpt>
      <trkpt lat="48.95375" lon="2.27114">
        <ele>67.599998474121</ele>
        <time>2016-05-02T19:27:55.000Z</time>
      </trkpt>
      <trkpt lat="48.95385" lon="2.27139">
        <ele>68.800003051758</ele>
        <time>2016-05-02T19:27:59.000Z</time>
      </trkpt>
      <trkpt lat="48.95391" lon="2.27151">
        <ele>69.400001525879</ele>
        <time>2016-05-02T19:28:01.000Z</time>
      </trkpt>
      <trkpt lat="48.95401" lon="2.27177">
        <ele>70.199996948242</ele>
        <time>2016-05-02T19:28:05.000Z</time>
      </trkpt>
      <trkpt lat="48.95409" lon="2.27196">
        <ele>70.800003051758</ele>
        <time>2016-05-02T19:28:08.000Z</time>
      </trkpt>
      <trkpt lat="48.95419" lon="2.27225">
        <ele>71.599998474121</ele>
        <time>2016-05-02T19:28:12.000Z</time>
      </trkpt>
      <trkpt lat="48.95431" lon="2.27252">
        <ele>72.599998474121</ele>
        <time>2016-05-02T19:28:16.000Z</time>
      </trkpt>
      <trkpt lat="48.95436" lon="2.27265">
        <ele>72.800003051758</ele>
        <time>2016-05-02T19:28:18.000Z</time>
      </trkpt>
      <trkpt lat="48.95446" lon="2.27294">
        <ele>73.199996948242</ele>
        <time>2016-05-02T19:28:22.000Z</time>
      </trkpt>
      <trkpt lat="48.95456" lon="2.27321">
        <ele>73.400001525879</ele>
        <time>2016-05-02T19:28:26.000Z</time>
      </trkpt>
      <trkpt lat="48.95467" lon="2.27349">
        <ele>73.599998474121</ele>
        <time>2016-05-02T19:28:30.000Z</time>
      </trkpt>
      <trkpt lat="48.95478" lon="2.27376">
        <ele>74.400001525879</ele>
        <time>2016-05-02T19:28:34.000Z</time>
      </trkpt>
      <trkpt lat="48.95488" lon="2.27402">
        <ele>75.400001525879</ele>
        <time>2016-05-02T19:28:38.000Z</time>
      </trkpt>
      <trkpt lat="48.95498" lon="2.27427">
        <ele>76.199996948242</ele>
        <time>2016-05-02T19:28:42.000Z</time>
      </trkpt>
      <trkpt lat="48.95508" lon="2.27453">
        <ele>76.800003051758</ele>
        <time>2016-05-02T19:28:46.000Z</time>
      </trkpt>
      <trkpt lat="48.95518" lon="2.27477">
        <ele>77.400001525879</ele>
        <time>2016-05-02T19:28:50.000Z</time>
      </trkpt>
      <trkpt lat="48.95529" lon="2.27505">
        <ele>77.599998474121</ele>
        <time>2016-05-02T19:28:55.000Z</time>
      </trkpt>
      <trkpt lat="48.95535" lon="2.27524">
        <ele>76.800003051758</ele>
        <time>2016-05-02T19:28:59.000Z</time>
      </trkpt>
      <trkpt lat="48.95539" lon="2.27538">
        <ele>76.199996948242</ele>
        <time>2016-05-02T19:29:03.000Z</time>
      </trkpt>
      <trkpt lat="48.9554" lon="2.27541">
        <ele>76</ele>
        <time>2016-05-02T19:29:04.000Z</time>
      </trkpt>
      <trkpt lat="48.95541" lon="2.2755">
        <ele>75.599998474121</ele>
        <time>2016-05-02T19:29:08.000Z</time>
      </trkpt>
      <trkpt lat="48.95542" lon="2.27551">
        <ele>75.599998474121</ele>
        <time>2016-05-02T19:29:09.000Z</time>
      </trkpt>
      <trkpt lat="48.95542" lon="2.27553">
        <ele>75.599998474121</ele>
        <time>2016-05-02T19:29:11.000Z</time>
      </trkpt>
      <trkpt lat="48.95541" lon="2.2755">
        <ele>75.599998474121</ele>
        <time>2016-05-02T19:31:19.000Z</time>
      </trkpt>
      <trkpt lat="48.95548" lon="2.27567">
        <ele>74.800003051758</ele>
        <time>2016-05-02T19:32:01.000Z</time>
      </trkpt>
      <trkpt lat="48.95554" lon="2.27596">
        <ele>74.199996948242</ele>
        <time>2016-05-02T19:32:08.000Z</time>
      </trkpt>
      <trkpt lat="48.95559" lon="2.27624">
        <ele>74</ele>
        <time>2016-05-02T19:32:14.000Z</time>
      </trkpt>
      <trkpt lat="48.95565" lon="2.27652">
        <ele>73.599998474121</ele>
        <time>2016-05-02T19:32:20.000Z</time>
      </trkpt>
      <trkpt lat="48.9557" lon="2.27682">
        <ele>73</ele>
        <time>2016-05-02T19:32:26.000Z</time>
      </trkpt>
      <trkpt lat="48.95572" lon="2.27711">
        <ele>72.199996948242</ele>
        <time>2016-05-02T19:32:31.000Z</time>
      </trkpt>
      <trkpt lat="48.95577" lon="2.27742">
        <ele>71.400001525879</ele>
        <time>2016-05-02T19:32:36.000Z</time>
      </trkpt>
      <trkpt lat="48.95583" lon="2.27774">
        <ele>71.199996948242</ele>
        <time>2016-05-02T19:32:41.000Z</time>
      </trkpt>
      <trkpt lat="48.95587" lon="2.27801">
        <ele>71.199996948242</ele>
        <time>2016-05-02T19:32:45.000Z</time>
      </trkpt>
      <trkpt lat="48.95592" lon="2.27832">
        <ele>71</ele>
        <time>2016-05-02T19:32:51.000Z</time>
      </trkpt>
      <trkpt lat="48.95597" lon="2.27863">
        <ele>70.199996948242</ele>
        <time>2016-05-02T19:32:56.000Z</time>
      </trkpt>
      <trkpt lat="48.95602" lon="2.27892">
        <ele>69.599998474121</ele>
        <time>2016-05-02T19:33:00.000Z</time>
      </trkpt>
      <trkpt lat="48.95606" lon="2.27923">
        <ele>68.800003051758</ele>
        <time>2016-05-02T19:33:04.000Z</time>
      </trkpt>
      <trkpt lat="48.95611" lon="2.27953">
        <ele>68.599998474121</ele>
        <time>2016-05-02T19:33:08.000Z</time>
      </trkpt>
      <trkpt lat="48.95615" lon="2.27981">
        <ele>68.199996948242</ele>
        <time>2016-05-02T19:33:12.000Z</time>
      </trkpt>
      <trkpt lat="48.9562" lon="2.28013">
        <ele>67.800003051758</ele>
        <time>2016-05-02T19:33:17.000Z</time>
      </trkpt>
      <trkpt lat="48.95626" lon="2.28046">
        <ele>67.800003051758</ele>
        <time>2016-05-02T19:33:22.000Z</time>
      </trkpt>
      <trkpt lat="48.95631" lon="2.28077">
        <ele>67.800003051758</ele>
        <time>2016-05-02T19:33:27.000Z</time>
      </trkpt>
      <trkpt lat="48.95634" lon="2.28098">
        <ele>67</ele>
        <time>2016-05-02T19:33:30.000Z</time>
      </trkpt>
      <trkpt lat="48.9564" lon="2.28127">
        <ele>66</ele>
        <time>2016-05-02T19:33:34.000Z</time>
      </trkpt>
      <trkpt lat="48.95645" lon="2.28158">
        <ele>64.800003051758</ele>
        <time>2016-05-02T19:33:38.000Z</time>
      </trkpt>
      <trkpt lat="48.95649" lon="2.2819">
        <ele>64.199996948242</ele>
        <time>2016-05-02T19:33:42.000Z</time>
      </trkpt>
      <trkpt lat="48.95654" lon="2.28223">
        <ele>63.799999237061</ele>
        <time>2016-05-02T19:33:46.000Z</time>
      </trkpt>
      <trkpt lat="48.9566" lon="2.28257">
        <ele>63</ele>
        <time>2016-05-02T19:33:50.000Z</time>
      </trkpt>
      <trkpt lat="48.95664" lon="2.28284">
        <ele>62</ele>
        <time>2016-05-02T19:33:53.000Z</time>
      </trkpt>
      <trkpt lat="48.95667" lon="2.28312">
        <ele>61</ele>
        <time>2016-05-02T19:33:56.000Z</time>
      </trkpt>
      <trkpt lat="48.95672" lon="2.28345">
        <ele>60.200000762939</ele>
        <time>2016-05-02T19:34:00.000Z</time>
      </trkpt>
      <trkpt lat="48.95677" lon="2.28377">
        <ele>60.200000762939</ele>
        <time>2016-05-02T19:34:04.000Z</time>
      </trkpt>
      <trkpt lat="48.95682" lon="2.2841">
        <ele>60</ele>
        <time>2016-05-02T19:34:08.000Z</time>
      </trkpt>
      <trkpt lat="48.95686" lon="2.28442">
        <ele>59.599998474121</ele>
        <time>2016-05-02T19:34:12.000Z</time>
      </trkpt>
      <trkpt lat="48.95692" lon="2.28475">
        <ele>59.200000762939</ele>
        <time>2016-05-02T19:34:16.000Z</time>
      </trkpt>
      <trkpt lat="48.95697" lon="2.28509">
        <ele>58.799999237061</ele>
        <time>2016-05-02T19:34:20.000Z</time>
      </trkpt>
      <trkpt lat="48.957" lon="2.28541">
        <ele>58</ele>
        <time>2016-05-02T19:34:24.000Z</time>
      </trkpt>
      <trkpt lat="48.95703" lon="2.28575">
        <ele>57.200000762939</ele>
        <time>2016-05-02T19:34:28.000Z</time>
      </trkpt>
      <trkpt lat="48.95708" lon="2.28607">
        <ele>56.799999237061</ele>
        <time>2016-05-02T19:34:32.000Z</time>
      </trkpt>
      <trkpt lat="48.95713" lon="2.28639">
        <ele>56.599998474121</ele>
        <time>2016-05-02T19:34:36.000Z</time>
      </trkpt>
      <trkpt lat="48.95716" lon="2.28663">
        <ele>56.400001525879</ele>
        <time>2016-05-02T19:34:39.000Z</time>
      </trkpt>
      <trkpt lat="48.95722" lon="2.28692">
        <ele>56.400001525879</ele>
        <time>2016-05-02T19:34:43.000Z</time>
      </trkpt>
      <trkpt lat="48.95728" lon="2.28719">
        <ele>56.400001525879</ele>
        <time>2016-05-02T19:34:47.000Z</time>
      </trkpt>
      <trkpt lat="48.95729" lon="2.28726">
        <ele>56.400001525879</ele>
        <time>2016-05-02T19:34:48.000Z</time>
      </trkpt>
      <trkpt lat="48.95733" lon="2.28738">
        <ele>56.400001525879</ele>
        <time>2016-05-02T19:34:50.000Z</time>
      </trkpt>
      <trkpt lat="48.95736" lon="2.28756">
        <ele>56.599998474121</ele>
        <time>2016-05-02T19:34:53.000Z</time>
      </trkpt>
      <trkpt lat="48.95743" lon="2.28785">
        <ele>56.599998474121</ele>
        <time>2016-05-02T19:34:59.000Z</time>
      </trkpt>
      <trkpt lat="48.95752" lon="2.28811">
        <ele>56.799999237061</ele>
        <time>2016-05-02T19:35:04.000Z</time>
      </trkpt>
      <trkpt lat="48.95754" lon="2.28816">
        <ele>56.799999237061</ele>
        <time>2016-05-02T19:35:05.000Z</time>
      </trkpt>
      <trkpt lat="48.95766" lon="2.28833">
        <ele>56.799999237061</ele>
        <time>2016-05-02T19:35:09.000Z</time>
      </trkpt>
      <trkpt lat="48.95769" lon="2.2884">
        <ele>56.599998474121</ele>
        <time>2016-05-02T19:35:10.000Z</time>
      </trkpt>
      <trkpt lat="48.95784" lon="2.28863">
        <ele>56</ele>
        <time>2016-05-02T19:35:15.000Z</time>
      </trkpt>
      <trkpt lat="48.95798" lon="2.28888">
        <ele>55.200000762939</ele>
        <time>2016-05-02T19:35:20.000Z</time>
      </trkpt>
      <trkpt lat="48.95811" lon="2.28909">
        <ele>54.599998474121</ele>
        <time>2016-05-02T19:35:24.000Z</time>
      </trkpt>
      <trkpt lat="48.95825" lon="2.28933">
        <ele>54.599998474121</ele>
        <time>2016-05-02T19:35:28.000Z</time>
      </trkpt>
      <trkpt lat="48.95839" lon="2.28959">
        <ele>54.799999237061</ele>
        <time>2016-05-02T19:35:32.000Z</time>
      </trkpt>
      <trkpt lat="48.95854" lon="2.28985">
        <ele>55</ele>
        <time>2016-05-02T19:35:36.000Z</time>
      </trkpt>
      <trkpt lat="48.95871" lon="2.2901">
        <ele>54.599998474121</ele>
        <time>2016-05-02T19:35:40.000Z</time>
      </trkpt>
      <trkpt lat="48.95886" lon="2.29035">
        <ele>54.200000762939</ele>
        <time>2016-05-02T19:35:44.000Z</time>
      </trkpt>
      <trkpt lat="48.959" lon="2.29061">
        <ele>53.799999237061</ele>
        <time>2016-05-02T19:35:48.000Z</time>
      </trkpt>
      <trkpt lat="48.95916" lon="2.29085">
        <ele>53.200000762939</ele>
        <time>2016-05-02T19:35:52.000Z</time>
      </trkpt>
      <trkpt lat="48.9593" lon="2.29104">
        <ele>52.599998474121</ele>
        <time>2016-05-02T19:35:55.000Z</time>
      </trkpt>
      <trkpt lat="48.95947" lon="2.29124">
        <ele>52</ele>
        <time>2016-05-02T19:35:58.000Z</time>
      </trkpt>
      <trkpt lat="48.95961" lon="2.29142">
        <ele>51.799999237061</ele>
        <time>2016-05-02T19:36:01.000Z</time>
      </trkpt>
      <trkpt lat="48.95975" lon="2.29161">
        <ele>51.400001525879</ele>
        <time>2016-05-02T19:36:04.000Z</time>
      </trkpt>
      <trkpt lat="48.95992" lon="2.29188">
        <ele>51.400001525879</ele>
        <time>2016-05-02T19:36:08.000Z</time>
      </trkpt>
      <trkpt lat="48.96007" lon="2.29208">
        <ele>51.200000762939</ele>
        <time>2016-05-02T19:36:11.000Z</time>
      </trkpt>
      <trkpt lat="48.96022" lon="2.2923">
        <ele>51.200000762939</ele>
        <time>2016-05-02T19:36:14.000Z</time>
      </trkpt>
      <trkpt lat="48.96035" lon="2.29251">
        <ele>50.799999237061</ele>
        <time>2016-05-02T19:36:17.000Z</time>
      </trkpt>
      <trkpt lat="48.9605" lon="2.29272">
        <ele>50.400001525879</ele>
        <time>2016-05-02T19:36:20.000Z</time>
      </trkpt>
      <trkpt lat="48.96055" lon="2.29279">
        <ele>50.200000762939</ele>
        <time>2016-05-02T19:36:21.000Z</time>
      </trkpt>
      <trkpt lat="48.96066" lon="2.293">
        <ele>50</ele>
        <time>2016-05-02T19:36:24.000Z</time>
      </trkpt>
      <trkpt lat="48.96077" lon="2.29323">
        <ele>49.799999237061</ele>
        <time>2016-05-02T19:36:27.000Z</time>
      </trkpt>
      <trkpt lat="48.96087" lon="2.29347">
        <ele>49.200000762939</ele>
        <time>2016-05-02T19:36:30.000Z</time>
      </trkpt>
      <trkpt lat="48.96101" lon="2.29375">
        <ele>48.599998474121</ele>
        <time>2016-05-02T19:36:34.000Z</time>
      </trkpt>
      <trkpt lat="48.96114" lon="2.294">
        <ele>48.200000762939</ele>
        <time>2016-05-02T19:36:38.000Z</time>
      </trkpt>
      <trkpt lat="48.96127" lon="2.29427">
        <ele>47.799999237061</ele>
        <time>2016-05-02T19:36:43.000Z</time>
      </trkpt>
      <trkpt lat="48.96134" lon="2.29448">
        <ele>47.599998474121</ele>
        <time>2016-05-02T19:36:47.000Z</time>
      </trkpt>
      <trkpt lat="48.96142" lon="2.29467">
        <ele>47.400001525879</ele>
        <time>2016-05-02T19:36:51.000Z</time>
      </trkpt>
      <trkpt lat="48.96149" lon="2.29476">
        <ele>47.200000762939</ele>
        <time>2016-05-02T19:36:54.000Z</time>
      </trkpt>
      <trkpt lat="48.96156" lon="2.29491">
        <ele>47</ele>
        <time>2016-05-02T19:36:57.000Z</time>
      </trkpt>
      <trkpt lat="48.96158" lon="2.29499">
        <ele>47</ele>
        <time>2016-05-02T19:36:59.000Z</time>
      </trkpt>
      <trkpt lat="48.96159" lon="2.29526">
        <ele>47.799999237061</ele>
        <time>2016-05-02T19:37:14.000Z</time>
      </trkpt>
      <trkpt lat="48.96152" lon="2.29553">
        <ele>48</ele>
        <time>2016-05-02T19:37:20.000Z</time>
      </trkpt>
      <trkpt lat="48.96142" lon="2.29578">
        <ele>47.200000762939</ele>
        <time>2016-05-02T19:37:25.000Z</time>
      </trkpt>
      <trkpt lat="48.96138" lon="2.29591">
        <ele>47</ele>
        <time>2016-05-02T19:37:27.000Z</time>
      </trkpt>
      <trkpt lat="48.96127" lon="2.29617">
        <ele>47</ele>
        <time>2016-05-02T19:37:31.000Z</time>
      </trkpt>
      <trkpt lat="48.96115" lon="2.29643">
        <ele>47</ele>
        <time>2016-05-02T19:37:35.000Z</time>
      </trkpt>
      <trkpt lat="48.96103" lon="2.29671">
        <ele>46.599998474121</ele>
        <time>2016-05-02T19:37:39.000Z</time>
      </trkpt>
      <trkpt lat="48.96089" lon="2.29699">
        <ele>45.400001525879</ele>
        <time>2016-05-02T19:37:43.000Z</time>
      </trkpt>
      <trkpt lat="48.96077" lon="2.29721">
        <ele>44.599998474121</ele>
        <time>2016-05-02T19:37:46.000Z</time>
      </trkpt>
      <trkpt lat="48.96065" lon="2.29745">
        <ele>44</ele>
        <time>2016-05-02T19:37:49.000Z</time>
      </trkpt>
      <trkpt lat="48.96051" lon="2.29768">
        <ele>43.400001525879</ele>
        <time>2016-05-02T19:37:52.000Z</time>
      </trkpt>
      <trkpt lat="48.96038" lon="2.29792">
        <ele>43.200000762939</ele>
        <time>2016-05-02T19:37:55.000Z</time>
      </trkpt>
      <trkpt lat="48.96026" lon="2.29814">
        <ele>43</ele>
        <time>2016-05-02T19:37:58.000Z</time>
      </trkpt>
      <trkpt lat="48.96015" lon="2.29837">
        <ele>43</ele>
        <time>2016-05-02T19:38:01.000Z</time>
      </trkpt>
      <trkpt lat="48.96002" lon="2.29861">
        <ele>42.599998474121</ele>
        <time>2016-05-02T19:38:04.000Z</time>
      </trkpt>
      <trkpt lat="48.95989" lon="2.29883">
        <ele>42.200000762939</ele>
        <time>2016-05-02T19:38:07.000Z</time>
      </trkpt>
      <trkpt lat="48.95975" lon="2.29906">
        <ele>41.599998474121</ele>
        <time>2016-05-02T19:38:10.000Z</time>
      </trkpt>
      <trkpt lat="48.95961" lon="2.29927">
        <ele>41.400001525879</ele>
        <time>2016-05-02T19:38:13.000Z</time>
      </trkpt>
      <trkpt lat="48.95947" lon="2.29949">
        <ele>41.599998474121</ele>
        <time>2016-05-02T19:38:16.000Z</time>
      </trkpt>
      <trkpt lat="48.95934" lon="2.29969">
        <ele>41.599998474121</ele>
        <time>2016-05-02T19:38:19.000Z</time>
      </trkpt>
      <trkpt lat="48.95921" lon="2.29992">
        <ele>41.799999237061</ele>
        <time>2016-05-02T19:38:22.000Z</time>
      </trkpt>
      <trkpt lat="48.95909" lon="2.30013">
        <ele>41.599998474121</ele>
        <time>2016-05-02T19:38:25.000Z</time>
      </trkpt>
      <trkpt lat="48.95896" lon="2.30037">
        <ele>41.400001525879</ele>
        <time>2016-05-02T19:38:28.000Z</time>
      </trkpt>
      <trkpt lat="48.95883" lon="2.30059">
        <ele>40.799999237061</ele>
        <time>2016-05-02T19:38:31.000Z</time>
      </trkpt>
      <trkpt lat="48.95869" lon="2.30082">
        <ele>40.200000762939</ele>
        <time>2016-05-02T19:38:34.000Z</time>
      </trkpt>
      <trkpt lat="48.95855" lon="2.30107">
        <ele>40</ele>
        <time>2016-05-02T19:38:37.000Z</time>
      </trkpt>
      <trkpt lat="48.95841" lon="2.30133">
        <ele>40</ele>
        <time>2016-05-02T19:38:40.000Z</time>
      </trkpt>
      <trkpt lat="48.95827" lon="2.30159">
        <ele>39.599998474121</ele>
        <time>2016-05-02T19:38:43.000Z</time>
      </trkpt>
      <trkpt lat="48.95814" lon="2.30183">
        <ele>39.200000762939</ele>
        <time>2016-05-02T19:38:46.000Z</time>
      </trkpt>
      <trkpt lat="48.95801" lon="2.30204">
        <ele>38.799999237061</ele>
        <time>2016-05-02T19:38:49.000Z</time>
      </trkpt>
      <trkpt lat="48.95786" lon="2.3023">
        <ele>38.400001525879</ele>
        <time>2016-05-02T19:38:53.000Z</time>
      </trkpt>
      <trkpt lat="48.9577" lon="2.30256">
        <ele>38.200000762939</ele>
        <time>2016-05-02T19:38:57.000Z</time>
      </trkpt>
      <trkpt lat="48.95755" lon="2.30283">
        <ele>38.599998474121</ele>
        <time>2016-05-02T19:39:01.000Z</time>
      </trkpt>
      <trkpt lat="48.95739" lon="2.30308">
        <ele>39</ele>
        <time>2016-05-02T19:39:05.000Z</time>
      </trkpt>
      <trkpt lat="48.95723" lon="2.30334">
        <ele>38.799999237061</ele>
        <time>2016-05-02T19:39:09.000Z</time>
      </trkpt>
      <trkpt lat="48.95716" lon="2.30346">
        <ele>38.400001525879</ele>
        <time>2016-05-02T19:39:11.000Z</time>
      </trkpt>
      <trkpt lat="48.957" lon="2.30374">
        <ele>37.799999237061</ele>
        <time>2016-05-02T19:39:15.000Z</time>
      </trkpt>
      <trkpt lat="48.95688" lon="2.30399">
        <ele>37.400001525879</ele>
        <time>2016-05-02T19:39:19.000Z</time>
      </trkpt>
      <trkpt lat="48.95677" lon="2.30424">
        <ele>37.599998474121</ele>
        <time>2016-05-02T19:39:23.000Z</time>
      </trkpt>
      <trkpt lat="48.95665" lon="2.30451">
        <ele>38.200000762939</ele>
        <time>2016-05-02T19:39:27.000Z</time>
      </trkpt>
      <trkpt lat="48.95651" lon="2.30477">
        <ele>39</ele>
        <time>2016-05-02T19:39:31.000Z</time>
      </trkpt>
      <trkpt lat="48.95637" lon="2.30505">
        <ele>39.599998474121</ele>
        <time>2016-05-02T19:39:35.000Z</time>
      </trkpt>
      <trkpt lat="48.95628" lon="2.30522">
        <ele>40.200000762939</ele>
        <time>2016-05-02T19:39:38.000Z</time>
      </trkpt>
      <trkpt lat="48.95616" lon="2.30543">
        <ele>40.799999237061</ele>
        <time>2016-05-02T19:39:42.000Z</time>
      </trkpt>
      <trkpt lat="48.95602" lon="2.30565">
        <ele>41.200000762939</ele>
        <time>2016-05-02T19:39:46.000Z</time>
      </trkpt>
      <trkpt lat="48.95595" lon="2.30577">
        <ele>41.400001525879</ele>
        <time>2016-05-02T19:39:48.000Z</time>
      </trkpt>
      <trkpt lat="48.95582" lon="2.30597">
        <ele>41.599998474121</ele>
        <time>2016-05-02T19:39:52.000Z</time>
      </trkpt>
      <trkpt lat="48.95567" lon="2.30618">
        <ele>42</ele>
        <time>2016-05-02T19:39:56.000Z</time>
      </trkpt>
      <trkpt lat="48.95556" lon="2.30633">
        <ele>42.200000762939</ele>
        <time>2016-05-02T19:39:59.000Z</time>
      </trkpt>
      <trkpt lat="48.95542" lon="2.30656">
        <ele>42.599998474121</ele>
        <time>2016-05-02T19:40:03.000Z</time>
      </trkpt>
      <trkpt lat="48.95529" lon="2.30679">
        <ele>42.799999237061</ele>
        <time>2016-05-02T19:40:07.000Z</time>
      </trkpt>
      <trkpt lat="48.95517" lon="2.30701">
        <ele>42.400001525879</ele>
        <time>2016-05-02T19:40:11.000Z</time>
      </trkpt>
      <trkpt lat="48.95503" lon="2.30723">
        <ele>42</ele>
        <time>2016-05-02T19:40:16.000Z</time>
      </trkpt>
      <trkpt lat="48.95501" lon="2.30726">
        <ele>42</ele>
        <time>2016-05-02T19:40:17.000Z</time>
      </trkpt>
      <trkpt lat="48.95492" lon="2.30737">
        <ele>42.200000762939</ele>
        <time>2016-05-02T19:40:20.000Z</time>
      </trkpt>
      <trkpt lat="48.95483" lon="2.30753">
        <ele>42.400001525879</ele>
        <time>2016-05-02T19:40:24.000Z</time>
      </trkpt>
      <trkpt lat="48.95471" lon="2.30776">
        <ele>42.599998474121</ele>
        <time>2016-05-02T19:40:33.000Z</time>
      </trkpt>
      <trkpt lat="48.95457" lon="2.30783">
        <ele>42.799999237061</ele>
        <time>2016-05-02T19:40:43.000Z</time>
      </trkpt>
      <trkpt lat="48.95437" lon="2.3078">
        <ele>42.799999237061</ele>
        <time>2016-05-02T19:40:49.000Z</time>
      </trkpt>
      <trkpt lat="48.95417" lon="2.30773">
        <ele>42.400001525879</ele>
        <time>2016-05-02T19:40:54.000Z</time>
      </trkpt>
      <trkpt lat="48.95395" lon="2.30767">
        <ele>41.799999237061</ele>
        <time>2016-05-02T19:40:59.000Z</time>
      </trkpt>
      <trkpt lat="48.95375" lon="2.30762">
        <ele>41.400001525879</ele>
        <time>2016-05-02T19:41:03.000Z</time>
      </trkpt>
      <trkpt lat="48.95352" lon="2.30756">
        <ele>40.599998474121</ele>
        <time>2016-05-02T19:41:07.000Z</time>
      </trkpt>
      <trkpt lat="48.95334" lon="2.30751">
        <ele>39.799999237061</ele>
        <time>2016-05-02T19:41:10.000Z</time>
      </trkpt>
      <trkpt lat="48.95312" lon="2.30746">
        <ele>38.799999237061</ele>
        <time>2016-05-02T19:41:14.000Z</time>
      </trkpt>
      <trkpt lat="48.95291" lon="2.30739">
        <ele>37.799999237061</ele>
        <time>2016-05-02T19:41:18.000Z</time>
      </trkpt>
      <trkpt lat="48.9527" lon="2.30733">
        <ele>36.599998474121</ele>
        <time>2016-05-02T19:41:22.000Z</time>
      </trkpt>
      <trkpt lat="48.95247" lon="2.30725">
        <ele>34.599998474121</ele>
        <time>2016-05-02T19:41:26.000Z</time>
      </trkpt>
      <trkpt lat="48.95229" lon="2.3072">
        <ele>33.200000762939</ele>
        <time>2016-05-02T19:41:29.000Z</time>
      </trkpt>
      <trkpt lat="48.95206" lon="2.30715">
        <ele>31.200000762939</ele>
        <time>2016-05-02T19:41:33.000Z</time>
      </trkpt>
      <trkpt lat="48.95183" lon="2.30711">
        <ele>30.200000762939</ele>
        <time>2016-05-02T19:41:37.000Z</time>
      </trkpt>
      <trkpt lat="48.95161" lon="2.30705">
        <ele>30.799999237061</ele>
        <time>2016-05-02T19:41:41.000Z</time>
      </trkpt>
      <trkpt lat="48.95139" lon="2.30699">
        <ele>31.200000762939</ele>
        <time>2016-05-02T19:41:45.000Z</time>
      </trkpt>
      <trkpt lat="48.95118" lon="2.30692">
        <ele>31.60000038147</ele>
        <time>2016-05-02T19:41:49.000Z</time>
      </trkpt>
      <trkpt lat="48.95108" lon="2.30688">
        <ele>31.799999237061</ele>
        <time>2016-05-02T19:41:51.000Z</time>
      </trkpt>
      <trkpt lat="48.95086" lon="2.3068">
        <ele>31.200000762939</ele>
        <time>2016-05-02T19:41:55.000Z</time>
      </trkpt>
      <trkpt lat="48.95065" lon="2.30674">
        <ele>30.799999237061</ele>
        <time>2016-05-02T19:41:59.000Z</time>
      </trkpt>
      <trkpt lat="48.95045" lon="2.30666">
        <ele>30.39999961853</ele>
        <time>2016-05-02T19:42:03.000Z</time>
      </trkpt>
      <trkpt lat="48.95025" lon="2.30659">
        <ele>30</ele>
        <time>2016-05-02T19:42:07.000Z</time>
      </trkpt>
      <trkpt lat="48.95005" lon="2.30653">
        <ele>29</ele>
        <time>2016-05-02T19:42:11.000Z</time>
      </trkpt>
      <trkpt lat="48.94983" lon="2.30646">
        <ele>27.799999237061</ele>
        <time>2016-05-02T19:42:15.000Z</time>
      </trkpt>
      <trkpt lat="48.94961" lon="2.30638">
        <ele>26.60000038147</ele>
        <time>2016-05-02T19:42:19.000Z</time>
      </trkpt>
      <trkpt lat="48.9494" lon="2.30625">
        <ele>25.60000038147</ele>
        <time>2016-05-02T19:42:23.000Z</time>
      </trkpt>
      <trkpt lat="48.9492" lon="2.30613">
        <ele>26.60000038147</ele>
        <time>2016-05-02T19:42:27.000Z</time>
      </trkpt>
      <trkpt lat="48.94899" lon="2.306">
        <ele>27.799999237061</ele>
        <time>2016-05-02T19:42:31.000Z</time>
      </trkpt>
      <trkpt lat="48.94877" lon="2.30588">
        <ele>29</ele>
        <time>2016-05-02T19:42:35.000Z</time>
      </trkpt>
      <trkpt lat="48.94856" lon="2.30575">
        <ele>30</ele>
        <time>2016-05-02T19:42:39.000Z</time>
      </trkpt>
      <trkpt lat="48.94835" lon="2.3056">
        <ele>30</ele>
        <time>2016-05-02T19:42:43.000Z</time>
      </trkpt>
      <trkpt lat="48.94819" lon="2.30547">
        <ele>30</ele>
        <time>2016-05-02T19:42:46.000Z</time>
      </trkpt>
      <trkpt lat="48.94808" lon="2.30539">
        <ele>29.799999237061</ele>
        <time>2016-05-02T19:42:48.000Z</time>
      </trkpt>
      <trkpt lat="48.9479" lon="2.30527">
        <ele>29.799999237061</ele>
        <time>2016-05-02T19:42:51.000Z</time>
      </trkpt>
      <trkpt lat="48.94773" lon="2.30517">
        <ele>29.799999237061</ele>
        <time>2016-05-02T19:42:54.000Z</time>
      </trkpt>
      <trkpt lat="48.94754" lon="2.30506">
        <ele>29.60000038147</ele>
        <time>2016-05-02T19:42:57.000Z</time>
      </trkpt>
      <trkpt lat="48.94735" lon="2.30493">
        <ele>29.39999961853</ele>
        <time>2016-05-02T19:43:00.000Z</time>
      </trkpt>
      <trkpt lat="48.94716" lon="2.3048">
        <ele>29.200000762939</ele>
        <time>2016-05-02T19:43:03.000Z</time>
      </trkpt>
      <trkpt lat="48.94697" lon="2.30466">
        <ele>28.799999237061</ele>
        <time>2016-05-02T19:43:06.000Z</time>
      </trkpt>
      <trkpt lat="48.94677" lon="2.30454">
        <ele>28.60000038147</ele>
        <time>2016-05-02T19:43:09.000Z</time>
      </trkpt>
      <trkpt lat="48.94657" lon="2.30446">
        <ele>28.799999237061</ele>
        <time>2016-05-02T19:43:12.000Z</time>
      </trkpt>
      <trkpt lat="48.94636" lon="2.30436">
        <ele>29</ele>
        <time>2016-05-02T19:43:16.000Z</time>
      </trkpt>
      <trkpt lat="48.94617" lon="2.30426">
        <ele>29</ele>
        <time>2016-05-02T19:43:20.000Z</time>
      </trkpt>
      <trkpt lat="48.94599" lon="2.30419">
        <ele>29</ele>
        <time>2016-05-02T19:43:24.000Z</time>
      </trkpt>
      <trkpt lat="48.9458" lon="2.30412">
        <ele>29</ele>
        <time>2016-05-02T19:43:28.000Z</time>
      </trkpt>
      <trkpt lat="48.9456" lon="2.30405">
        <ele>29</ele>
        <time>2016-05-02T19:43:32.000Z</time>
      </trkpt>
      <trkpt lat="48.94541" lon="2.30398">
        <ele>29</ele>
        <time>2016-05-02T19:43:36.000Z</time>
      </trkpt>
      <trkpt lat="48.94523" lon="2.30391">
        <ele>29</ele>
        <time>2016-05-02T19:43:40.000Z</time>
      </trkpt>
      <trkpt lat="48.94506" lon="2.30382">
        <ele>29.39999961853</ele>
        <time>2016-05-02T19:43:44.000Z</time>
      </trkpt>
      <trkpt lat="48.94484" lon="2.30375">
        <ele>30</ele>
        <time>2016-05-02T19:43:48.000Z</time>
      </trkpt>
      <trkpt lat="48.94461" lon="2.30366">
        <ele>30.39999961853</ele>
        <time>2016-05-02T19:43:52.000Z</time>
      </trkpt>
      <trkpt lat="48.94439" lon="2.3036">
        <ele>30.60000038147</ele>
        <time>2016-05-02T19:43:56.000Z</time>
      </trkpt>
      <trkpt lat="48.9442" lon="2.30355">
        <ele>30.39999961853</ele>
        <time>2016-05-02T19:44:00.000Z</time>
      </trkpt>
      <trkpt lat="48.94399" lon="2.30348">
        <ele>30.200000762939</ele>
        <time>2016-05-02T19:44:04.000Z</time>
      </trkpt>
      <trkpt lat="48.94376" lon="2.3034">
        <ele>30.200000762939</ele>
        <time>2016-05-02T19:44:08.000Z</time>
      </trkpt>
      <trkpt lat="48.94359" lon="2.30333">
        <ele>30</ele>
        <time>2016-05-02T19:44:11.000Z</time>
      </trkpt>
      <trkpt lat="48.94342" lon="2.30324">
        <ele>29.799999237061</ele>
        <time>2016-05-02T19:44:14.000Z</time>
      </trkpt>
      <trkpt lat="48.94324" lon="2.30315">
        <ele>29.60000038147</ele>
        <time>2016-05-02T19:44:17.000Z</time>
      </trkpt>
      <trkpt lat="48.94318" lon="2.30314">
        <ele>29.60000038147</ele>
        <time>2016-05-02T19:44:18.000Z</time>
      </trkpt>
      <trkpt lat="48.94295" lon="2.30307">
        <ele>29.39999961853</ele>
        <time>2016-05-02T19:44:22.000Z</time>
      </trkpt>
      <trkpt lat="48.94274" lon="2.30299">
        <ele>29.200000762939</ele>
        <time>2016-05-02T19:44:26.000Z</time>
      </trkpt>
      <trkpt lat="48.94268" lon="2.30299">
        <ele>29.200000762939</ele>
        <time>2016-05-02T19:44:27.000Z</time>
      </trkpt>
      <trkpt lat="48.94259" lon="2.30295">
        <ele>29</ele>
        <time>2016-05-02T19:44:29.000Z</time>
      </trkpt>
      <trkpt lat="48.9425" lon="2.30295">
        <ele>28.799999237061</ele>
        <time>2016-05-02T19:44:31.000Z</time>
      </trkpt>
      <trkpt lat="48.9423" lon="2.3029">
        <ele>28.60000038147</ele>
        <time>2016-05-02T19:44:35.000Z</time>
      </trkpt>
      <trkpt lat="48.94207" lon="2.30285">
        <ele>28.200000762939</ele>
        <time>2016-05-02T19:44:39.000Z</time>
      </trkpt>
      <trkpt lat="48.94186" lon="2.30286">
        <ele>27.799999237061</ele>
        <time>2016-05-02T19:44:43.000Z</time>
      </trkpt>
      <trkpt lat="48.94162" lon="2.30292">
        <ele>27.799999237061</ele>
        <time>2016-05-02T19:44:47.000Z</time>
      </trkpt>
      <trkpt lat="48.94144" lon="2.30299">
        <ele>27.60000038147</ele>
        <time>2016-05-02T19:44:50.000Z</time>
      </trkpt>
      <trkpt lat="48.94126" lon="2.30309">
        <ele>27.200000762939</ele>
        <time>2016-05-02T19:44:53.000Z</time>
      </trkpt>
      <trkpt lat="48.94109" lon="2.30319">
        <ele>27</ele>
        <time>2016-05-02T19:44:56.000Z</time>
      </trkpt>
      <trkpt lat="48.94089" lon="2.30332">
        <ele>27.799999237061</ele>
        <time>2016-05-02T19:45:00.000Z</time>
      </trkpt>
      <trkpt lat="48.94068" lon="2.30345">
        <ele>29</ele>
        <time>2016-05-02T19:45:05.000Z</time>
      </trkpt>
      <trkpt lat="48.94051" lon="2.30356">
        <ele>30</ele>
        <time>2016-05-02T19:45:10.000Z</time>
      </trkpt>
      <trkpt lat="48.94031" lon="2.30367">
        <ele>30.39999961853</ele>
        <time>2016-05-02T19:45:17.000Z</time>
      </trkpt>
      <trkpt lat="48.94013" lon="2.30378">
        <ele>30.39999961853</ele>
        <time>2016-05-02T19:45:23.000Z</time>
      </trkpt>
      <trkpt lat="48.9401" lon="2.3038">
        <ele>30.200000762939</ele>
        <time>2016-05-02T19:45:24.000Z</time>
      </trkpt>
      <trkpt lat="48.94003" lon="2.30384">
        <ele>30.200000762939</ele>
        <time>2016-05-02T19:45:27.000Z</time>
      </trkpt>
      <trkpt lat="48.93995" lon="2.30388">
        <ele>30</ele>
        <time>2016-05-02T19:45:30.000Z</time>
      </trkpt>
      <trkpt lat="48.93977" lon="2.30396">
        <ele>29.200000762939</ele>
        <time>2016-05-02T19:45:37.000Z</time>
      </trkpt>
      <trkpt lat="48.93974" lon="2.30397">
        <ele>29.200000762939</ele>
        <time>2016-05-02T19:45:38.000Z</time>
      </trkpt>
      <trkpt lat="48.93962" lon="2.30401">
        <ele>28.799999237061</ele>
        <time>2016-05-02T19:45:42.000Z</time>
      </trkpt>
      <trkpt lat="48.93944" lon="2.30404">
        <ele>28.200000762939</ele>
        <time>2016-05-02T19:45:47.000Z</time>
      </trkpt>
      <trkpt lat="48.93923" lon="2.30404">
        <ele>28.799999237061</ele>
        <time>2016-05-02T19:45:52.000Z</time>
      </trkpt>
      <trkpt lat="48.93901" lon="2.30408">
        <ele>29.39999961853</ele>
        <time>2016-05-02T19:45:57.000Z</time>
      </trkpt>
      <trkpt lat="48.93879" lon="2.3041">
        <ele>30.200000762939</ele>
        <time>2016-05-02T19:46:02.000Z</time>
      </trkpt>
      <trkpt lat="48.93857" lon="2.30412">
        <ele>31</ele>
        <time>2016-05-02T19:46:07.000Z</time>
      </trkpt>
      <trkpt lat="48.93839" lon="2.30413">
        <ele>31.39999961853</ele>
        <time>2016-05-02T19:46:11.000Z</time>
      </trkpt>
      <trkpt lat="48.93818" lon="2.30416">
        <ele>31.799999237061</ele>
        <time>2016-05-02T19:46:15.000Z</time>
      </trkpt>
      <trkpt lat="48.93813" lon="2.30416">
        <ele>32</ele>
        <time>2016-05-02T19:46:16.000Z</time>
      </trkpt>
      <trkpt lat="48.93792" lon="2.30413">
        <ele>32.599998474121</ele>
        <time>2016-05-02T19:46:20.000Z</time>
      </trkpt>
      <trkpt lat="48.93771" lon="2.30409">
        <ele>32.799999237061</ele>
        <time>2016-05-02T19:46:24.000Z</time>
      </trkpt>
      <trkpt lat="48.93749" lon="2.30405">
        <ele>32.400001525879</ele>
        <time>2016-05-02T19:46:28.000Z</time>
      </trkpt>
      <trkpt lat="48.93728" lon="2.30399">
        <ele>32</ele>
        <time>2016-05-02T19:46:32.000Z</time>
      </trkpt>
      <trkpt lat="48.93708" lon="2.30393">
        <ele>31.39999961853</ele>
        <time>2016-05-02T19:46:36.000Z</time>
      </trkpt>
      <trkpt lat="48.93687" lon="2.30385">
        <ele>31</ele>
        <time>2016-05-02T19:46:40.000Z</time>
      </trkpt>
      <trkpt lat="48.93665" lon="2.30377">
        <ele>30.39999961853</ele>
        <time>2016-05-02T19:46:44.000Z</time>
      </trkpt>
      <trkpt lat="48.93643" lon="2.30368">
        <ele>29.799999237061</ele>
        <time>2016-05-02T19:46:48.000Z</time>
      </trkpt>
      <trkpt lat="48.93621" lon="2.30359">
        <ele>29.60000038147</ele>
        <time>2016-05-02T19:46:52.000Z</time>
      </trkpt>
      <trkpt lat="48.936" lon="2.30351">
        <ele>29.60000038147</ele>
        <time>2016-05-02T19:46:56.000Z</time>
      </trkpt>
      <trkpt lat="48.93582" lon="2.30343">
        <ele>30</ele>
        <time>2016-05-02T19:46:59.000Z</time>
      </trkpt>
      <trkpt lat="48.93563" lon="2.30337">
        <ele>30.60000038147</ele>
        <time>2016-05-02T19:47:02.000Z</time>
      </trkpt>
      <trkpt lat="48.93543" lon="2.30326">
        <ele>30.799999237061</ele>
        <time>2016-05-02T19:47:05.000Z</time>
      </trkpt>
      <trkpt lat="48.93524" lon="2.30321">
        <ele>31.39999961853</ele>
        <time>2016-05-02T19:47:08.000Z</time>
      </trkpt>
      <trkpt lat="48.93501" lon="2.30314">
        <ele>31.39999961853</ele>
        <time>2016-05-02T19:47:12.000Z</time>
      </trkpt>
      <trkpt lat="48.93479" lon="2.30303">
        <ele>30.799999237061</ele>
        <time>2016-05-02T19:47:16.000Z</time>
      </trkpt>
      <trkpt lat="48.93457" lon="2.30293">
        <ele>30.39999961853</ele>
        <time>2016-05-02T19:47:20.000Z</time>
      </trkpt>
      <trkpt lat="48.93436" lon="2.30285">
        <ele>30</ele>
        <time>2016-05-02T19:47:24.000Z</time>
      </trkpt>
      <trkpt lat="48.93417" lon="2.30277">
        <ele>30</ele>
        <time>2016-05-02T19:47:28.000Z</time>
      </trkpt>
      <trkpt lat="48.93396" lon="2.30267">
        <ele>30</ele>
        <time>2016-05-02T19:47:33.000Z</time>
      </trkpt>
      <trkpt lat="48.93375" lon="2.30256">
        <ele>30</ele>
        <time>2016-05-02T19:47:38.000Z</time>
      </trkpt>
      <trkpt lat="48.93361" lon="2.30244">
        <ele>30</ele>
        <time>2016-05-02T19:47:43.000Z</time>
      </trkpt>
      <trkpt lat="48.93359" lon="2.30217">
        <ele>30.60000038147</ele>
        <time>2016-05-02T19:47:48.000Z</time>
      </trkpt>
      <trkpt lat="48.93355" lon="2.30188">
        <ele>31.39999961853</ele>
        <time>2016-05-02T19:47:52.000Z</time>
      </trkpt>
      <trkpt lat="48.93353" lon="2.30178">
        <ele>31.60000038147</ele>
        <time>2016-05-02T19:47:53.000Z</time>
      </trkpt>
      <trkpt lat="48.93341" lon="2.30156">
        <ele>32.200000762939</ele>
        <time>2016-05-02T19:47:56.000Z</time>
      </trkpt>
      <trkpt lat="48.93319" lon="2.30166">
        <ele>32</ele>
        <time>2016-05-02T19:48:01.000Z</time>
      </trkpt>
      <trkpt lat="48.93307" lon="2.30174">
        <ele>31.799999237061</ele>
        <time>2016-05-02T19:48:04.000Z</time>
      </trkpt>
      <trkpt lat="48.93299" lon="2.3018">
        <ele>31.60000038147</ele>
        <time>2016-05-02T19:48:06.000Z</time>
      </trkpt>
      <trkpt lat="48.93293" lon="2.30187">
        <ele>31.39999961853</ele>
        <time>2016-05-02T19:48:08.000Z</time>
      </trkpt>
      <trkpt lat="48.93276" lon="2.3019">
        <ele>30.799999237061</ele>
        <time>2016-05-02T19:48:12.000Z</time>
      </trkpt>
      <trkpt lat="48.93256" lon="2.30189">
        <ele>30.200000762939</ele>
        <time>2016-05-02T19:48:17.000Z</time>
      </trkpt>
      <trkpt lat="48.93242" lon="2.30189">
        <ele>29.60000038147</ele>
        <time>2016-05-02T19:48:20.000Z</time>
      </trkpt>
      <trkpt lat="48.93224" lon="2.30186">
        <ele>29.200000762939</ele>
        <time>2016-05-02T19:48:24.000Z</time>
      </trkpt>
      <trkpt lat="48.9321" lon="2.30184">
        <ele>28.799999237061</ele>
        <time>2016-05-02T19:48:27.000Z</time>
      </trkpt>
      <trkpt lat="48.9319" lon="2.30182">
        <ele>29</ele>
        <time>2016-05-02T19:48:31.000Z</time>
      </trkpt>
      <trkpt lat="48.93171" lon="2.3018">
        <ele>29</ele>
        <time>2016-05-02T19:48:35.000Z</time>
      </trkpt>
      <trkpt lat="48.93152" lon="2.30178">
        <ele>29</ele>
        <time>2016-05-02T19:48:39.000Z</time>
      </trkpt>
      <trkpt lat="48.93132" lon="2.30177">
        <ele>29</ele>
        <time>2016-05-02T19:48:43.000Z</time>
      </trkpt>
      <trkpt lat="48.93114" lon="2.30177">
        <ele>29</ele>
        <time>2016-05-02T19:48:47.000Z</time>
      </trkpt>
      <trkpt lat="48.93105" lon="2.30174">
        <ele>28.799999237061</ele>
        <time>2016-05-02T19:48:49.000Z</time>
      </trkpt>
      <trkpt lat="48.93089" lon="2.30172">
        <ele>29.200000762939</ele>
        <time>2016-05-02T19:48:53.000Z</time>
      </trkpt>
      <trkpt lat="48.93068" lon="2.30175">
        <ele>29.39999961853</ele>
        <time>2016-05-02T19:48:58.000Z</time>
      </trkpt>
      <trkpt lat="48.93056" lon="2.30177">
        <ele>29.39999961853</ele>
        <time>2016-05-02T19:49:01.000Z</time>
      </trkpt>
      <trkpt lat="48.93037" lon="2.3018">
        <ele>29.799999237061</ele>
        <time>2016-05-02T19:49:06.000Z</time>
      </trkpt>
      <trkpt lat="48.93028" lon="2.30181">
        <ele>30.200000762939</ele>
        <time>2016-05-02T19:49:08.000Z</time>
      </trkpt>
      <trkpt lat="48.93007" lon="2.30184">
        <ele>32</ele>
        <time>2016-05-02T19:49:13.000Z</time>
      </trkpt>
      <trkpt lat="48.92988" lon="2.30187">
        <ele>33.599998474121</ele>
        <time>2016-05-02T19:49:17.000Z</time>
      </trkpt>
      <trkpt lat="48.92969" lon="2.3019">
        <ele>35.200000762939</ele>
        <time>2016-05-02T19:49:21.000Z</time>
      </trkpt>
      <trkpt lat="48.92949" lon="2.30197">
        <ele>35</ele>
        <time>2016-05-02T19:49:25.000Z</time>
      </trkpt>
      <trkpt lat="48.92932" lon="2.30202">
        <ele>34</ele>
        <time>2016-05-02T19:49:28.000Z</time>
      </trkpt>
      <trkpt lat="48.92912" lon="2.3021">
        <ele>32.200000762939</ele>
        <time>2016-05-02T19:49:32.000Z</time>
      </trkpt>
      <trkpt lat="48.92893" lon="2.30219">
        <ele>31.200000762939</ele>
        <time>2016-05-02T19:49:36.000Z</time>
      </trkpt>
      <trkpt lat="48.92874" lon="2.30228">
        <ele>30.60000038147</ele>
        <time>2016-05-02T19:49:40.000Z</time>
      </trkpt>
      <trkpt lat="48.92855" lon="2.30239">
        <ele>30.200000762939</ele>
        <time>2016-05-02T19:49:44.000Z</time>
      </trkpt>
      <trkpt lat="48.92835" lon="2.30247">
        <ele>30.200000762939</ele>
        <time>2016-05-02T19:49:48.000Z</time>
      </trkpt>
      <trkpt lat="48.9282" lon="2.30254">
        <ele>30.200000762939</ele>
        <time>2016-05-02T19:49:51.000Z</time>
      </trkpt>
      <trkpt lat="48.928" lon="2.30262">
        <ele>30.39999961853</ele>
        <time>2016-05-02T19:49:55.000Z</time>
      </trkpt>
      <trkpt lat="48.9278" lon="2.30272">
        <ele>30.60000038147</ele>
        <time>2016-05-02T19:49:59.000Z</time>
      </trkpt>
      <trkpt lat="48.9276" lon="2.30279">
        <ele>31</ele>
        <time>2016-05-02T19:50:04.000Z</time>
      </trkpt>
      <trkpt lat="48.9274" lon="2.30288">
        <ele>31.799999237061</ele>
        <time>2016-05-02T19:50:10.000Z</time>
      </trkpt>
      <trkpt lat="48.92736" lon="2.3029">
        <ele>31.799999237061</ele>
        <time>2016-05-02T19:50:11.000Z</time>
      </trkpt>
      <trkpt lat="48.92721" lon="2.30293">
        <ele>31.39999961853</ele>
        <time>2016-05-02T19:50:15.000Z</time>
      </trkpt>
      <trkpt lat="48.92712" lon="2.30297">
        <ele>30.799999237061</ele>
        <time>2016-05-02T19:50:17.000Z</time>
      </trkpt>
      <trkpt lat="48.92697" lon="2.30313">
        <ele>29.39999961853</ele>
        <time>2016-05-02T19:50:21.000Z</time>
      </trkpt>
      <trkpt lat="48.92681" lon="2.30325">
        <ele>28.200000762939</ele>
        <time>2016-05-02T19:50:25.000Z</time>
      </trkpt>
      <trkpt lat="48.92664" lon="2.30336">
        <ele>28.39999961853</ele>
        <time>2016-05-02T19:50:29.000Z</time>
      </trkpt>
      <trkpt lat="48.92651" lon="2.30343">
        <ele>28.799999237061</ele>
        <time>2016-05-02T19:50:32.000Z</time>
      </trkpt>
      <trkpt lat="48.92633" lon="2.30352">
        <ele>29.200000762939</ele>
        <time>2016-05-02T19:50:36.000Z</time>
      </trkpt>
      <trkpt lat="48.92614" lon="2.3036">
        <ele>29</ele>
        <time>2016-05-02T19:50:40.000Z</time>
      </trkpt>
      <trkpt lat="48.92595" lon="2.30368">
        <ele>28.799999237061</ele>
        <time>2016-05-02T19:50:44.000Z</time>
      </trkpt>
      <trkpt lat="48.92576" lon="2.30378">
        <ele>28.60000038147</ele>
        <time>2016-05-02T19:50:48.000Z</time>
      </trkpt>
      <trkpt lat="48.92558" lon="2.30386">
        <ele>28.200000762939</ele>
        <time>2016-05-02T19:50:52.000Z</time>
      </trkpt>
      <trkpt lat="48.92545" lon="2.30393">
        <ele>27.799999237061</ele>
        <time>2016-05-02T19:50:55.000Z</time>
      </trkpt>
      <trkpt lat="48.92524" lon="2.30404">
        <ele>27.200000762939</ele>
        <time>2016-05-02T19:50:59.000Z</time>
      </trkpt>
      <trkpt lat="48.92505" lon="2.30415">
        <ele>27.200000762939</ele>
        <time>2016-05-02T19:51:03.000Z</time>
      </trkpt>
      <trkpt lat="48.92485" lon="2.30426">
        <ele>27.39999961853</ele>
        <time>2016-05-02T19:51:07.000Z</time>
      </trkpt>
      <trkpt lat="48.92463" lon="2.30437">
        <ele>27.799999237061</ele>
        <time>2016-05-02T19:51:11.000Z</time>
      </trkpt>
      <trkpt lat="48.92441" lon="2.30447">
        <ele>28.39999961853</ele>
        <time>2016-05-02T19:51:15.000Z</time>
      </trkpt>
      <trkpt lat="48.9242" lon="2.30457">
        <ele>29.200000762939</ele>
        <time>2016-05-02T19:51:19.000Z</time>
      </trkpt>
      <trkpt lat="48.924" lon="2.30466">
        <ele>30</ele>
        <time>2016-05-02T19:51:23.000Z</time>
      </trkpt>
      <trkpt lat="48.92379" lon="2.30475">
        <ele>31</ele>
        <time>2016-05-02T19:51:27.000Z</time>
      </trkpt>
      <trkpt lat="48.9236" lon="2.30476">
        <ele>31.60000038147</ele>
        <time>2016-05-02T19:51:31.000Z</time>
      </trkpt>
      <trkpt lat="48.92339" lon="2.30484">
        <ele>31.799999237061</ele>
        <time>2016-05-02T19:51:35.000Z</time>
      </trkpt>
      <trkpt lat="48.92317" lon="2.30496">
        <ele>32.400001525879</ele>
        <time>2016-05-02T19:51:39.000Z</time>
      </trkpt>
      <trkpt lat="48.92305" lon="2.30505">
        <ele>32.599998474121</ele>
        <time>2016-05-02T19:51:41.000Z</time>
      </trkpt>
      <trkpt lat="48.92285" lon="2.30516">
        <ele>32.599998474121</ele>
        <time>2016-05-02T19:51:45.000Z</time>
      </trkpt>
      <trkpt lat="48.92265" lon="2.30528">
        <ele>32.400001525879</ele>
        <time>2016-05-02T19:51:49.000Z</time>
      </trkpt>
      <trkpt lat="48.9226" lon="2.30531">
        <ele>32.200000762939</ele>
        <time>2016-05-02T19:51:50.000Z</time>
      </trkpt>
      <trkpt lat="48.9224" lon="2.30546">
        <ele>31.60000038147</ele>
        <time>2016-05-02T19:51:54.000Z</time>
      </trkpt>
      <trkpt lat="48.92235" lon="2.3055">
        <ele>31.200000762939</ele>
        <time>2016-05-02T19:51:55.000Z</time>
      </trkpt>
      <trkpt lat="48.92217" lon="2.30561">
        <ele>30</ele>
        <time>2016-05-02T19:51:59.000Z</time>
      </trkpt>
      <trkpt lat="48.92199" lon="2.3057">
        <ele>28.799999237061</ele>
        <time>2016-05-02T19:52:03.000Z</time>
      </trkpt>
      <trkpt lat="48.92186" lon="2.30576">
        <ele>28</ele>
        <time>2016-05-02T19:52:06.000Z</time>
      </trkpt>
      <trkpt lat="48.92168" lon="2.30584">
        <ele>28.200000762939</ele>
        <time>2016-05-02T19:52:10.000Z</time>
      </trkpt>
      <trkpt lat="48.92148" lon="2.30592">
        <ele>28.200000762939</ele>
        <time>2016-05-02T19:52:14.000Z</time>
      </trkpt>
      <trkpt lat="48.92129" lon="2.306">
        <ele>28.39999961853</ele>
        <time>2016-05-02T19:52:18.000Z</time>
      </trkpt>
      <trkpt lat="48.9211" lon="2.30606">
        <ele>28.39999961853</ele>
        <time>2016-05-02T19:52:22.000Z</time>
      </trkpt>
      <trkpt lat="48.9209" lon="2.30615">
        <ele>29.200000762939</ele>
        <time>2016-05-02T19:52:26.000Z</time>
      </trkpt>
      <trkpt lat="48.9207" lon="2.30622">
        <ele>30.200000762939</ele>
        <time>2016-05-02T19:52:30.000Z</time>
      </trkpt>
      <trkpt lat="48.92049" lon="2.30631">
        <ele>30.799999237061</ele>
        <time>2016-05-02T19:52:34.000Z</time>
      </trkpt>
      <trkpt lat="48.92031" lon="2.30638">
        <ele>31.200000762939</ele>
        <time>2016-05-02T19:52:37.000Z</time>
      </trkpt>
      <trkpt lat="48.92009" lon="2.30648">
        <ele>31.60000038147</ele>
        <time>2016-05-02T19:52:41.000Z</time>
      </trkpt>
      <trkpt lat="48.91987" lon="2.30655">
        <ele>31.200000762939</ele>
        <time>2016-05-02T19:52:45.000Z</time>
      </trkpt>
      <trkpt lat="48.91966" lon="2.30664">
        <ele>31</ele>
        <time>2016-05-02T19:52:49.000Z</time>
      </trkpt>
      <trkpt lat="48.91945" lon="2.3067">
        <ele>31</ele>
        <time>2016-05-02T19:52:53.000Z</time>
      </trkpt>
      <trkpt lat="48.91924" lon="2.30679">
        <ele>31.39999961853</ele>
        <time>2016-05-02T19:52:57.000Z</time>
      </trkpt>
      <trkpt lat="48.91904" lon="2.30688">
        <ele>32</ele>
        <time>2016-05-02T19:53:01.000Z</time>
      </trkpt>
      <trkpt lat="48.91884" lon="2.30695">
        <ele>32.599998474121</ele>
        <time>2016-05-02T19:53:05.000Z</time>
      </trkpt>
      <trkpt lat="48.91864" lon="2.307">
        <ele>33.400001525879</ele>
        <time>2016-05-02T19:53:09.000Z</time>
      </trkpt>
      <trkpt lat="48.91843" lon="2.30705">
        <ele>33.200000762939</ele>
        <time>2016-05-02T19:53:13.000Z</time>
      </trkpt>
      <trkpt lat="48.91823" lon="2.30708">
        <ele>32.599998474121</ele>
        <time>2016-05-02T19:53:17.000Z</time>
      </trkpt>
      <trkpt lat="48.91802" lon="2.30709">
        <ele>32.400001525879</ele>
        <time>2016-05-02T19:53:22.000Z</time>
      </trkpt>
      <trkpt lat="48.91781" lon="2.30714">
        <ele>32</ele>
        <time>2016-05-02T19:53:27.000Z</time>
      </trkpt>
      <trkpt lat="48.9176" lon="2.30732">
        <ele>31.60000038147</ele>
        <time>2016-05-02T19:53:31.000Z</time>
      </trkpt>
      <trkpt lat="48.9174" lon="2.30738">
        <ele>31</ele>
        <time>2016-05-02T19:53:36.000Z</time>
      </trkpt>
      <trkpt lat="48.91725" lon="2.3074">
        <ele>30.39999961853</ele>
        <time>2016-05-02T19:53:41.000Z</time>
      </trkpt>
      <trkpt lat="48.9172" lon="2.30745">
        <ele>30</ele>
        <time>2016-05-02T19:53:45.000Z</time>
      </trkpt>
      <trkpt lat="48.9172" lon="2.30746">
        <ele>30</ele>
        <time>2016-05-02T19:53:46.000Z</time>
      </trkpt>
      <trkpt lat="48.91703" lon="2.30761">
        <ele>29.39999961853</ele>
        <time>2016-05-02T19:53:59.000Z</time>
      </trkpt>
      <trkpt lat="48.91683" lon="2.3077">
        <ele>29.200000762939</ele>
        <time>2016-05-02T19:54:06.000Z</time>
      </trkpt>
      <trkpt lat="48.91665" lon="2.30782">
        <ele>30</ele>
        <time>2016-05-02T19:54:11.000Z</time>
      </trkpt>
      <trkpt lat="48.91645" lon="2.30796">
        <ele>30</ele>
        <time>2016-05-02T19:54:16.000Z</time>
      </trkpt>
      <trkpt lat="48.91629" lon="2.30809">
        <ele>28.799999237061</ele>
        <time>2016-05-02T19:54:20.000Z</time>
      </trkpt>
      <trkpt lat="48.91612" lon="2.30822">
        <ele>27.60000038147</ele>
        <time>2016-05-02T19:54:24.000Z</time>
      </trkpt>
      <trkpt lat="48.91596" lon="2.30835">
        <ele>27.60000038147</ele>
        <time>2016-05-02T19:54:28.000Z</time>
      </trkpt>
      <trkpt lat="48.9158" lon="2.30848">
        <ele>28.799999237061</ele>
        <time>2016-05-02T19:54:33.000Z</time>
      </trkpt>
      <trkpt lat="48.91563" lon="2.30865">
        <ele>30.200000762939</ele>
        <time>2016-05-02T19:54:39.000Z</time>
      </trkpt>
      <trkpt lat="48.91546" lon="2.3088">
        <ele>30</ele>
        <time>2016-05-02T19:54:45.000Z</time>
      </trkpt>
      <trkpt lat="48.91528" lon="2.30895">
        <ele>29.39999961853</ele>
        <time>2016-05-02T19:54:51.000Z</time>
      </trkpt>
      <trkpt lat="48.91511" lon="2.30908">
        <ele>29.39999961853</ele>
        <time>2016-05-02T19:54:57.000Z</time>
      </trkpt>
      <trkpt lat="48.91494" lon="2.30922">
        <ele>29.200000762939</ele>
        <time>2016-05-02T19:55:03.000Z</time>
      </trkpt>
      <trkpt lat="48.91475" lon="2.30934">
        <ele>29.39999961853</ele>
        <time>2016-05-02T19:55:09.000Z</time>
      </trkpt>
      <trkpt lat="48.91457" lon="2.30948">
        <ele>29</ele>
        <time>2016-05-02T19:55:15.000Z</time>
      </trkpt>
      <trkpt lat="48.91439" lon="2.30962">
        <ele>27.799999237061</ele>
        <time>2016-05-02T19:55:21.000Z</time>
      </trkpt>
      <trkpt lat="48.91422" lon="2.30969">
        <ele>26.39999961853</ele>
        <time>2016-05-02T19:55:28.000Z</time>
      </trkpt>
      <trkpt lat="48.91417" lon="2.30968">
        <ele>26</ele>
        <time>2016-05-02T19:55:31.000Z</time>
      </trkpt>
      <trkpt lat="48.91416" lon="2.30992">
        <ele>26.200000762939</ele>
        <time>2016-05-02T19:55:44.000Z</time>
      </trkpt>
      <trkpt lat="48.91416" lon="2.30998">
        <ele>26.39999961853</ele>
        <time>2016-05-02T19:55:46.000Z</time>
      </trkpt>
      <trkpt lat="48.91415" lon="2.31">
        <ele>26.39999961853</ele>
        <time>2016-05-02T19:55:47.000Z</time>
      </trkpt>
      <trkpt lat="48.91401" lon="2.31014">
        <ele>25.799999237061</ele>
        <time>2016-05-02T19:56:06.000Z</time>
      </trkpt>
      <trkpt lat="48.91398" lon="2.31023">
        <ele>25.60000038147</ele>
        <time>2016-05-02T19:56:10.000Z</time>
      </trkpt>
      <trkpt lat="48.91408" lon="2.31025">
        <ele>25.799999237061</ele>
        <time>2016-05-02T19:56:43.000Z</time>
      </trkpt>
      <trkpt lat="48.91392" lon="2.31035">
        <ele>25.200000762939</ele>
        <time>2016-05-02T19:56:53.000Z</time>
      </trkpt>
      <trkpt lat="48.9139" lon="2.31037">
        <ele>25.200000762939</ele>
        <time>2016-05-02T19:56:54.000Z</time>
      </trkpt>
      <trkpt lat="48.91372" lon="2.3105">
        <ele>23.799999237061</ele>
        <time>2016-05-02T19:57:02.000Z</time>
      </trkpt>
      <trkpt lat="48.91355" lon="2.31062">
        <ele>22.60000038147</ele>
        <time>2016-05-02T19:57:08.000Z</time>
      </trkpt>
      <trkpt lat="48.91338" lon="2.31073">
        <ele>24.200000762939</ele>
        <time>2016-05-02T19:57:14.000Z</time>
      </trkpt>
      <trkpt lat="48.91321" lon="2.31087">
        <ele>27.200000762939</ele>
        <time>2016-05-02T19:57:20.000Z</time>
      </trkpt>
      <trkpt lat="48.91302" lon="2.31099">
        <ele>29.39999961853</ele>
        <time>2016-05-02T19:57:27.000Z</time>
      </trkpt>
      <trkpt lat="48.91283" lon="2.31111">
        <ele>32.400001525879</ele>
        <time>2016-05-02T19:57:34.000Z</time>
      </trkpt>
      <trkpt lat="48.91265" lon="2.31122">
        <ele>34</ele>
        <time>2016-05-02T19:57:40.000Z</time>
      </trkpt>
      <trkpt lat="48.91247" lon="2.31133">
        <ele>33.400001525879</ele>
        <time>2016-05-02T19:57:46.000Z</time>
      </trkpt>
      <trkpt lat="48.91228" lon="2.31141">
        <ele>33.599998474121</ele>
        <time>2016-05-02T19:57:52.000Z</time>
      </trkpt>
      <trkpt lat="48.91211" lon="2.31147">
        <ele>33.799999237061</ele>
        <time>2016-05-02T19:57:59.000Z</time>
      </trkpt>
      <trkpt lat="48.91192" lon="2.31155">
        <ele>34</ele>
        <time>2016-05-02T19:58:06.000Z</time>
      </trkpt>
      <trkpt lat="48.91173" lon="2.31165">
        <ele>34.400001525879</ele>
        <time>2016-05-02T19:58:12.000Z</time>
      </trkpt>
      <trkpt lat="48.91156" lon="2.31176">
        <ele>34.599998474121</ele>
        <time>2016-05-02T19:58:16.000Z</time>
      </trkpt>
      <trkpt lat="48.91139" lon="2.31189">
        <ele>34.599998474121</ele>
        <time>2016-05-02T19:58:20.000Z</time>
      </trkpt>
      <trkpt lat="48.91122" lon="2.31202">
        <ele>33.799999237061</ele>
        <time>2016-05-02T19:58:24.000Z</time>
      </trkpt>
      <trkpt lat="48.91103" lon="2.31214">
        <ele>32.599998474121</ele>
        <time>2016-05-02T19:58:29.000Z</time>
      </trkpt>
      <trkpt lat="48.91084" lon="2.31228">
        <ele>30.799999237061</ele>
        <time>2016-05-02T19:58:34.000Z</time>
      </trkpt>
      <trkpt lat="48.9107" lon="2.31234">
        <ele>30.60000038147</ele>
        <time>2016-05-02T19:58:41.000Z</time>
      </trkpt>
      <trkpt lat="48.9106" lon="2.31248">
        <ele>30.39999961853</ele>
        <time>2016-05-02T19:59:01.000Z</time>
      </trkpt>
      <trkpt lat="48.91046" lon="2.31273">
        <ele>30</ele>
        <time>2016-05-02T19:59:07.000Z</time>
      </trkpt>
      <trkpt lat="48.91029" lon="2.31285">
        <ele>30.799999237061</ele>
        <time>2016-05-02T19:59:12.000Z</time>
      </trkpt>
      <trkpt lat="48.91011" lon="2.31288">
        <ele>31</ele>
        <time>2016-05-02T19:59:16.000Z</time>
      </trkpt>
      <trkpt lat="48.90993" lon="2.31287">
        <ele>31</ele>
        <time>2016-05-02T19:59:20.000Z</time>
      </trkpt>
      <trkpt lat="48.90972" lon="2.31288">
        <ele>31</ele>
        <time>2016-05-02T19:59:25.000Z</time>
      </trkpt>
      <trkpt lat="48.90951" lon="2.31283">
        <ele>31.200000762939</ele>
        <time>2016-05-02T19:59:30.000Z</time>
      </trkpt>
      <trkpt lat="48.90928" lon="2.31285">
        <ele>31.39999961853</ele>
        <time>2016-05-02T19:59:35.000Z</time>
      </trkpt>
      <trkpt lat="48.90909" lon="2.31286">
        <ele>31.39999961853</ele>
        <time>2016-05-02T19:59:39.000Z</time>
      </trkpt>
      <trkpt lat="48.90888" lon="2.31285">
        <ele>31.200000762939</ele>
        <time>2016-05-02T19:59:43.000Z</time>
      </trkpt>
      <trkpt lat="48.9087" lon="2.31282">
        <ele>30.799999237061</ele>
        <time>2016-05-02T19:59:47.000Z</time>
      </trkpt>
      <trkpt lat="48.90847" lon="2.31283">
        <ele>30.60000038147</ele>
        <time>2016-05-02T19:59:52.000Z</time>
      </trkpt>
      <trkpt lat="48.90827" lon="2.31281">
        <ele>30.799999237061</ele>
        <time>2016-05-02T19:59:56.000Z</time>
      </trkpt>
      <trkpt lat="48.9081" lon="2.31285">
        <ele>31</ele>
        <time>2016-05-02T19:59:59.000Z</time>
      </trkpt>
      <trkpt lat="48.90788" lon="2.31287">
        <ele>30.39999961853</ele>
        <time>2016-05-02T20:00:03.000Z</time>
      </trkpt>
      <trkpt lat="48.9077" lon="2.31289">
        <ele>30</ele>
        <time>2016-05-02T20:00:06.000Z</time>
      </trkpt>
      <trkpt lat="48.90747" lon="2.31289">
        <ele>30.39999961853</ele>
        <time>2016-05-02T20:00:10.000Z</time>
      </trkpt>
      <trkpt lat="48.90742" lon="2.31288">
        <ele>30.39999961853</ele>
        <time>2016-05-02T20:00:11.000Z</time>
      </trkpt>
      <trkpt lat="48.90721" lon="2.31288">
        <ele>30.799999237061</ele>
        <time>2016-05-02T20:00:15.000Z</time>
      </trkpt>
      <trkpt lat="48.907" lon="2.31292">
        <ele>31.200000762939</ele>
        <time>2016-05-02T20:00:19.000Z</time>
      </trkpt>
      <trkpt lat="48.90695" lon="2.31292">
        <ele>31.39999961853</ele>
        <time>2016-05-02T20:00:20.000Z</time>
      </trkpt>
      <trkpt lat="48.90676" lon="2.3129">
        <ele>32.200000762939</ele>
        <time>2016-05-02T20:00:24.000Z</time>
      </trkpt>
      <trkpt lat="48.90657" lon="2.3129">
        <ele>33</ele>
        <time>2016-05-02T20:00:28.000Z</time>
      </trkpt>
      <trkpt lat="48.90643" lon="2.31294">
        <ele>33.799999237061</ele>
        <time>2016-05-02T20:00:31.000Z</time>
      </trkpt>
      <trkpt lat="48.90622" lon="2.31289">
        <ele>35</ele>
        <time>2016-05-02T20:00:35.000Z</time>
      </trkpt>
      <trkpt lat="48.90607" lon="2.31285">
        <ele>36</ele>
        <time>2016-05-02T20:00:38.000Z</time>
      </trkpt>
      <trkpt lat="48.90588" lon="2.31285">
        <ele>35.799999237061</ele>
        <time>2016-05-02T20:00:42.000Z</time>
      </trkpt>
      <trkpt lat="48.90568" lon="2.31279">
        <ele>35.599998474121</ele>
        <time>2016-05-02T20:00:46.000Z</time>
      </trkpt>
      <trkpt lat="48.90549" lon="2.31276">
        <ele>35.400001525879</ele>
        <time>2016-05-02T20:00:50.000Z</time>
      </trkpt>
      <trkpt lat="48.90531" lon="2.31276">
        <ele>35</ele>
        <time>2016-05-02T20:00:54.000Z</time>
      </trkpt>
      <trkpt lat="48.90512" lon="2.31276">
        <ele>35.200000762939</ele>
        <time>2016-05-02T20:00:58.000Z</time>
      </trkpt>
      <trkpt lat="48.905" lon="2.31279">
        <ele>35.200000762939</ele>
        <time>2016-05-02T20:01:01.000Z</time>
      </trkpt>
      <trkpt lat="48.90489" lon="2.31282">
        <ele>35.400001525879</ele>
        <time>2016-05-02T20:01:03.000Z</time>
      </trkpt>
      <trkpt lat="48.90467" lon="2.31284">
        <ele>35.599998474121</ele>
        <time>2016-05-02T20:01:07.000Z</time>
      </trkpt>
      <trkpt lat="48.90445" lon="2.3128">
        <ele>35.599998474121</ele>
        <time>2016-05-02T20:01:11.000Z</time>
      </trkpt>
      <trkpt lat="48.90423" lon="2.3127">
        <ele>36</ele>
        <time>2016-05-02T20:01:15.000Z</time>
      </trkpt>
      <trkpt lat="48.90415" lon="2.31269">
        <ele>36</ele>
        <time>2016-05-02T20:01:17.000Z</time>
      </trkpt>
      <trkpt lat="48.90397" lon="2.31274">
        <ele>36.200000762939</ele>
        <time>2016-05-02T20:01:22.000Z</time>
      </trkpt>
      <trkpt lat="48.90394" lon="2.31275">
        <ele>36.200000762939</ele>
        <time>2016-05-02T20:01:23.000Z</time>
      </trkpt>
      <trkpt lat="48.90373" lon="2.31276">
        <ele>36.599998474121</ele>
        <time>2016-05-02T20:01:29.000Z</time>
      </trkpt>
      <trkpt lat="48.9035" lon="2.31278">
        <ele>37.400001525879</ele>
        <time>2016-05-02T20:01:41.000Z</time>
      </trkpt>
      <trkpt lat="48.90341" lon="2.31271">
        <ele>37.799999237061</ele>
        <time>2016-05-02T20:01:45.000Z</time>
      </trkpt>
      <trkpt lat="48.90323" lon="2.31264">
        <ele>38.599998474121</ele>
        <time>2016-05-02T20:01:50.000Z</time>
      </trkpt>
      <trkpt lat="48.90311" lon="2.31267">
        <ele>39.200000762939</ele>
        <time>2016-05-02T20:01:53.000Z</time>
      </trkpt>
      <trkpt lat="48.90302" lon="2.31295">
        <ele>39.200000762939</ele>
        <time>2016-05-02T20:01:58.000Z</time>
      </trkpt>
      <trkpt lat="48.90301" lon="2.31302">
        <ele>39</ele>
        <time>2016-05-02T20:01:59.000Z</time>
      </trkpt>
      <trkpt lat="48.90292" lon="2.31326">
        <ele>38.599998474121</ele>
        <time>2016-05-02T20:02:03.000Z</time>
      </trkpt>
      <trkpt lat="48.90275" lon="2.31347">
        <ele>38.799999237061</ele>
        <time>2016-05-02T20:02:08.000Z</time>
      </trkpt>
      <trkpt lat="48.90261" lon="2.31366">
        <ele>38.200000762939</ele>
        <time>2016-05-02T20:02:12.000Z</time>
      </trkpt>
      <trkpt lat="48.90247" lon="2.31386">
        <ele>37.799999237061</ele>
        <time>2016-05-02T20:02:16.000Z</time>
      </trkpt>
      <trkpt lat="48.90232" lon="2.31402">
        <ele>37.799999237061</ele>
        <time>2016-05-02T20:02:20.000Z</time>
      </trkpt>
      <trkpt lat="48.90216" lon="2.31419">
        <ele>38</ele>
        <time>2016-05-02T20:02:25.000Z</time>
      </trkpt>
      <trkpt lat="48.902" lon="2.3144">
        <ele>38.200000762939</ele>
        <time>2016-05-02T20:02:30.000Z</time>
      </trkpt>
      <trkpt lat="48.90187" lon="2.31456">
        <ele>39</ele>
        <time>2016-05-02T20:02:34.000Z</time>
      </trkpt>
      <trkpt lat="48.90172" lon="2.31481">
        <ele>39.799999237061</ele>
        <time>2016-05-02T20:02:37.000Z</time>
      </trkpt>
      <trkpt lat="48.9016" lon="2.31502">
        <ele>39.799999237061</ele>
        <time>2016-05-02T20:02:40.000Z</time>
      </trkpt>
      <trkpt lat="48.90145" lon="2.31517">
        <ele>39.599998474121</ele>
        <time>2016-05-02T20:02:44.000Z</time>
      </trkpt>
      <trkpt lat="48.90129" lon="2.31535">
        <ele>38.799999237061</ele>
        <time>2016-05-02T20:02:49.000Z</time>
      </trkpt>
      <trkpt lat="48.90114" lon="2.31554">
        <ele>38</ele>
        <time>2016-05-02T20:02:53.000Z</time>
      </trkpt>
      <trkpt lat="48.90099" lon="2.31574">
        <ele>37.200000762939</ele>
        <time>2016-05-02T20:02:57.000Z</time>
      </trkpt>
      <trkpt lat="48.90095" lon="2.3158">
        <ele>37.200000762939</ele>
        <time>2016-05-02T20:02:58.000Z</time>
      </trkpt>
      <trkpt lat="48.90089" lon="2.31589">
        <ele>37.400001525879</ele>
        <time>2016-05-02T20:03:00.000Z</time>
      </trkpt>
      <trkpt lat="48.90078" lon="2.31616">
        <ele>37.200000762939</ele>
        <time>2016-05-02T20:03:04.000Z</time>
      </trkpt>
      <trkpt lat="48.90065" lon="2.31646">
        <ele>37</ele>
        <time>2016-05-02T20:03:08.000Z</time>
      </trkpt>
      <trkpt lat="48.90054" lon="2.31672">
        <ele>37</ele>
        <time>2016-05-02T20:03:12.000Z</time>
      </trkpt>
      <trkpt lat="48.90042" lon="2.31698">
        <ele>37.400001525879</ele>
        <time>2016-05-02T20:03:16.000Z</time>
      </trkpt>
      <trkpt lat="48.90032" lon="2.31723">
        <ele>37.200000762939</ele>
        <time>2016-05-02T20:03:20.000Z</time>
      </trkpt>
      <trkpt lat="48.90023" lon="2.31747">
        <ele>37</ele>
        <time>2016-05-02T20:03:24.000Z</time>
      </trkpt>
      <trkpt lat="48.90013" lon="2.31774">
        <ele>36.799999237061</ele>
        <time>2016-05-02T20:03:28.000Z</time>
      </trkpt>
      <trkpt lat="48.90004" lon="2.31801">
        <ele>36.599998474121</ele>
        <time>2016-05-02T20:03:32.000Z</time>
      </trkpt>
      <trkpt lat="48.90001" lon="2.31807">
        <ele>36.400001525879</ele>
        <time>2016-05-02T20:03:33.000Z</time>
      </trkpt>
      <trkpt lat="48.89991" lon="2.31835">
        <ele>36.400001525879</ele>
        <time>2016-05-02T20:03:37.000Z</time>
      </trkpt>
      <trkpt lat="48.89988" lon="2.31849">
        <ele>36.599998474121</ele>
        <time>2016-05-02T20:03:39.000Z</time>
      </trkpt>
      <trkpt lat="48.89981" lon="2.31875">
        <ele>37</ele>
        <time>2016-05-02T20:03:43.000Z</time>
      </trkpt>
      <trkpt lat="48.8998" lon="2.31882">
        <ele>37.200000762939</ele>
        <time>2016-05-02T20:03:44.000Z</time>
      </trkpt>
      <trkpt lat="48.89974" lon="2.31913">
        <ele>37.799999237061</ele>
        <time>2016-05-02T20:03:49.000Z</time>
      </trkpt>
      <trkpt lat="48.89966" lon="2.31939">
        <ele>38</ele>
        <time>2016-05-02T20:03:54.000Z</time>
      </trkpt>
      <trkpt lat="48.89961" lon="2.31954">
        <ele>38.400001525879</ele>
        <time>2016-05-02T20:03:57.000Z</time>
      </trkpt>
      <trkpt lat="48.89955" lon="2.31981">
        <ele>39.400001525879</ele>
        <time>2016-05-02T20:04:04.000Z</time>
      </trkpt>
      <trkpt lat="48.89955" lon="2.31984">
        <ele>39.599998474121</ele>
        <time>2016-05-02T20:04:05.000Z</time>
      </trkpt>
      <trkpt lat="48.89952" lon="2.31996">
        <ele>40</ele>
        <time>2016-05-02T20:04:09.000Z</time>
      </trkpt>
      <trkpt lat="48.89943" lon="2.32019">
        <ele>40.200000762939</ele>
        <time>2016-05-02T20:04:18.000Z</time>
      </trkpt>
      <trkpt lat="48.89943" lon="2.32024">
        <ele>40.400001525879</ele>
        <time>2016-05-02T20:04:20.000Z</time>
      </trkpt>
      <trkpt lat="48.89937" lon="2.3203">
        <ele>40.400001525879</ele>
        <time>2016-05-02T20:04:28.000Z</time>
      </trkpt>
      <trkpt lat="48.89935" lon="2.32046">
        <ele>40.799999237061</ele>
        <time>2016-05-02T20:05:09.000Z</time>
      </trkpt>
      <trkpt lat="48.89931" lon="2.32073">
        <ele>41.200000762939</ele>
        <time>2016-05-02T20:05:15.000Z</time>
      </trkpt>
      <trkpt lat="48.89924" lon="2.321">
        <ele>42</ele>
        <time>2016-05-02T20:05:22.000Z</time>
      </trkpt>
      <trkpt lat="48.89915" lon="2.32128">
        <ele>42.799999237061</ele>
        <time>2016-05-02T20:05:29.000Z</time>
      </trkpt>
      <trkpt lat="48.89911" lon="2.32141">
        <ele>43</ele>
        <time>2016-05-02T20:05:34.000Z</time>
      </trkpt>
      <trkpt lat="48.89907" lon="2.32154">
        <ele>43.200000762939</ele>
        <time>2016-05-02T20:05:45.000Z</time>
      </trkpt>
      <trkpt lat="48.89901" lon="2.32181">
        <ele>43.599998474121</ele>
        <time>2016-05-02T20:05:52.000Z</time>
      </trkpt>
      <trkpt lat="48.89893" lon="2.3221">
        <ele>43.799999237061</ele>
        <time>2016-05-02T20:05:59.000Z</time>
      </trkpt>
      <trkpt lat="48.89888" lon="2.32237">
        <ele>42.799999237061</ele>
        <time>2016-05-02T20:06:05.000Z</time>
      </trkpt>
      <trkpt lat="48.8988" lon="2.32266">
        <ele>42.200000762939</ele>
        <time>2016-05-02T20:06:12.000Z</time>
      </trkpt>
      <trkpt lat="48.89873" lon="2.32294">
        <ele>43</ele>
        <time>2016-05-02T20:06:19.000Z</time>
      </trkpt>
      <trkpt lat="48.89859" lon="2.32315">
        <ele>43.599998474121</ele>
        <time>2016-05-02T20:06:25.000Z</time>
      </trkpt>
      <trkpt lat="48.89841" lon="2.32331">
        <ele>44.599998474121</ele>
        <time>2016-05-02T20:06:31.000Z</time>
      </trkpt>
      <trkpt lat="48.89823" lon="2.32332">
        <ele>45.400001525879</ele>
        <time>2016-05-02T20:06:37.000Z</time>
      </trkpt>
      <trkpt lat="48.89804" lon="2.32337">
        <ele>46.400001525879</ele>
        <time>2016-05-02T20:06:45.000Z</time>
      </trkpt>
      <trkpt lat="48.89784" lon="2.32333">
        <ele>46.799999237061</ele>
        <time>2016-05-02T20:06:52.000Z</time>
      </trkpt>
      <trkpt lat="48.89766" lon="2.32334">
        <ele>47.599998474121</ele>
        <time>2016-05-02T20:06:57.000Z</time>
      </trkpt>
      <trkpt lat="48.89752" lon="2.32357">
        <ele>49.200000762939</ele>
        <time>2016-05-02T20:07:03.000Z</time>
      </trkpt>
      <trkpt lat="48.89751" lon="2.32385">
        <ele>50.599998474121</ele>
        <time>2016-05-02T20:07:09.000Z</time>
      </trkpt>
      <trkpt lat="48.89751" lon="2.32416">
        <ele>50.799999237061</ele>
        <time>2016-05-02T20:07:16.000Z</time>
      </trkpt>
      <trkpt lat="48.89734" lon="2.32429">
        <ele>50.799999237061</ele>
        <time>2016-05-02T20:07:24.000Z</time>
      </trkpt>
      <trkpt lat="48.89715" lon="2.32443">
        <ele>51</ele>
        <time>2016-05-02T20:07:30.000Z</time>
      </trkpt>
      <trkpt lat="48.89698" lon="2.32454">
        <ele>51</ele>
        <time>2016-05-02T20:07:36.000Z</time>
      </trkpt>
      <trkpt lat="48.89681" lon="2.32469">
        <ele>51.400001525879</ele>
        <time>2016-05-02T20:07:42.000Z</time>
      </trkpt>
      <trkpt lat="48.89664" lon="2.32488">
        <ele>51.400001525879</ele>
        <time>2016-05-02T20:07:48.000Z</time>
      </trkpt>
      <trkpt lat="48.8965" lon="2.32502">
        <ele>51.200000762939</ele>
        <time>2016-05-02T20:07:56.000Z</time>
      </trkpt>
      <trkpt lat="48.89642" lon="2.32499">
        <ele>50.799999237061</ele>
        <time>2016-05-02T20:08:05.000Z</time>
      </trkpt>
      <trkpt lat="48.89626" lon="2.32485">
        <ele>50.599998474121</ele>
        <time>2016-05-02T20:08:11.000Z</time>
      </trkpt>
      <trkpt lat="48.8961" lon="2.32471">
        <ele>50.400001525879</ele>
        <time>2016-05-02T20:08:17.000Z</time>
      </trkpt>
      <trkpt lat="48.89592" lon="2.32477">
        <ele>50.200000762939</ele>
        <time>2016-05-02T20:08:23.000Z</time>
      </trkpt>
      <trkpt lat="48.89585" lon="2.32505">
        <ele>50.599998474121</ele>
        <time>2016-05-02T20:08:28.000Z</time>
      </trkpt>
      <trkpt lat="48.89579" lon="2.32535">
        <ele>50.599998474121</ele>
        <time>2016-05-02T20:08:33.000Z</time>
      </trkpt>
      <trkpt lat="48.89573" lon="2.32565">
        <ele>51</ele>
        <time>2016-05-02T20:08:38.000Z</time>
      </trkpt>
      <trkpt lat="48.89569" lon="2.32597">
        <ele>51.799999237061</ele>
        <time>2016-05-02T20:08:43.000Z</time>
      </trkpt>
      <trkpt lat="48.89568" lon="2.32625">
        <ele>52.400001525879</ele>
        <time>2016-05-02T20:08:48.000Z</time>
      </trkpt>
      <trkpt lat="48.89567" lon="2.32653">
        <ele>52.400001525879</ele>
        <time>2016-05-02T20:08:55.000Z</time>
      </trkpt>
      <trkpt lat="48.89549" lon="2.3265">
        <ele>52.599998474121</ele>
        <time>2016-05-02T20:09:02.000Z</time>
      </trkpt>
      <trkpt lat="48.89531" lon="2.32644">
        <ele>53</ele>
        <time>2016-05-02T20:09:07.000Z</time>
      </trkpt>
      <trkpt lat="48.89511" lon="2.3263">
        <ele>53.200000762939</ele>
        <time>2016-05-02T20:09:12.000Z</time>
      </trkpt>
      <trkpt lat="48.89489" lon="2.32617">
        <ele>53.400001525879</ele>
        <time>2016-05-02T20:09:15.000Z</time>
      </trkpt>
      <trkpt lat="48.89471" lon="2.32605">
        <ele>53.599998474121</ele>
        <time>2016-05-02T20:09:18.000Z</time>
      </trkpt>
      <trkpt lat="48.89451" lon="2.32591">
        <ele>53.799999237061</ele>
        <time>2016-05-02T20:09:22.000Z</time>
      </trkpt>
      <trkpt lat="48.89431" lon="2.32579">
        <ele>53.799999237061</ele>
        <time>2016-05-02T20:09:26.000Z</time>
      </trkpt>
      <trkpt lat="48.89421" lon="2.32573">
        <ele>53.599998474121</ele>
        <time>2016-05-02T20:09:28.000Z</time>
      </trkpt>
      <trkpt lat="48.894" lon="2.32564">
        <ele>53.400001525879</ele>
        <time>2016-05-02T20:09:32.000Z</time>
      </trkpt>
      <trkpt lat="48.8938" lon="2.32554">
        <ele>53</ele>
        <time>2016-05-02T20:09:36.000Z</time>
      </trkpt>
      <trkpt lat="48.89376" lon="2.32549">
        <ele>52.799999237061</ele>
        <time>2016-05-02T20:09:37.000Z</time>
      </trkpt>
      <trkpt lat="48.89358" lon="2.3254">
        <ele>52.599998474121</ele>
        <time>2016-05-02T20:09:42.000Z</time>
      </trkpt>
      <trkpt lat="48.89352" lon="2.32539">
        <ele>52.599998474121</ele>
        <time>2016-05-02T20:09:44.000Z</time>
      </trkpt>
      <trkpt lat="48.8935" lon="2.32539">
        <ele>52.599998474121</ele>
        <time>2016-05-02T20:09:45.000Z</time>
      </trkpt>
      <trkpt lat="48.89347" lon="2.32537">
        <ele>52.400001525879</ele>
        <time>2016-05-02T20:09:47.000Z</time>
      </trkpt>
      <trkpt lat="48.89343" lon="2.32536">
        <ele>52.400001525879</ele>
        <time>2016-05-02T20:09:49.000Z</time>
      </trkpt>
      <trkpt lat="48.89336" lon="2.32532">
        <ele>52.400001525879</ele>
        <time>2016-05-02T20:09:52.000Z</time>
      </trkpt>
      <trkpt lat="48.89331" lon="2.32529">
        <ele>52.400001525879</ele>
        <time>2016-05-02T20:09:54.000Z</time>
      </trkpt>
      <trkpt lat="48.89315" lon="2.32521">
        <ele>52.200000762939</ele>
        <time>2016-05-02T20:09:59.000Z</time>
      </trkpt>
      <trkpt lat="48.89295" lon="2.3251">
        <ele>52.200000762939</ele>
        <time>2016-05-02T20:10:04.000Z</time>
      </trkpt>
      <trkpt lat="48.89276" lon="2.32501">
        <ele>52</ele>
        <time>2016-05-02T20:10:09.000Z</time>
      </trkpt>
      <trkpt lat="48.8927" lon="2.32501">
        <ele>52</ele>
        <time>2016-05-02T20:10:12.000Z</time>
      </trkpt>
      <trkpt lat="48.89243" lon="2.32492">
        <ele>52</ele>
        <time>2016-05-02T20:10:43.000Z</time>
      </trkpt>
      <trkpt lat="48.89242" lon="2.32496">
        <ele>52</ele>
        <time>2016-05-02T20:10:45.000Z</time>
      </trkpt>
      <trkpt lat="48.89229" lon="2.32518">
        <ele>52.200000762939</ele>
        <time>2016-05-02T20:10:51.000Z</time>
      </trkpt>
      <trkpt lat="48.8922" lon="2.32544">
        <ele>52.799999237061</ele>
        <time>2016-05-02T20:10:57.000Z</time>
      </trkpt>
      <trkpt lat="48.89212" lon="2.3257">
        <ele>53.400001525879</ele>
        <time>2016-05-02T20:11:03.000Z</time>
      </trkpt>
      <trkpt lat="48.89205" lon="2.32598">
        <ele>53.599998474121</ele>
        <time>2016-05-02T20:11:09.000Z</time>
      </trkpt>
      <trkpt lat="48.89198" lon="2.32624">
        <ele>54.200000762939</ele>
        <time>2016-05-02T20:11:16.000Z</time>
      </trkpt>
      <trkpt lat="48.89186" lon="2.32645">
        <ele>55</ele>
        <time>2016-05-02T20:11:22.000Z</time>
      </trkpt>
      <trkpt lat="48.89176" lon="2.32672">
        <ele>55.599998474121</ele>
        <time>2016-05-02T20:11:29.000Z</time>
      </trkpt>
      <trkpt lat="48.89165" lon="2.32685">
        <ele>56.200000762939</ele>
        <time>2016-05-02T20:11:36.000Z</time>
      </trkpt>
      <trkpt lat="48.89144" lon="2.32683">
        <ele>56.799999237061</ele>
        <time>2016-05-02T20:11:45.000Z</time>
      </trkpt>
      <trkpt lat="48.89124" lon="2.32675">
        <ele>57.400001525879</ele>
        <time>2016-05-02T20:11:52.000Z</time>
      </trkpt>
      <trkpt lat="48.89104" lon="2.32672">
        <ele>58.400001525879</ele>
        <time>2016-05-02T20:11:57.000Z</time>
      </trkpt>
      <trkpt lat="48.89084" lon="2.32668">
        <ele>59.200000762939</ele>
        <time>2016-05-02T20:12:03.000Z</time>
      </trkpt>
      <trkpt lat="48.89064" lon="2.32664">
        <ele>60</ele>
        <time>2016-05-02T20:12:09.000Z</time>
      </trkpt>
      <trkpt lat="48.89046" lon="2.32662">
        <ele>60.799999237061</ele>
        <time>2016-05-02T20:12:15.000Z</time>
      </trkpt>
      <trkpt lat="48.8903" lon="2.32674">
        <ele>61.799999237061</ele>
        <time>2016-05-02T20:12:22.000Z</time>
      </trkpt>
      <trkpt lat="48.89018" lon="2.32695">
        <ele>62</ele>
        <time>2016-05-02T20:12:28.000Z</time>
      </trkpt>
      <trkpt lat="48.89004" lon="2.32714">
        <ele>62.200000762939</ele>
        <time>2016-05-02T20:12:33.000Z</time>
      </trkpt>
      <trkpt lat="48.8899" lon="2.32733">
        <ele>62.599998474121</ele>
        <time>2016-05-02T20:12:38.000Z</time>
      </trkpt>
      <trkpt lat="48.88976" lon="2.32752">
        <ele>63.200000762939</ele>
        <time>2016-05-02T20:12:43.000Z</time>
      </trkpt>
      <trkpt lat="48.88965" lon="2.32773">
        <ele>63.599998474121</ele>
        <time>2016-05-02T20:12:48.000Z</time>
      </trkpt>
      <trkpt lat="48.88956" lon="2.32797">
        <ele>63.400001525879</ele>
        <time>2016-05-02T20:12:54.000Z</time>
      </trkpt>
      <trkpt lat="48.88945" lon="2.32822">
        <ele>63.200000762939</ele>
        <time>2016-05-02T20:13:01.000Z</time>
      </trkpt>
      <trkpt lat="48.88928" lon="2.32825">
        <ele>63.400001525879</ele>
        <time>2016-05-02T20:13:10.000Z</time>
      </trkpt>
      <trkpt lat="48.88912" lon="2.3281">
        <ele>64.400001525879</ele>
        <time>2016-05-02T20:13:15.000Z</time>
      </trkpt>
      <trkpt lat="48.88895" lon="2.32793">
        <ele>65.400001525879</ele>
        <time>2016-05-02T20:13:21.000Z</time>
      </trkpt>
      <trkpt lat="48.88878" lon="2.32781">
        <ele>66.199996948242</ele>
        <time>2016-05-02T20:13:27.000Z</time>
      </trkpt>
      <trkpt lat="48.88861" lon="2.32767">
        <ele>67.199996948242</ele>
        <time>2016-05-02T20:13:33.000Z</time>
      </trkpt>
      <trkpt lat="48.88845" lon="2.32752">
        <ele>68.800003051758</ele>
        <time>2016-05-02T20:13:39.000Z</time>
      </trkpt>
      <trkpt lat="48.88835" lon="2.3275">
        <ele>69.599998474121</ele>
        <time>2016-05-02T20:13:42.000Z</time>
      </trkpt>
      <trkpt lat="48.8882" lon="2.32765">
        <ele>70.400001525879</ele>
        <time>2016-05-02T20:13:48.000Z</time>
      </trkpt>
      <trkpt lat="48.88805" lon="2.32782">
        <ele>71.199996948242</ele>
        <time>2016-05-02T20:13:54.000Z</time>
      </trkpt>
      <trkpt lat="48.88789" lon="2.32796">
        <ele>72.800003051758</ele>
        <time>2016-05-02T20:14:01.000Z</time>
      </trkpt>
      <trkpt lat="48.88774" lon="2.32811">
        <ele>74.199996948242</ele>
        <time>2016-05-02T20:14:08.000Z</time>
      </trkpt>
      <trkpt lat="48.88759" lon="2.3283">
        <ele>74.599998474121</ele>
        <time>2016-05-02T20:14:15.000Z</time>
      </trkpt>
      <trkpt lat="48.88755" lon="2.32835">
        <ele>74.599998474121</ele>
        <time>2016-05-02T20:14:17.000Z</time>
      </trkpt>
      <trkpt lat="48.88749" lon="2.32842">
        <ele>74.400001525879</ele>
        <time>2016-05-02T20:14:21.000Z</time>
      </trkpt>
      <trkpt lat="48.88749" lon="2.32841">
        <ele>74.599998474121</ele>
        <time>2016-05-02T20:14:23.000Z</time>
      </trkpt>
      <trkpt lat="48.88741" lon="2.3284">
        <ele>75</ele>
        <time>2016-05-02T20:14:29.000Z</time>
      </trkpt>
      <trkpt lat="48.88737" lon="2.32843">
        <ele>75</ele>
        <time>2016-05-02T20:14:31.000Z</time>
      </trkpt>
      <trkpt lat="48.88727" lon="2.32838">
        <ele>75.800003051758</ele>
        <time>2016-05-02T20:14:38.000Z</time>
      </trkpt>
      <trkpt lat="48.88724" lon="2.32838">
        <ele>75.800003051758</ele>
        <time>2016-05-02T20:14:41.000Z</time>
      </trkpt>
      <trkpt lat="48.88703" lon="2.32824">
        <ele>77.400001525879</ele>
        <time>2016-05-02T20:14:54.000Z</time>
      </trkpt>
      <trkpt lat="48.88688" lon="2.32807">
        <ele>78</ele>
        <time>2016-05-02T20:15:02.000Z</time>
      </trkpt>
      <trkpt lat="48.88673" lon="2.32789">
        <ele>77.400001525879</ele>
        <time>2016-05-02T20:15:10.000Z</time>
      </trkpt>
      <trkpt lat="48.88672" lon="2.32785">
        <ele>77.400001525879</ele>
        <time>2016-05-02T20:15:13.000Z</time>
      </trkpt>
      <trkpt lat="48.88666" lon="2.32773">
        <ele>77.199996948242</ele>
        <time>2016-05-02T20:15:20.000Z</time>
      </trkpt>
      <trkpt lat="48.88665" lon="2.32772">
        <ele>77.199996948242</ele>
        <time>2016-05-02T20:15:21.000Z</time>
      </trkpt>
      <trkpt lat="48.88667" lon="2.32781">
        <ele>77.199996948242</ele>
        <time>2016-05-02T20:15:55.000Z</time>
      </trkpt>
      <trkpt lat="48.88656" lon="2.32804">
        <ele>77</ele>
        <time>2016-05-02T20:16:01.000Z</time>
      </trkpt>
      <trkpt lat="48.88639" lon="2.32822">
        <ele>77.199996948242</ele>
        <time>2016-05-02T20:16:07.000Z</time>
      </trkpt>
      <trkpt lat="48.88621" lon="2.32839">
        <ele>76.800003051758</ele>
        <time>2016-05-02T20:16:14.000Z</time>
      </trkpt>
      <trkpt lat="48.88602" lon="2.32854">
        <ele>76.400001525879</ele>
        <time>2016-05-02T20:16:21.000Z</time>
      </trkpt>
      <trkpt lat="48.88586" lon="2.32874">
        <ele>75.199996948242</ele>
        <time>2016-05-02T20:16:27.000Z</time>
      </trkpt>
      <trkpt lat="48.88571" lon="2.32895">
        <ele>74.800003051758</ele>
        <time>2016-05-02T20:16:32.000Z</time>
      </trkpt>
      <trkpt lat="48.8856" lon="2.32922">
        <ele>74.599998474121</ele>
        <time>2016-05-02T20:16:38.000Z</time>
      </trkpt>
      <trkpt lat="48.88556" lon="2.32922">
        <ele>74.400001525879</ele>
        <time>2016-05-02T20:16:39.000Z</time>
      </trkpt>
      <trkpt lat="48.88538" lon="2.32924">
        <ele>73.800003051758</ele>
        <time>2016-05-02T20:16:43.000Z</time>
      </trkpt>
      <trkpt lat="48.88533" lon="2.32924">
        <ele>73.800003051758</ele>
        <time>2016-05-02T20:16:44.000Z</time>
      </trkpt>
      <trkpt lat="48.88514" lon="2.32925">
        <ele>73.400001525879</ele>
        <time>2016-05-02T20:16:48.000Z</time>
      </trkpt>
      <trkpt lat="48.88494" lon="2.32931">
        <ele>72.599998474121</ele>
        <time>2016-05-02T20:16:53.000Z</time>
      </trkpt>
      <trkpt lat="48.88483" lon="2.32942">
        <ele>71.800003051758</ele>
        <time>2016-05-02T20:16:59.000Z</time>
      </trkpt>
      <trkpt lat="48.88481" lon="2.32953">
        <ele>71.599998474121</ele>
        <time>2016-05-02T20:17:07.000Z</time>
      </trkpt>
      <trkpt lat="48.8848" lon="2.32955">
        <ele>71.400001525879</ele>
        <time>2016-05-02T20:17:10.000Z</time>
      </trkpt>
      <trkpt lat="48.8847" lon="2.32977">
        <ele>72.199996948242</ele>
        <time>2016-05-02T20:17:30.000Z</time>
      </trkpt>
      <trkpt lat="48.88458" lon="2.32976">
        <ele>72.199996948242</ele>
        <time>2016-05-02T20:18:45.000Z</time>
      </trkpt>
      <trkpt lat="48.88449" lon="2.32987">
        <ele>72.599998474121</ele>
        <time>2016-05-02T20:19:12.000Z</time>
      </trkpt>
      <trkpt lat="48.88444" lon="2.33018">
        <ele>73</ele>
        <time>2016-05-02T20:19:20.000Z</time>
      </trkpt>
      <trkpt lat="48.88439" lon="2.33045">
        <ele>73</ele>
        <time>2016-05-02T20:19:29.000Z</time>
      </trkpt>
      <trkpt lat="48.88437" lon="2.33048">
        <ele>73</ele>
        <time>2016-05-02T20:19:31.000Z</time>
      </trkpt>
      <trkpt lat="48.88432" lon="2.33046">
        <ele>72.800003051758</ele>
        <time>2016-05-02T20:19:43.000Z</time>
      </trkpt>
      <trkpt lat="48.88429" lon="2.33056">
        <ele>72.800003051758</ele>
        <time>2016-05-02T20:20:07.000Z</time>
      </trkpt>
      <trkpt lat="48.88426" lon="2.33072">
        <ele>72.800003051758</ele>
        <time>2016-05-02T20:20:12.000Z</time>
      </trkpt>
      <trkpt lat="48.88413" lon="2.33064">
        <ele>72.400001525879</ele>
        <time>2016-05-02T20:20:17.000Z</time>
      </trkpt>
      <trkpt lat="48.88396" lon="2.33052">
        <ele>72.199996948242</ele>
        <time>2016-05-02T20:20:22.000Z</time>
      </trkpt>
      <trkpt lat="48.88376" lon="2.33044">
        <ele>71.800003051758</ele>
        <time>2016-05-02T20:20:29.000Z</time>
      </trkpt>
      <trkpt lat="48.88358" lon="2.33033">
        <ele>71.400001525879</ele>
        <time>2016-05-02T20:20:34.000Z</time>
      </trkpt>
      <trkpt lat="48.88348" lon="2.3303">
        <ele>71</ele>
        <time>2016-05-02T20:20:38.000Z</time>
      </trkpt>
      <trkpt lat="48.88337" lon="2.33029">
        <ele>70.199996948242</ele>
        <time>2016-05-02T20:20:42.000Z</time>
      </trkpt>
      <trkpt lat="48.88323" lon="2.33009">
        <ele>69.199996948242</ele>
        <time>2016-05-02T20:20:48.000Z</time>
      </trkpt>
      <trkpt lat="48.88307" lon="2.32992">
        <ele>68.199996948242</ele>
        <time>2016-05-02T20:20:53.000Z</time>
      </trkpt>
      <trkpt lat="48.88287" lon="2.32991">
        <ele>67</ele>
        <time>2016-05-02T20:20:59.000Z</time>
      </trkpt>
      <trkpt lat="48.88279" lon="2.33015">
        <ele>66.800003051758</ele>
        <time>2016-05-02T20:21:03.000Z</time>
      </trkpt>
      <trkpt lat="48.8827" lon="2.3304">
        <ele>66.800003051758</ele>
        <time>2016-05-02T20:21:07.000Z</time>
      </trkpt>
      <trkpt lat="48.88259" lon="2.3307">
        <ele>67</ele>
        <time>2016-05-02T20:21:11.000Z</time>
      </trkpt>
      <trkpt lat="48.88249" lon="2.33093">
        <ele>67.400001525879</ele>
        <time>2016-05-02T20:21:14.000Z</time>
      </trkpt>
      <trkpt lat="48.88236" lon="2.33121">
        <ele>67.599998474121</ele>
        <time>2016-05-02T20:21:18.000Z</time>
      </trkpt>
      <trkpt lat="48.88225" lon="2.33147">
        <ele>66.800003051758</ele>
        <time>2016-05-02T20:21:22.000Z</time>
      </trkpt>
      <trkpt lat="48.88217" lon="2.33174">
        <ele>66</ele>
        <time>2016-05-02T20:21:27.000Z</time>
      </trkpt>
      <trkpt lat="48.88215" lon="2.33177">
        <ele>66</ele>
        <time>2016-05-02T20:21:28.000Z</time>
      </trkpt>
      <trkpt lat="48.88197" lon="2.33177">
        <ele>64.800003051758</ele>
        <time>2016-05-02T20:21:35.000Z</time>
      </trkpt>
      <trkpt lat="48.88176" lon="2.33171">
        <ele>63.400001525879</ele>
        <time>2016-05-02T20:21:40.000Z</time>
      </trkpt>
      <trkpt lat="48.88167" lon="2.33172">
        <ele>63</ele>
        <time>2016-05-02T20:21:42.000Z</time>
      </trkpt>
      <trkpt lat="48.88146" lon="2.3317">
        <ele>62</ele>
        <time>2016-05-02T20:21:46.000Z</time>
      </trkpt>
      <trkpt lat="48.8814" lon="2.33168">
        <ele>61.599998474121</ele>
        <time>2016-05-02T20:21:47.000Z</time>
      </trkpt>
      <trkpt lat="48.88119" lon="2.33166">
        <ele>60.599998474121</ele>
        <time>2016-05-02T20:21:51.000Z</time>
      </trkpt>
      <trkpt lat="48.88099" lon="2.33164">
        <ele>60</ele>
        <time>2016-05-02T20:21:54.000Z</time>
      </trkpt>
      <trkpt lat="48.8808" lon="2.33155">
        <ele>59.400001525879</ele>
        <time>2016-05-02T20:21:57.000Z</time>
      </trkpt>
      <trkpt lat="48.8806" lon="2.33151">
        <ele>59.200000762939</ele>
        <time>2016-05-02T20:22:00.000Z</time>
      </trkpt>
      <trkpt lat="48.88038" lon="2.33152">
        <ele>58.799999237061</ele>
        <time>2016-05-02T20:22:04.000Z</time>
      </trkpt>
      <trkpt lat="48.88035" lon="2.33153">
        <ele>58.799999237061</ele>
        <time>2016-05-02T20:22:05.000Z</time>
      </trkpt>
      <trkpt lat="48.88024" lon="2.33149">
        <ele>58.599998474121</ele>
        <time>2016-05-02T20:22:09.000Z</time>
      </trkpt>
      <trkpt lat="48.8801" lon="2.3315">
        <ele>57.799999237061</ele>
        <time>2016-05-02T20:22:15.000Z</time>
      </trkpt>
      <trkpt lat="48.88006" lon="2.33151">
        <ele>57.799999237061</ele>
        <time>2016-05-02T20:22:16.000Z</time>
      </trkpt>
      <trkpt lat="48.87984" lon="2.33152">
        <ele>57</ele>
        <time>2016-05-02T20:22:21.000Z</time>
      </trkpt>
      <trkpt lat="48.87965" lon="2.3315">
        <ele>56.200000762939</ele>
        <time>2016-05-02T20:22:25.000Z</time>
      </trkpt>
      <trkpt lat="48.87943" lon="2.33155">
        <ele>55.799999237061</ele>
        <time>2016-05-02T20:22:29.000Z</time>
      </trkpt>
      <trkpt lat="48.87935" lon="2.33155">
        <ele>55.400001525879</ele>
        <time>2016-05-02T20:22:31.000Z</time>
      </trkpt>
      <trkpt lat="48.8792" lon="2.33155">
        <ele>54.799999237061</ele>
        <time>2016-05-02T20:22:34.000Z</time>
      </trkpt>
      <trkpt lat="48.87901" lon="2.33158">
        <ele>53.599998474121</ele>
        <time>2016-05-02T20:22:37.000Z</time>
      </trkpt>
      <trkpt lat="48.87884" lon="2.33165">
        <ele>52.599998474121</ele>
        <time>2016-05-02T20:22:40.000Z</time>
      </trkpt>
      <trkpt lat="48.87863" lon="2.33167">
        <ele>51.400001525879</ele>
        <time>2016-05-02T20:22:43.000Z</time>
      </trkpt>
      <trkpt lat="48.87843" lon="2.33173">
        <ele>51</ele>
        <time>2016-05-02T20:22:46.000Z</time>
      </trkpt>
      <trkpt lat="48.87825" lon="2.3318">
        <ele>50.599998474121</ele>
        <time>2016-05-02T20:22:49.000Z</time>
      </trkpt>
      <trkpt lat="48.87802" lon="2.3319">
        <ele>50.400001525879</ele>
        <time>2016-05-02T20:22:53.000Z</time>
      </trkpt>
      <trkpt lat="48.8779" lon="2.33198">
        <ele>49.799999237061</ele>
        <time>2016-05-02T20:22:56.000Z</time>
      </trkpt>
      <trkpt lat="48.87773" lon="2.33212">
        <ele>49.200000762939</ele>
        <time>2016-05-02T20:23:00.000Z</time>
      </trkpt>
      <trkpt lat="48.87757" lon="2.33224">
        <ele>48.400001525879</ele>
        <time>2016-05-02T20:23:04.000Z</time>
      </trkpt>
      <trkpt lat="48.87741" lon="2.3323">
        <ele>47.599998474121</ele>
        <time>2016-05-02T20:23:08.000Z</time>
      </trkpt>
      <trkpt lat="48.87721" lon="2.33234">
        <ele>46.599998474121</ele>
        <time>2016-05-02T20:23:13.000Z</time>
      </trkpt>
      <trkpt lat="48.87702" lon="2.33238">
        <ele>45.599998474121</ele>
        <time>2016-05-02T20:23:17.000Z</time>
      </trkpt>
      <trkpt lat="48.87695" lon="2.33238">
        <ele>45.200000762939</ele>
        <time>2016-05-02T20:23:18.000Z</time>
      </trkpt>
      <trkpt lat="48.87681" lon="2.33238">
        <ele>45.200000762939</ele>
        <time>2016-05-02T20:23:21.000Z</time>
      </trkpt>
      <trkpt lat="48.87666" lon="2.33229">
        <ele>45.599998474121</ele>
        <time>2016-05-02T20:23:36.000Z</time>
      </trkpt>
      <trkpt lat="48.87655" lon="2.33206">
        <ele>45.599998474121</ele>
        <time>2016-05-02T20:23:40.000Z</time>
      </trkpt>
      <trkpt lat="48.87645" lon="2.33184">
        <ele>45.599998474121</ele>
        <time>2016-05-02T20:23:45.000Z</time>
      </trkpt>
      <trkpt lat="48.87642" lon="2.33183">
        <ele>45.799999237061</ele>
        <time>2016-05-02T20:23:47.000Z</time>
      </trkpt>
      <trkpt lat="48.87637" lon="2.33185">
        <ele>46</ele>
        <time>2016-05-02T20:23:52.000Z</time>
      </trkpt>
      <trkpt lat="48.87617" lon="2.33194">
        <ele>46.599998474121</ele>
        <time>2016-05-02T20:24:11.000Z</time>
      </trkpt>
      <trkpt lat="48.87597" lon="2.33202">
        <ele>46.599998474121</ele>
        <time>2016-05-02T20:24:16.000Z</time>
      </trkpt>
      <trkpt lat="48.87576" lon="2.33209">
        <ele>46.400001525879</ele>
        <time>2016-05-02T20:24:21.000Z</time>
      </trkpt>
      <trkpt lat="48.87555" lon="2.33215">
        <ele>46.400001525879</ele>
        <time>2016-05-02T20:24:26.000Z</time>
      </trkpt>
      <trkpt lat="48.87535" lon="2.33221">
        <ele>46.400001525879</ele>
        <time>2016-05-02T20:24:31.000Z</time>
      </trkpt>
      <trkpt lat="48.87515" lon="2.33228">
        <ele>46.799999237061</ele>
        <time>2016-05-02T20:24:36.000Z</time>
      </trkpt>
      <trkpt lat="48.87494" lon="2.33233">
        <ele>47.799999237061</ele>
        <time>2016-05-02T20:24:40.000Z</time>
      </trkpt>
      <trkpt lat="48.87476" lon="2.33239">
        <ele>48.400001525879</ele>
        <time>2016-05-02T20:24:44.000Z</time>
      </trkpt>
      <trkpt lat="48.87456" lon="2.33245">
        <ele>49.200000762939</ele>
        <time>2016-05-02T20:24:48.000Z</time>
      </trkpt>
      <trkpt lat="48.87443" lon="2.33249">
        <ele>50</ele>
        <time>2016-05-02T20:24:51.000Z</time>
      </trkpt>
      <trkpt lat="48.87422" lon="2.3326">
        <ele>49.400001525879</ele>
        <time>2016-05-02T20:24:55.000Z</time>
      </trkpt>
      <trkpt lat="48.87402" lon="2.33269">
        <ele>49</ele>
        <time>2016-05-02T20:25:00.000Z</time>
      </trkpt>
      <trkpt lat="48.87374" lon="2.33277">
        <ele>48.200000762939</ele>
        <time>2016-05-02T20:25:04.000Z</time>
      </trkpt>
      <trkpt lat="48.87353" lon="2.33283">
        <ele>47</ele>
        <time>2016-05-02T20:25:08.000Z</time>
      </trkpt>
      <trkpt lat="48.87341" lon="2.33291">
        <ele>46.599998474121</ele>
        <time>2016-05-02T20:25:10.000Z</time>
      </trkpt>
      <trkpt lat="48.87333" lon="2.33298">
        <ele>46</ele>
        <time>2016-05-02T20:25:12.000Z</time>
      </trkpt>
      <trkpt lat="48.87319" lon="2.33303">
        <ele>46.200000762939</ele>
        <time>2016-05-02T20:25:16.000Z</time>
      </trkpt>
      <trkpt lat="48.87309" lon="2.33317">
        <ele>46.400001525879</ele>
        <time>2016-05-02T20:25:33.000Z</time>
      </trkpt>
      <trkpt lat="48.87299" lon="2.33334">
        <ele>46.599998474121</ele>
        <time>2016-05-02T20:25:39.000Z</time>
      </trkpt>
      <trkpt lat="48.8728" lon="2.33339">
        <ele>47.799999237061</ele>
        <time>2016-05-02T20:25:45.000Z</time>
      </trkpt>
      <trkpt lat="48.87262" lon="2.33345">
        <ele>48.799999237061</ele>
        <time>2016-05-02T20:25:50.000Z</time>
      </trkpt>
      <trkpt lat="48.87244" lon="2.33351">
        <ele>49.799999237061</ele>
        <time>2016-05-02T20:25:54.000Z</time>
      </trkpt>
      <trkpt lat="48.87224" lon="2.3336">
        <ele>51</ele>
        <time>2016-05-02T20:25:58.000Z</time>
      </trkpt>
      <trkpt lat="48.87205" lon="2.33367">
        <ele>50.599998474121</ele>
        <time>2016-05-02T20:26:02.000Z</time>
      </trkpt>
      <trkpt lat="48.87185" lon="2.33375">
        <ele>49.799999237061</ele>
        <time>2016-05-02T20:26:07.000Z</time>
      </trkpt>
      <trkpt lat="48.87167" lon="2.33382">
        <ele>48.799999237061</ele>
        <time>2016-05-02T20:26:11.000Z</time>
      </trkpt>
      <trkpt lat="48.87153" lon="2.3338">
        <ele>48.400001525879</ele>
        <time>2016-05-02T20:26:13.000Z</time>
      </trkpt>
      <trkpt lat="48.87133" lon="2.33383">
        <ele>48.400001525879</ele>
        <time>2016-05-02T20:26:16.000Z</time>
      </trkpt>
      <trkpt lat="48.87113" lon="2.33382">
        <ele>48.400001525879</ele>
        <time>2016-05-02T20:26:20.000Z</time>
      </trkpt>
      <trkpt lat="48.87102" lon="2.33395">
        <ele>48.200000762939</ele>
        <time>2016-05-02T20:26:26.000Z</time>
      </trkpt>
      <trkpt lat="48.871" lon="2.33397">
        <ele>48.200000762939</ele>
        <time>2016-05-02T20:26:27.000Z</time>
      </trkpt>
      <trkpt lat="48.87097" lon="2.33402">
        <ele>48</ele>
        <time>2016-05-02T20:26:41.000Z</time>
      </trkpt>
      <trkpt lat="48.87101" lon="2.33418">
        <ele>48.200000762939</ele>
        <time>2016-05-02T20:26:49.000Z</time>
      </trkpt>
      <trkpt lat="48.87101" lon="2.33451">
        <ele>48.599998474121</ele>
        <time>2016-05-02T20:26:56.000Z</time>
      </trkpt>
      <trkpt lat="48.87109" lon="2.3348">
        <ele>48.799999237061</ele>
        <time>2016-05-02T20:27:01.000Z</time>
      </trkpt>
      <trkpt lat="48.87115" lon="2.33506">
        <ele>49.400001525879</ele>
        <time>2016-05-02T20:27:06.000Z</time>
      </trkpt>
      <trkpt lat="48.8712" lon="2.33535">
        <ele>50.400001525879</ele>
        <time>2016-05-02T20:27:11.000Z</time>
      </trkpt>
      <trkpt lat="48.87125" lon="2.33564">
        <ele>51.400001525879</ele>
        <time>2016-05-02T20:27:16.000Z</time>
      </trkpt>
      <trkpt lat="48.8713" lon="2.33594">
        <ele>51.799999237061</ele>
        <time>2016-05-02T20:27:21.000Z</time>
      </trkpt>
      <trkpt lat="48.87136" lon="2.33625">
        <ele>52</ele>
        <time>2016-05-02T20:27:26.000Z</time>
      </trkpt>
      <trkpt lat="48.87142" lon="2.33653">
        <ele>52.400001525879</ele>
        <time>2016-05-02T20:27:31.000Z</time>
      </trkpt>
      <trkpt lat="48.87144" lon="2.33682">
        <ele>52.200000762939</ele>
        <time>2016-05-02T20:27:36.000Z</time>
      </trkpt>
      <trkpt lat="48.8715" lon="2.33711">
        <ele>51.200000762939</ele>
        <time>2016-05-02T20:27:41.000Z</time>
      </trkpt>
      <trkpt lat="48.87157" lon="2.33738">
        <ele>50.400001525879</ele>
        <time>2016-05-02T20:27:46.000Z</time>
      </trkpt>
      <trkpt lat="48.87162" lon="2.33767">
        <ele>50.200000762939</ele>
        <time>2016-05-02T20:27:51.000Z</time>
      </trkpt>
      <trkpt lat="48.8717" lon="2.33796">
        <ele>50.200000762939</ele>
        <time>2016-05-02T20:27:56.000Z</time>
      </trkpt>
      <trkpt lat="48.87173" lon="2.33825">
        <ele>50</ele>
        <time>2016-05-02T20:28:00.000Z</time>
      </trkpt>
      <trkpt lat="48.87179" lon="2.33855">
        <ele>49.799999237061</ele>
        <time>2016-05-02T20:28:04.000Z</time>
      </trkpt>
      <trkpt lat="48.87184" lon="2.33884">
        <ele>50</ele>
        <time>2016-05-02T20:28:08.000Z</time>
      </trkpt>
      <trkpt lat="48.87186" lon="2.33912">
        <ele>50</ele>
        <time>2016-05-02T20:28:12.000Z</time>
      </trkpt>
      <trkpt lat="48.87189" lon="2.33941">
        <ele>49.400001525879</ele>
        <time>2016-05-02T20:28:17.000Z</time>
      </trkpt>
      <trkpt lat="48.87191" lon="2.33961">
        <ele>48.799999237061</ele>
        <time>2016-05-02T20:28:21.000Z</time>
      </trkpt>
      <trkpt lat="48.87194" lon="2.33977">
        <ele>48.400001525879</ele>
        <time>2016-05-02T20:28:24.000Z</time>
      </trkpt>
      <trkpt lat="48.87195" lon="2.3399">
        <ele>48.200000762939</ele>
        <time>2016-05-02T20:28:27.000Z</time>
      </trkpt>
      <trkpt lat="48.87174" lon="2.33989">
        <ele>47.799999237061</ele>
        <time>2016-05-02T20:28:34.000Z</time>
      </trkpt>
      <trkpt lat="48.8717" lon="2.33987">
        <ele>47.799999237061</ele>
        <time>2016-05-02T20:28:35.000Z</time>
      </trkpt>
      <trkpt lat="48.87151" lon="2.33977">
        <ele>47.799999237061</ele>
        <time>2016-05-02T20:28:40.000Z</time>
      </trkpt>
      <trkpt lat="48.87133" lon="2.3397">
        <ele>47.599998474121</ele>
        <time>2016-05-02T20:28:45.000Z</time>
      </trkpt>
      <trkpt lat="48.87113" lon="2.33967">
        <ele>47.599998474121</ele>
        <time>2016-05-02T20:28:50.000Z</time>
      </trkpt>
      <trkpt lat="48.87092" lon="2.33958">
        <ele>48</ele>
        <time>2016-05-02T20:28:55.000Z</time>
      </trkpt>
      <trkpt lat="48.87074" lon="2.33945">
        <ele>48.599998474121</ele>
        <time>2016-05-02T20:28:59.000Z</time>
      </trkpt>
      <trkpt lat="48.87057" lon="2.33932">
        <ele>49</ele>
        <time>2016-05-02T20:29:03.000Z</time>
      </trkpt>
      <trkpt lat="48.87038" lon="2.33925">
        <ele>49.599998474121</ele>
        <time>2016-05-02T20:29:07.000Z</time>
      </trkpt>
      <trkpt lat="48.87019" lon="2.33911">
        <ele>50</ele>
        <time>2016-05-02T20:29:11.000Z</time>
      </trkpt>
      <trkpt lat="48.87007" lon="2.33898">
        <ele>50</ele>
        <time>2016-05-02T20:29:14.000Z</time>
      </trkpt>
      <trkpt lat="48.8699" lon="2.33885">
        <ele>50</ele>
        <time>2016-05-02T20:29:18.000Z</time>
      </trkpt>
      <trkpt lat="48.86976" lon="2.33875">
        <ele>50</ele>
        <time>2016-05-02T20:29:22.000Z</time>
      </trkpt>
      <trkpt lat="48.86962" lon="2.33867">
        <ele>49.799999237061</ele>
        <time>2016-05-02T20:29:26.000Z</time>
      </trkpt>
      <trkpt lat="48.8695" lon="2.33856">
        <ele>49.799999237061</ele>
        <time>2016-05-02T20:29:30.000Z</time>
      </trkpt>
      <trkpt lat="48.86947" lon="2.33853">
        <ele>49.799999237061</ele>
        <time>2016-05-02T20:29:32.000Z</time>
      </trkpt>
      <trkpt lat="48.86943" lon="2.33854">
        <ele>49.799999237061</ele>
        <time>2016-05-02T20:29:34.000Z</time>
      </trkpt>
      <trkpt lat="48.86932" lon="2.33857">
        <ele>49.799999237061</ele>
        <time>2016-05-02T20:29:39.000Z</time>
      </trkpt>
      <trkpt lat="48.8693" lon="2.33857">
        <ele>49.799999237061</ele>
        <time>2016-05-02T20:29:40.000Z</time>
      </trkpt>
      <trkpt lat="48.86912" lon="2.3385">
        <ele>50.200000762939</ele>
        <time>2016-05-02T20:29:46.000Z</time>
      </trkpt>
      <trkpt lat="48.86891" lon="2.3384">
        <ele>50.400001525879</ele>
        <time>2016-05-02T20:29:51.000Z</time>
      </trkpt>
      <trkpt lat="48.86872" lon="2.33834">
        <ele>50.799999237061</ele>
        <time>2016-05-02T20:29:56.000Z</time>
      </trkpt>
      <trkpt lat="48.86851" lon="2.33823">
        <ele>51</ele>
        <time>2016-05-02T20:30:02.000Z</time>
      </trkpt>
      <trkpt lat="48.86833" lon="2.33809">
        <ele>51</ele>
        <time>2016-05-02T20:30:07.000Z</time>
      </trkpt>
      <trkpt lat="48.86813" lon="2.33803">
        <ele>50.599998474121</ele>
        <time>2016-05-02T20:30:12.000Z</time>
      </trkpt>
      <trkpt lat="48.86794" lon="2.33794">
        <ele>50.400001525879</ele>
        <time>2016-05-02T20:30:17.000Z</time>
      </trkpt>
      <trkpt lat="48.86773" lon="2.33788">
        <ele>50</ele>
        <time>2016-05-02T20:30:22.000Z</time>
      </trkpt>
      <trkpt lat="48.86752" lon="2.33782">
        <ele>50.200000762939</ele>
        <time>2016-05-02T20:30:27.000Z</time>
      </trkpt>
      <trkpt lat="48.86734" lon="2.33776">
        <ele>50.400001525879</ele>
        <time>2016-05-02T20:30:32.000Z</time>
      </trkpt>
      <trkpt lat="48.86713" lon="2.33767">
        <ele>50.599998474121</ele>
        <time>2016-05-02T20:30:37.000Z</time>
      </trkpt>
      <trkpt lat="48.86696" lon="2.33754">
        <ele>50.799999237061</ele>
        <time>2016-05-02T20:30:41.000Z</time>
      </trkpt>
      <trkpt lat="48.86681" lon="2.33735">
        <ele>51</ele>
        <time>2016-05-02T20:30:43.000Z</time>
      </trkpt>
      <trkpt lat="48.86665" lon="2.33729">
        <ele>50.400001525879</ele>
        <time>2016-05-02T20:30:47.000Z</time>
      </trkpt>
      <trkpt lat="48.86643" lon="2.33721">
        <ele>49.400001525879</ele>
        <time>2016-05-02T20:30:52.000Z</time>
      </trkpt>
      <trkpt lat="48.86623" lon="2.33712">
        <ele>48.799999237061</ele>
        <time>2016-05-02T20:30:58.000Z</time>
      </trkpt>
      <trkpt lat="48.86605" lon="2.33702">
        <ele>48.200000762939</ele>
        <time>2016-05-02T20:31:03.000Z</time>
      </trkpt>
      <trkpt lat="48.86601" lon="2.33702">
        <ele>48</ele>
        <time>2016-05-02T20:31:04.000Z</time>
      </trkpt>
      <trkpt lat="48.86581" lon="2.33695">
        <ele>48</ele>
        <time>2016-05-02T20:31:09.000Z</time>
      </trkpt>
      <trkpt lat="48.86561" lon="2.33681">
        <ele>48.200000762939</ele>
        <time>2016-05-02T20:31:14.000Z</time>
      </trkpt>
      <trkpt lat="48.86541" lon="2.3367">
        <ele>48.200000762939</ele>
        <time>2016-05-02T20:31:19.000Z</time>
      </trkpt>
      <trkpt lat="48.86524" lon="2.3366">
        <ele>48.200000762939</ele>
        <time>2016-05-02T20:31:23.000Z</time>
      </trkpt>
      <trkpt lat="48.86505" lon="2.33649">
        <ele>47.799999237061</ele>
        <time>2016-05-02T20:31:28.000Z</time>
      </trkpt>
      <trkpt lat="48.86485" lon="2.33638">
        <ele>47.200000762939</ele>
        <time>2016-05-02T20:31:33.000Z</time>
      </trkpt>
      <trkpt lat="48.86465" lon="2.33626">
        <ele>46.799999237061</ele>
        <time>2016-05-02T20:31:38.000Z</time>
      </trkpt>
      <trkpt lat="48.86445" lon="2.33614">
        <ele>46.400001525879</ele>
        <time>2016-05-02T20:31:43.000Z</time>
      </trkpt>
      <trkpt lat="48.86427" lon="2.33604">
        <ele>46.400001525879</ele>
        <time>2016-05-02T20:31:48.000Z</time>
      </trkpt>
      <trkpt lat="48.86407" lon="2.33594">
        <ele>46.599998474121</ele>
        <time>2016-05-02T20:31:52.000Z</time>
      </trkpt>
      <trkpt lat="48.86397" lon="2.33593">
        <ele>46.799999237061</ele>
        <time>2016-05-02T20:31:54.000Z</time>
      </trkpt>
      <trkpt lat="48.86379" lon="2.33585">
        <ele>46.799999237061</ele>
        <time>2016-05-02T20:32:00.000Z</time>
      </trkpt>
      <trkpt lat="48.86379" lon="2.33584">
        <ele>47</ele>
        <time>2016-05-02T20:32:02.000Z</time>
      </trkpt>
      <trkpt lat="48.86366" lon="2.33568">
        <ele>47.200000762939</ele>
        <time>2016-05-02T20:32:08.000Z</time>
      </trkpt>
      <trkpt lat="48.86354" lon="2.33584">
        <ele>46.799999237061</ele>
        <time>2016-05-02T20:32:13.000Z</time>
      </trkpt>
      <trkpt lat="48.86344" lon="2.33595">
        <ele>46.599998474121</ele>
        <time>2016-05-02T20:32:16.000Z</time>
      </trkpt>
      <trkpt lat="48.8632" lon="2.33611">
        <ele>46.400001525879</ele>
        <time>2016-05-02T20:32:23.000Z</time>
      </trkpt>
      <trkpt lat="48.86311" lon="2.33622">
        <ele>46.200000762939</ele>
        <time>2016-05-02T20:32:27.000Z</time>
      </trkpt>
      <trkpt lat="48.8631" lon="2.33625">
        <ele>46.200000762939</ele>
        <time>2016-05-02T20:32:28.000Z</time>
      </trkpt>
      <trkpt lat="48.86306" lon="2.33637">
        <ele>46.200000762939</ele>
        <time>2016-05-02T20:32:32.000Z</time>
      </trkpt>
      <trkpt lat="48.86294" lon="2.33656">
        <ele>46.400001525879</ele>
        <time>2016-05-02T20:32:51.000Z</time>
      </trkpt>
      <trkpt lat="48.86288" lon="2.33684">
        <ele>46.200000762939</ele>
        <time>2016-05-02T20:32:56.000Z</time>
      </trkpt>
      <trkpt lat="48.8628" lon="2.33711">
        <ele>46.200000762939</ele>
        <time>2016-05-02T20:33:01.000Z</time>
      </trkpt>
      <trkpt lat="48.86272" lon="2.3374">
        <ele>46</ele>
        <time>2016-05-02T20:33:06.000Z</time>
      </trkpt>
      <trkpt lat="48.86263" lon="2.3377">
        <ele>45.799999237061</ele>
        <time>2016-05-02T20:33:11.000Z</time>
      </trkpt>
      <trkpt lat="48.86254" lon="2.33796">
        <ele>45.599998474121</ele>
        <time>2016-05-02T20:33:15.000Z</time>
      </trkpt>
      <trkpt lat="48.86246" lon="2.33822">
        <ele>44.799999237061</ele>
        <time>2016-05-02T20:33:19.000Z</time>
      </trkpt>
      <trkpt lat="48.86238" lon="2.33847">
        <ele>44.799999237061</ele>
        <time>2016-05-02T20:33:23.000Z</time>
      </trkpt>
      <trkpt lat="48.86229" lon="2.33874">
        <ele>45.400001525879</ele>
        <time>2016-05-02T20:33:27.000Z</time>
      </trkpt>
      <trkpt lat="48.86224" lon="2.33905">
        <ele>46</ele>
        <time>2016-05-02T20:33:31.000Z</time>
      </trkpt>
      <trkpt lat="48.8622" lon="2.33927">
        <ele>46.400001525879</ele>
        <time>2016-05-02T20:33:34.000Z</time>
      </trkpt>
      <trkpt lat="48.86214" lon="2.33954">
        <ele>47.200000762939</ele>
        <time>2016-05-02T20:33:38.000Z</time>
      </trkpt>
      <trkpt lat="48.86206" lon="2.33981">
        <ele>48.400001525879</ele>
        <time>2016-05-02T20:33:42.000Z</time>
      </trkpt>
      <trkpt lat="48.86197" lon="2.34007">
        <ele>49.200000762939</ele>
        <time>2016-05-02T20:33:46.000Z</time>
      </trkpt>
      <trkpt lat="48.86188" lon="2.34032">
        <ele>49</ele>
        <time>2016-05-02T20:33:50.000Z</time>
      </trkpt>
      <trkpt lat="48.86178" lon="2.34062">
        <ele>48.799999237061</ele>
        <time>2016-05-02T20:33:55.000Z</time>
      </trkpt>
      <trkpt lat="48.86174" lon="2.34092">
        <ele>48.599998474121</ele>
        <time>2016-05-02T20:34:00.000Z</time>
      </trkpt>
      <trkpt lat="48.86171" lon="2.34105">
        <ele>48.599998474121</ele>
        <time>2016-05-02T20:34:04.000Z</time>
      </trkpt>
      <trkpt lat="48.86163" lon="2.34133">
        <ele>48.599998474121</ele>
        <time>2016-05-02T20:34:20.000Z</time>
      </trkpt>
      <trkpt lat="48.86154" lon="2.34157">
        <ele>49</ele>
        <time>2016-05-02T20:34:25.000Z</time>
      </trkpt>
      <trkpt lat="48.86146" lon="2.34182">
        <ele>49</ele>
        <time>2016-05-02T20:34:29.000Z</time>
      </trkpt>
      <trkpt lat="48.86141" lon="2.3421">
        <ele>49</ele>
        <time>2016-05-02T20:34:33.000Z</time>
      </trkpt>
      <trkpt lat="48.86139" lon="2.34239">
        <ele>49.200000762939</ele>
        <time>2016-05-02T20:34:37.000Z</time>
      </trkpt>
      <trkpt lat="48.86135" lon="2.34273">
        <ele>49</ele>
        <time>2016-05-02T20:34:42.000Z</time>
      </trkpt>
      <trkpt lat="48.86131" lon="2.34301">
        <ele>49.599998474121</ele>
        <time>2016-05-02T20:34:46.000Z</time>
      </trkpt>
      <trkpt lat="48.86128" lon="2.34307">
        <ele>49.799999237061</ele>
        <time>2016-05-02T20:34:47.000Z</time>
      </trkpt>
      <trkpt lat="48.86119" lon="2.34333">
        <ele>50.599998474121</ele>
        <time>2016-05-02T20:34:51.000Z</time>
      </trkpt>
      <trkpt lat="48.86115" lon="2.34363">
        <ele>50</ele>
        <time>2016-05-02T20:34:55.000Z</time>
      </trkpt>
      <trkpt lat="48.86114" lon="2.34396">
        <ele>49.799999237061</ele>
        <time>2016-05-02T20:34:59.000Z</time>
      </trkpt>
      <trkpt lat="48.86111" lon="2.34426">
        <ele>49.400001525879</ele>
        <time>2016-05-02T20:35:03.000Z</time>
      </trkpt>
      <trkpt lat="48.86113" lon="2.34462">
        <ele>49.400001525879</ele>
        <time>2016-05-02T20:35:07.000Z</time>
      </trkpt>
      <trkpt lat="48.86109" lon="2.34486">
        <ele>50.400001525879</ele>
        <time>2016-05-02T20:35:11.000Z</time>
      </trkpt>
      <trkpt lat="48.86098" lon="2.34507">
        <ele>51</ele>
        <time>2016-05-02T20:35:15.000Z</time>
      </trkpt>
      <trkpt lat="48.86091" lon="2.34537">
        <ele>50.799999237061</ele>
        <time>2016-05-02T20:35:19.000Z</time>
      </trkpt>
      <trkpt lat="48.86085" lon="2.34566">
        <ele>50.400001525879</ele>
        <time>2016-05-02T20:35:23.000Z</time>
      </trkpt>
      <trkpt lat="48.86078" lon="2.34586">
        <ele>49.200000762939</ele>
        <time>2016-05-02T20:35:26.000Z</time>
      </trkpt>
      <trkpt lat="48.86064" lon="2.34607">
        <ele>47.200000762939</ele>
        <time>2016-05-02T20:35:30.000Z</time>
      </trkpt>
      <trkpt lat="48.86049" lon="2.34625">
        <ele>46.400001525879</ele>
        <time>2016-05-02T20:35:34.000Z</time>
      </trkpt>
      <trkpt lat="48.86029" lon="2.3464">
        <ele>46.599998474121</ele>
        <time>2016-05-02T20:35:39.000Z</time>
      </trkpt>
      <trkpt lat="48.86015" lon="2.34646">
        <ele>46.799999237061</ele>
        <time>2016-05-02T20:35:42.000Z</time>
      </trkpt>
      <trkpt lat="48.85996" lon="2.34661">
        <ele>46.400001525879</ele>
        <time>2016-05-02T20:35:46.000Z</time>
      </trkpt>
      <trkpt lat="48.85982" lon="2.34675">
        <ele>46.400001525879</ele>
        <time>2016-05-02T20:35:49.000Z</time>
      </trkpt>
      <trkpt lat="48.8597" lon="2.34686">
        <ele>46.400001525879</ele>
        <time>2016-05-02T20:35:52.000Z</time>
      </trkpt>
      <trkpt lat="48.85963" lon="2.347">
        <ele>46</ele>
        <time>2016-05-02T20:35:56.000Z</time>
      </trkpt>
      <trkpt lat="48.85962" lon="2.34707">
        <ele>45.799999237061</ele>
        <time>2016-05-02T20:35:59.000Z</time>
      </trkpt>
      <trkpt lat="48.85958" lon="2.34711">
        <ele>45.599998474121</ele>
        <time>2016-05-02T20:36:05.000Z</time>
      </trkpt>
      <trkpt lat="48.85956" lon="2.34712">
        <ele>45.400001525879</ele>
        <time>2016-05-02T20:36:06.000Z</time>
      </trkpt>
      <trkpt lat="48.85951" lon="2.34717">
        <ele>45.200000762939</ele>
        <time>2016-05-02T20:36:15.000Z</time>
      </trkpt>
    </trkseg>
  </trk>
</gpx>